<?xml version="1.0" encoding="UTF-8" standalone="no" ?>
<gpx xmlns="http://www.topografix.com/GPX/1/1" creator="www.cicloide.com" version="1.1" xmlns:xsi="http://www.w3.org/2001/XMLSchema-instance" xsi:schemaLocation="http://www.topografix.com/GPX/1/1 http://www.topografix.com/GPX/1/1/gpx.xsd">
  <trk>
    <name>www.cicloide.com 12706</name>
    <desc>www.cicloide.com 12706</desc>
    <trkseg>
      <trkpt lat="41.544502000" lon="1.886366000">
        <ele>96.70</ele>
        <time>2013-03-24T08:09:09Z</time>
      </trkpt>
      <trkpt lat="41.544502000" lon="1.886366000">
        <ele>97.40</ele>
        <time>2013-03-24T08:09:52Z</time>
      </trkpt>
      <trkpt lat="41.543777000" lon="1.886519000">
        <ele>111.50</ele>
        <time>2013-03-24T08:16:03Z</time>
      </trkpt>
      <trkpt lat="41.543916000" lon="1.886293000">
        <ele>111.00</ele>
        <time>2013-03-24T08:16:10Z</time>
      </trkpt>
      <trkpt lat="41.544055000" lon="1.886082000">
        <ele>110.60</ele>
        <time>2013-03-24T08:16:17Z</time>
      </trkpt>
      <trkpt lat="41.544203000" lon="1.885893000">
        <ele>110.00</ele>
        <time>2013-03-24T08:16:23Z</time>
      </trkpt>
      <trkpt lat="41.544391000" lon="1.885689000">
        <ele>109.70</ele>
        <time>2013-03-24T08:16:28Z</time>
      </trkpt>
      <trkpt lat="41.544566000" lon="1.885492000">
        <ele>109.10</ele>
        <time>2013-03-24T08:16:35Z</time>
      </trkpt>
      <trkpt lat="41.544724000" lon="1.885323000">
        <ele>108.50</ele>
        <time>2013-03-24T08:16:40Z</time>
      </trkpt>
      <trkpt lat="41.544869000" lon="1.885149000">
        <ele>106.90</ele>
        <time>2013-03-24T08:16:43Z</time>
      </trkpt>
      <trkpt lat="41.545038000" lon="1.884950000">
        <ele>105.60</ele>
        <time>2013-03-24T08:16:47Z</time>
      </trkpt>
      <trkpt lat="41.545188000" lon="1.884782000">
        <ele>103.80</ele>
        <time>2013-03-24T08:16:50Z</time>
      </trkpt>
      <trkpt lat="41.545327000" lon="1.884596000">
        <ele>103.00</ele>
        <time>2013-03-24T08:16:54Z</time>
      </trkpt>
      <trkpt lat="41.545475000" lon="1.884431000">
        <ele>102.60</ele>
        <time>2013-03-24T08:16:57Z</time>
      </trkpt>
      <trkpt lat="41.545646000" lon="1.884210000">
        <ele>103.00</ele>
        <time>2013-03-24T08:17:01Z</time>
      </trkpt>
      <trkpt lat="41.545671000" lon="1.883966000">
        <ele>103.40</ele>
        <time>2013-03-24T08:17:04Z</time>
      </trkpt>
      <trkpt lat="41.545487000" lon="1.883827000">
        <ele>102.10</ele>
        <time>2013-03-24T08:17:08Z</time>
      </trkpt>
      <trkpt lat="41.545264000" lon="1.883718000">
        <ele>100.70</ele>
        <time>2013-03-24T08:17:13Z</time>
      </trkpt>
      <trkpt lat="41.545035000" lon="1.883615000">
        <ele>100.20</ele>
        <time>2013-03-24T08:17:17Z</time>
      </trkpt>
      <trkpt lat="41.544841000" lon="1.883496000">
        <ele>100.40</ele>
        <time>2013-03-24T08:17:20Z</time>
      </trkpt>
      <trkpt lat="41.544694000" lon="1.883337000">
        <ele>101.60</ele>
        <time>2013-03-24T08:17:25Z</time>
      </trkpt>
      <trkpt lat="41.544591000" lon="1.883118000">
        <ele>103.40</ele>
        <time>2013-03-24T08:17:29Z</time>
      </trkpt>
      <trkpt lat="41.544633000" lon="1.882865000">
        <ele>103.90</ele>
        <time>2013-03-24T08:17:34Z</time>
      </trkpt>
      <trkpt lat="41.544733000" lon="1.882599000">
        <ele>103.00</ele>
        <time>2013-03-24T08:17:39Z</time>
      </trkpt>
      <trkpt lat="41.544737000" lon="1.882322000">
        <ele>101.80</ele>
        <time>2013-03-24T08:17:43Z</time>
      </trkpt>
      <trkpt lat="41.544644000" lon="1.882042000">
        <ele>100.60</ele>
        <time>2013-03-24T08:17:48Z</time>
      </trkpt>
      <trkpt lat="41.544500000" lon="1.881900000">
        <ele>99.90</ele>
        <time>2013-03-24T08:17:50Z</time>
      </trkpt>
      <trkpt lat="41.544319000" lon="1.881826000">
        <ele>99.30</ele>
        <time>2013-03-24T08:17:53Z</time>
      </trkpt>
      <trkpt lat="41.544121000" lon="1.881839000">
        <ele>98.70</ele>
        <time>2013-03-24T08:17:57Z</time>
      </trkpt>
      <trkpt lat="41.543944000" lon="1.881960000">
        <ele>97.70</ele>
        <time>2013-03-24T08:18:00Z</time>
      </trkpt>
      <trkpt lat="41.543784000" lon="1.882064000">
        <ele>97.90</ele>
        <time>2013-03-24T08:18:02Z</time>
      </trkpt>
      <trkpt lat="41.543575000" lon="1.881980000">
        <ele>97.00</ele>
        <time>2013-03-24T08:18:07Z</time>
      </trkpt>
      <trkpt lat="41.543400000" lon="1.881860000">
        <ele>95.20</ele>
        <time>2013-03-24T08:18:09Z</time>
      </trkpt>
      <trkpt lat="41.543199000" lon="1.881721000">
        <ele>92.30</ele>
        <time>2013-03-24T08:18:12Z</time>
      </trkpt>
      <trkpt lat="41.542976000" lon="1.881572000">
        <ele>90.40</ele>
        <time>2013-03-24T08:18:16Z</time>
      </trkpt>
      <trkpt lat="41.542735000" lon="1.881420000">
        <ele>89.10</ele>
        <time>2013-03-24T08:18:19Z</time>
      </trkpt>
      <trkpt lat="41.542496000" lon="1.881272000">
        <ele>88.30</ele>
        <time>2013-03-24T08:18:21Z</time>
      </trkpt>
      <trkpt lat="41.542283000" lon="1.881131000">
        <ele>88.60</ele>
        <time>2013-03-24T08:18:24Z</time>
      </trkpt>
      <trkpt lat="41.542085000" lon="1.881001000">
        <ele>88.60</ele>
        <time>2013-03-24T08:18:28Z</time>
      </trkpt>
      <trkpt lat="41.541903000" lon="1.880881000">
        <ele>88.70</ele>
        <time>2013-03-24T08:18:30Z</time>
      </trkpt>
      <trkpt lat="41.541739000" lon="1.880784000">
        <ele>88.60</ele>
        <time>2013-03-24T08:18:33Z</time>
      </trkpt>
      <trkpt lat="41.541574000" lon="1.880683000">
        <ele>88.90</ele>
        <time>2013-03-24T08:18:37Z</time>
      </trkpt>
      <trkpt lat="41.541405000" lon="1.880585000">
        <ele>88.80</ele>
        <time>2013-03-24T08:18:40Z</time>
      </trkpt>
      <trkpt lat="41.541244000" lon="1.880494000">
        <ele>88.80</ele>
        <time>2013-03-24T08:18:42Z</time>
      </trkpt>
      <trkpt lat="41.541068000" lon="1.880322000">
        <ele>89.20</ele>
        <time>2013-03-24T08:18:47Z</time>
      </trkpt>
      <trkpt lat="41.541114000" lon="1.880039000">
        <ele>89.40</ele>
        <time>2013-03-24T08:18:51Z</time>
      </trkpt>
      <trkpt lat="41.541171000" lon="1.879757000">
        <ele>89.50</ele>
        <time>2013-03-24T08:18:54Z</time>
      </trkpt>
      <trkpt lat="41.541224000" lon="1.879487000">
        <ele>89.50</ele>
        <time>2013-03-24T08:18:59Z</time>
      </trkpt>
      <trkpt lat="41.541288000" lon="1.879224000">
        <ele>89.40</ele>
        <time>2013-03-24T08:19:03Z</time>
      </trkpt>
      <trkpt lat="41.541374000" lon="1.878985000">
        <ele>89.70</ele>
        <time>2013-03-24T08:19:06Z</time>
      </trkpt>
      <trkpt lat="41.541469000" lon="1.878756000">
        <ele>89.90</ele>
        <time>2013-03-24T08:19:10Z</time>
      </trkpt>
      <trkpt lat="41.541570000" lon="1.878536000">
        <ele>89.90</ele>
        <time>2013-03-24T08:19:15Z</time>
      </trkpt>
      <trkpt lat="41.541683000" lon="1.878344000">
        <ele>89.70</ele>
        <time>2013-03-24T08:19:18Z</time>
      </trkpt>
      <trkpt lat="41.541804000" lon="1.878159000">
        <ele>89.60</ele>
        <time>2013-03-24T08:19:22Z</time>
      </trkpt>
      <trkpt lat="41.541935000" lon="1.877995000">
        <ele>89.80</ele>
        <time>2013-03-24T08:19:27Z</time>
      </trkpt>
      <trkpt lat="41.542041000" lon="1.877745000">
        <ele>89.80</ele>
        <time>2013-03-24T08:19:31Z</time>
      </trkpt>
      <trkpt lat="41.542091000" lon="1.877475000">
        <ele>90.80</ele>
        <time>2013-03-24T08:19:36Z</time>
      </trkpt>
      <trkpt lat="41.542117000" lon="1.877220000">
        <ele>91.60</ele>
        <time>2013-03-24T08:19:41Z</time>
      </trkpt>
      <trkpt lat="41.542162000" lon="1.876931000">
        <ele>92.10</ele>
        <time>2013-03-24T08:19:48Z</time>
      </trkpt>
      <trkpt lat="41.542205000" lon="1.876666000">
        <ele>93.00</ele>
        <time>2013-03-24T08:19:53Z</time>
      </trkpt>
      <trkpt lat="41.542237000" lon="1.876417000">
        <ele>93.70</ele>
        <time>2013-03-24T08:20:00Z</time>
      </trkpt>
      <trkpt lat="41.542278000" lon="1.876144000">
        <ele>93.80</ele>
        <time>2013-03-24T08:20:06Z</time>
      </trkpt>
      <trkpt lat="41.542318000" lon="1.875880000">
        <ele>94.70</ele>
        <time>2013-03-24T08:20:11Z</time>
      </trkpt>
      <trkpt lat="41.542357000" lon="1.875623000">
        <ele>95.00</ele>
        <time>2013-03-24T08:20:18Z</time>
      </trkpt>
      <trkpt lat="41.542388000" lon="1.875366000">
        <ele>95.80</ele>
        <time>2013-03-24T08:20:23Z</time>
      </trkpt>
      <trkpt lat="41.542425000" lon="1.875101000">
        <ele>96.30</ele>
        <time>2013-03-24T08:20:30Z</time>
      </trkpt>
      <trkpt lat="41.542461000" lon="1.874816000">
        <ele>96.30</ele>
        <time>2013-03-24T08:20:35Z</time>
      </trkpt>
      <trkpt lat="41.542522000" lon="1.874566000">
        <ele>96.60</ele>
        <time>2013-03-24T08:20:42Z</time>
      </trkpt>
      <trkpt lat="41.542586000" lon="1.874299000">
        <ele>96.40</ele>
        <time>2013-03-24T08:20:47Z</time>
      </trkpt>
      <trkpt lat="41.542649000" lon="1.874074000">
        <ele>96.60</ele>
        <time>2013-03-24T08:20:53Z</time>
      </trkpt>
      <trkpt lat="41.542717000" lon="1.873835000">
        <ele>96.70</ele>
        <time>2013-03-24T08:20:58Z</time>
      </trkpt>
      <trkpt lat="41.542777000" lon="1.873598000">
        <ele>96.70</ele>
        <time>2013-03-24T08:21:03Z</time>
      </trkpt>
      <trkpt lat="41.542855000" lon="1.873357000">
        <ele>96.30</ele>
        <time>2013-03-24T08:21:08Z</time>
      </trkpt>
      <trkpt lat="41.542967000" lon="1.873113000">
        <ele>95.90</ele>
        <time>2013-03-24T08:21:12Z</time>
      </trkpt>
      <trkpt lat="41.543140000" lon="1.872928000">
        <ele>95.20</ele>
        <time>2013-03-24T08:21:17Z</time>
      </trkpt>
      <trkpt lat="41.543286000" lon="1.872763000">
        <ele>94.60</ele>
        <time>2013-03-24T08:21:22Z</time>
      </trkpt>
      <trkpt lat="41.543432000" lon="1.872585000">
        <ele>93.40</ele>
        <time>2013-03-24T08:21:26Z</time>
      </trkpt>
      <trkpt lat="41.543602000" lon="1.872399000">
        <ele>92.30</ele>
        <time>2013-03-24T08:21:29Z</time>
      </trkpt>
      <trkpt lat="41.543761000" lon="1.872277000">
        <ele>91.90</ele>
        <time>2013-03-24T08:21:33Z</time>
      </trkpt>
      <trkpt lat="41.543939000" lon="1.872194000">
        <ele>91.10</ele>
        <time>2013-03-24T08:21:36Z</time>
      </trkpt>
      <trkpt lat="41.544178000" lon="1.872142000">
        <ele>91.30</ele>
        <time>2013-03-24T08:21:40Z</time>
      </trkpt>
      <trkpt lat="41.544405000" lon="1.872084000">
        <ele>90.10</ele>
        <time>2013-03-24T08:21:43Z</time>
      </trkpt>
      <trkpt lat="41.544585000" lon="1.872053000">
        <ele>89.10</ele>
        <time>2013-03-24T08:21:47Z</time>
      </trkpt>
      <trkpt lat="41.544803000" lon="1.872115000">
        <ele>89.70</ele>
        <time>2013-03-24T08:21:50Z</time>
      </trkpt>
      <trkpt lat="41.544999000" lon="1.872213000">
        <ele>90.00</ele>
        <time>2013-03-24T08:21:55Z</time>
      </trkpt>
      <trkpt lat="41.545203000" lon="1.872254000">
        <ele>90.10</ele>
        <time>2013-03-24T08:21:59Z</time>
      </trkpt>
      <trkpt lat="41.545396000" lon="1.872214000">
        <ele>90.10</ele>
        <time>2013-03-24T08:22:02Z</time>
      </trkpt>
      <trkpt lat="41.545580000" lon="1.872116000">
        <ele>90.40</ele>
        <time>2013-03-24T08:22:06Z</time>
      </trkpt>
      <trkpt lat="41.545751000" lon="1.872012000">
        <ele>90.60</ele>
        <time>2013-03-24T08:22:11Z</time>
      </trkpt>
      <trkpt lat="41.545914000" lon="1.871901000">
        <ele>90.60</ele>
        <time>2013-03-24T08:22:14Z</time>
      </trkpt>
      <trkpt lat="41.546078000" lon="1.871813000">
        <ele>90.70</ele>
        <time>2013-03-24T08:22:18Z</time>
      </trkpt>
      <trkpt lat="41.546265000" lon="1.871808000">
        <ele>90.30</ele>
        <time>2013-03-24T08:22:23Z</time>
      </trkpt>
      <trkpt lat="41.546447000" lon="1.871840000">
        <ele>90.00</ele>
        <time>2013-03-24T08:22:27Z</time>
      </trkpt>
      <trkpt lat="41.546630000" lon="1.871873000">
        <ele>90.00</ele>
        <time>2013-03-24T08:22:30Z</time>
      </trkpt>
      <trkpt lat="41.546812000" lon="1.871910000">
        <ele>89.80</ele>
        <time>2013-03-24T08:22:35Z</time>
      </trkpt>
      <trkpt lat="41.546993000" lon="1.871942000">
        <ele>89.40</ele>
        <time>2013-03-24T08:22:39Z</time>
      </trkpt>
      <trkpt lat="41.547181000" lon="1.871963000">
        <ele>89.20</ele>
        <time>2013-03-24T08:22:42Z</time>
      </trkpt>
      <trkpt lat="41.547370000" lon="1.871918000">
        <ele>88.90</ele>
        <time>2013-03-24T08:22:46Z</time>
      </trkpt>
      <trkpt lat="41.547553000" lon="1.871818000">
        <ele>88.70</ele>
        <time>2013-03-24T08:22:51Z</time>
      </trkpt>
      <trkpt lat="41.547699000" lon="1.871655000">
        <ele>89.30</ele>
        <time>2013-03-24T08:22:54Z</time>
      </trkpt>
      <trkpt lat="41.547855000" lon="1.871470000">
        <ele>89.90</ele>
        <time>2013-03-24T08:23:00Z</time>
      </trkpt>
      <trkpt lat="41.547987000" lon="1.871294000">
        <ele>91.00</ele>
        <time>2013-03-24T08:23:05Z</time>
      </trkpt>
      <trkpt lat="41.548138000" lon="1.871112000">
        <ele>92.10</ele>
        <time>2013-03-24T08:23:10Z</time>
      </trkpt>
      <trkpt lat="41.548286000" lon="1.870937000">
        <ele>92.90</ele>
        <time>2013-03-24T08:23:17Z</time>
      </trkpt>
      <trkpt lat="41.548441000" lon="1.870764000">
        <ele>93.50</ele>
        <time>2013-03-24T08:23:22Z</time>
      </trkpt>
      <trkpt lat="41.548583000" lon="1.870585000">
        <ele>94.60</ele>
        <time>2013-03-24T08:23:29Z</time>
      </trkpt>
      <trkpt lat="41.548720000" lon="1.870410000">
        <ele>95.50</ele>
        <time>2013-03-24T08:23:35Z</time>
      </trkpt>
      <trkpt lat="41.548865000" lon="1.870312000">
        <ele>96.60</ele>
        <time>2013-03-24T08:23:40Z</time>
      </trkpt>
      <trkpt lat="41.549022000" lon="1.870299000">
        <ele>97.50</ele>
        <time>2013-03-24T08:23:47Z</time>
      </trkpt>
      <trkpt lat="41.549173000" lon="1.870121000">
        <ele>98.00</ele>
        <time>2013-03-24T08:23:52Z</time>
      </trkpt>
      <trkpt lat="41.549287000" lon="1.869932000">
        <ele>98.70</ele>
        <time>2013-03-24T08:23:59Z</time>
      </trkpt>
      <trkpt lat="41.549427000" lon="1.869719000">
        <ele>100.10</ele>
        <time>2013-03-24T08:24:06Z</time>
      </trkpt>
      <trkpt lat="41.549552000" lon="1.869491000">
        <ele>100.90</ele>
        <time>2013-03-24T08:24:13Z</time>
      </trkpt>
      <trkpt lat="41.549660000" lon="1.869259000">
        <ele>102.20</ele>
        <time>2013-03-24T08:24:20Z</time>
      </trkpt>
      <trkpt lat="41.549767000" lon="1.869058000">
        <ele>103.30</ele>
        <time>2013-03-24T08:24:25Z</time>
      </trkpt>
      <trkpt lat="41.549869000" lon="1.868856000">
        <ele>104.40</ele>
        <time>2013-03-24T08:24:32Z</time>
      </trkpt>
      <trkpt lat="41.549988000" lon="1.868647000">
        <ele>105.70</ele>
        <time>2013-03-24T08:24:39Z</time>
      </trkpt>
      <trkpt lat="41.550118000" lon="1.868440000">
        <ele>106.80</ele>
        <time>2013-03-24T08:24:46Z</time>
      </trkpt>
      <trkpt lat="41.550274000" lon="1.868291000">
        <ele>107.90</ele>
        <time>2013-03-24T08:24:53Z</time>
      </trkpt>
      <trkpt lat="41.550413000" lon="1.868160000">
        <ele>109.90</ele>
        <time>2013-03-24T08:25:00Z</time>
      </trkpt>
      <trkpt lat="41.550432000" lon="1.868410000">
        <ele>110.60</ele>
        <time>2013-03-24T08:25:12Z</time>
      </trkpt>
      <trkpt lat="41.550347000" lon="1.868611000">
        <ele>111.30</ele>
        <time>2013-03-24T08:25:19Z</time>
      </trkpt>
      <trkpt lat="41.550207000" lon="1.868794000">
        <ele>112.40</ele>
        <time>2013-03-24T08:25:28Z</time>
      </trkpt>
      <trkpt lat="41.550088000" lon="1.869012000">
        <ele>113.60</ele>
        <time>2013-03-24T08:25:35Z</time>
      </trkpt>
      <trkpt lat="41.550004000" lon="1.869240000">
        <ele>115.00</ele>
        <time>2013-03-24T08:25:43Z</time>
      </trkpt>
      <trkpt lat="41.549943000" lon="1.869501000">
        <ele>116.10</ele>
        <time>2013-03-24T08:25:52Z</time>
      </trkpt>
      <trkpt lat="41.549891000" lon="1.869742000">
        <ele>117.50</ele>
        <time>2013-03-24T08:25:59Z</time>
      </trkpt>
      <trkpt lat="41.549803000" lon="1.869984000">
        <ele>118.50</ele>
        <time>2013-03-24T08:26:08Z</time>
      </trkpt>
      <trkpt lat="41.549682000" lon="1.870295000">
        <ele>119.70</ele>
        <time>2013-03-24T08:26:18Z</time>
      </trkpt>
      <trkpt lat="41.549610000" lon="1.870530000">
        <ele>121.20</ele>
        <time>2013-03-24T08:26:27Z</time>
      </trkpt>
      <trkpt lat="41.549792000" lon="1.870672000">
        <ele>122.60</ele>
        <time>2013-03-24T08:26:36Z</time>
      </trkpt>
      <trkpt lat="41.549974000" lon="1.870643000">
        <ele>123.60</ele>
        <time>2013-03-24T08:26:43Z</time>
      </trkpt>
      <trkpt lat="41.550146000" lon="1.870547000">
        <ele>125.30</ele>
        <time>2013-03-24T08:26:51Z</time>
      </trkpt>
      <trkpt lat="41.550273000" lon="1.870376000">
        <ele>126.30</ele>
        <time>2013-03-24T08:27:00Z</time>
      </trkpt>
      <trkpt lat="41.550342000" lon="1.870138000">
        <ele>127.30</ele>
        <time>2013-03-24T08:27:07Z</time>
      </trkpt>
      <trkpt lat="41.550481000" lon="1.869971000">
        <ele>128.00</ele>
        <time>2013-03-24T08:27:16Z</time>
      </trkpt>
      <trkpt lat="41.550619000" lon="1.870154000">
        <ele>128.80</ele>
        <time>2013-03-24T08:27:23Z</time>
      </trkpt>
      <trkpt lat="41.550708000" lon="1.870390000">
        <ele>129.60</ele>
        <time>2013-03-24T08:27:31Z</time>
      </trkpt>
      <trkpt lat="41.550814000" lon="1.870588000">
        <ele>131.70</ele>
        <time>2013-03-24T08:27:40Z</time>
      </trkpt>
      <trkpt lat="41.550918000" lon="1.870798000">
        <ele>134.50</ele>
        <time>2013-03-24T08:27:49Z</time>
      </trkpt>
      <trkpt lat="41.551060000" lon="1.870947000">
        <ele>137.30</ele>
        <time>2013-03-24T08:27:58Z</time>
      </trkpt>
      <trkpt lat="41.551153000" lon="1.870760000">
        <ele>138.40</ele>
        <time>2013-03-24T08:28:06Z</time>
      </trkpt>
      <trkpt lat="41.551146000" lon="1.870489000">
        <ele>140.00</ele>
        <time>2013-03-24T08:28:15Z</time>
      </trkpt>
      <trkpt lat="41.551088000" lon="1.870236000">
        <ele>141.00</ele>
        <time>2013-03-24T08:28:24Z</time>
      </trkpt>
      <trkpt lat="41.551019000" lon="1.869980000">
        <ele>142.30</ele>
        <time>2013-03-24T08:28:32Z</time>
      </trkpt>
      <trkpt lat="41.551026000" lon="1.869734000">
        <ele>143.60</ele>
        <time>2013-03-24T08:28:41Z</time>
      </trkpt>
      <trkpt lat="41.551066000" lon="1.869492000">
        <ele>143.70</ele>
        <time>2013-03-24T08:28:48Z</time>
      </trkpt>
      <trkpt lat="41.551121000" lon="1.869230000">
        <ele>144.10</ele>
        <time>2013-03-24T08:28:57Z</time>
      </trkpt>
      <trkpt lat="41.551232000" lon="1.869011000">
        <ele>145.20</ele>
        <time>2013-03-24T08:29:04Z</time>
      </trkpt>
      <trkpt lat="41.551316000" lon="1.868777000">
        <ele>146.80</ele>
        <time>2013-03-24T08:29:12Z</time>
      </trkpt>
      <trkpt lat="41.551406000" lon="1.868611000">
        <ele>148.10</ele>
        <time>2013-03-24T08:29:25Z</time>
      </trkpt>
      <trkpt lat="41.551631000" lon="1.868609000">
        <ele>148.90</ele>
        <time>2013-03-24T08:29:42Z</time>
      </trkpt>
      <trkpt lat="41.551775000" lon="1.868485000">
        <ele>150.50</ele>
        <time>2013-03-24T08:29:49Z</time>
      </trkpt>
      <trkpt lat="41.551880000" lon="1.868222000">
        <ele>151.70</ele>
        <time>2013-03-24T08:30:10Z</time>
      </trkpt>
      <trkpt lat="41.552006000" lon="1.868003000">
        <ele>152.80</ele>
        <time>2013-03-24T08:30:17Z</time>
      </trkpt>
      <trkpt lat="41.552096000" lon="1.867766000">
        <ele>153.60</ele>
        <time>2013-03-24T08:30:24Z</time>
      </trkpt>
      <trkpt lat="41.552173000" lon="1.867519000">
        <ele>154.10</ele>
        <time>2013-03-24T08:30:31Z</time>
      </trkpt>
      <trkpt lat="41.552312000" lon="1.867367000">
        <ele>154.20</ele>
        <time>2013-03-24T08:30:38Z</time>
      </trkpt>
      <trkpt lat="41.552393000" lon="1.867140000">
        <ele>155.60</ele>
        <time>2013-03-24T08:30:45Z</time>
      </trkpt>
      <trkpt lat="41.552473000" lon="1.866912000">
        <ele>155.10</ele>
        <time>2013-03-24T08:30:50Z</time>
      </trkpt>
      <trkpt lat="41.552595000" lon="1.866705000">
        <ele>153.80</ele>
        <time>2013-03-24T08:30:57Z</time>
      </trkpt>
      <trkpt lat="41.552716000" lon="1.866479000">
        <ele>150.60</ele>
        <time>2013-03-24T08:31:04Z</time>
      </trkpt>
      <trkpt lat="41.552837000" lon="1.866289000">
        <ele>150.70</ele>
        <time>2013-03-24T08:31:11Z</time>
      </trkpt>
      <trkpt lat="41.552923000" lon="1.866068000">
        <ele>148.90</ele>
        <time>2013-03-24T08:31:18Z</time>
      </trkpt>
      <trkpt lat="41.553036000" lon="1.865846000">
        <ele>143.50</ele>
        <time>2013-03-24T08:31:25Z</time>
      </trkpt>
      <trkpt lat="41.553206000" lon="1.865679000">
        <ele>143.40</ele>
        <time>2013-03-24T08:31:30Z</time>
      </trkpt>
      <trkpt lat="41.553317000" lon="1.865496000">
        <ele>146.10</ele>
        <time>2013-03-24T08:31:37Z</time>
      </trkpt>
      <trkpt lat="41.553418000" lon="1.865227000">
        <ele>142.40</ele>
        <time>2013-03-24T08:31:44Z</time>
      </trkpt>
      <trkpt lat="41.553481000" lon="1.864985000">
        <ele>141.10</ele>
        <time>2013-03-24T08:31:48Z</time>
      </trkpt>
      <trkpt lat="41.553588000" lon="1.864777000">
        <ele>140.90</ele>
        <time>2013-03-24T08:31:53Z</time>
      </trkpt>
      <trkpt lat="41.553633000" lon="1.864543000">
        <ele>140.70</ele>
        <time>2013-03-24T08:32:00Z</time>
      </trkpt>
      <trkpt lat="41.553559000" lon="1.864291000">
        <ele>139.90</ele>
        <time>2013-03-24T08:32:05Z</time>
      </trkpt>
      <trkpt lat="41.553449000" lon="1.864061000">
        <ele>137.10</ele>
        <time>2013-03-24T08:32:12Z</time>
      </trkpt>
      <trkpt lat="41.553360000" lon="1.863842000">
        <ele>133.80</ele>
        <time>2013-03-24T08:32:15Z</time>
      </trkpt>
      <trkpt lat="41.553273000" lon="1.863618000">
        <ele>133.70</ele>
        <time>2013-03-24T08:32:22Z</time>
      </trkpt>
      <trkpt lat="41.553188000" lon="1.863387000">
        <ele>131.90</ele>
        <time>2013-03-24T08:32:29Z</time>
      </trkpt>
      <trkpt lat="41.553230000" lon="1.863148000">
        <ele>132.80</ele>
        <time>2013-03-24T08:32:38Z</time>
      </trkpt>
      <trkpt lat="41.553249000" lon="1.862897000">
        <ele>133.90</ele>
        <time>2013-03-24T08:32:57Z</time>
      </trkpt>
      <trkpt lat="41.553315000" lon="1.862640000">
        <ele>134.70</ele>
        <time>2013-03-24T08:33:06Z</time>
      </trkpt>
      <trkpt lat="41.553397000" lon="1.862421000">
        <ele>136.50</ele>
        <time>2013-03-24T08:33:13Z</time>
      </trkpt>
      <trkpt lat="41.553430000" lon="1.862147000">
        <ele>137.60</ele>
        <time>2013-03-24T08:33:23Z</time>
      </trkpt>
      <trkpt lat="41.553461000" lon="1.861902000">
        <ele>138.70</ele>
        <time>2013-03-24T08:33:34Z</time>
      </trkpt>
      <trkpt lat="41.553469000" lon="1.861660000">
        <ele>139.40</ele>
        <time>2013-03-24T08:33:44Z</time>
      </trkpt>
      <trkpt lat="41.553479000" lon="1.861377000">
        <ele>141.60</ele>
        <time>2013-03-24T08:33:55Z</time>
      </trkpt>
      <trkpt lat="41.553496000" lon="1.861143000">
        <ele>143.40</ele>
        <time>2013-03-24T08:34:03Z</time>
      </trkpt>
      <trkpt lat="41.553660000" lon="1.861038000">
        <ele>145.50</ele>
        <time>2013-03-24T08:34:14Z</time>
      </trkpt>
      <trkpt lat="41.553716000" lon="1.860803000">
        <ele>148.20</ele>
        <time>2013-03-24T08:34:23Z</time>
      </trkpt>
      <trkpt lat="41.553851000" lon="1.860812000">
        <ele>150.40</ele>
        <time>2013-03-24T08:34:31Z</time>
      </trkpt>
      <trkpt lat="41.553859000" lon="1.861071000">
        <ele>151.90</ele>
        <time>2013-03-24T08:34:40Z</time>
      </trkpt>
      <trkpt lat="41.553848000" lon="1.861332000">
        <ele>153.80</ele>
        <time>2013-03-24T08:34:49Z</time>
      </trkpt>
      <trkpt lat="41.553854000" lon="1.861583000">
        <ele>155.30</ele>
        <time>2013-03-24T08:34:59Z</time>
      </trkpt>
      <trkpt lat="41.553866000" lon="1.861830000">
        <ele>156.50</ele>
        <time>2013-03-24T08:35:08Z</time>
      </trkpt>
      <trkpt lat="41.553867000" lon="1.862092000">
        <ele>158.30</ele>
        <time>2013-03-24T08:35:18Z</time>
      </trkpt>
      <trkpt lat="41.553895000" lon="1.862376000">
        <ele>161.60</ele>
        <time>2013-03-24T08:35:27Z</time>
      </trkpt>
      <trkpt lat="41.554041000" lon="1.862237000">
        <ele>165.10</ele>
        <time>2013-03-24T08:35:37Z</time>
      </trkpt>
      <trkpt lat="41.554130000" lon="1.862006000">
        <ele>167.50</ele>
        <time>2013-03-24T08:35:48Z</time>
      </trkpt>
      <trkpt lat="41.554154000" lon="1.862203000">
        <ele>170.10</ele>
        <time>2013-03-24T08:35:58Z</time>
      </trkpt>
      <trkpt lat="41.554142000" lon="1.862474000">
        <ele>171.40</ele>
        <time>2013-03-24T08:36:09Z</time>
      </trkpt>
      <trkpt lat="41.554285000" lon="1.862558000">
        <ele>173.10</ele>
        <time>2013-03-24T08:36:19Z</time>
      </trkpt>
      <trkpt lat="41.554311000" lon="1.862322000">
        <ele>175.40</ele>
        <time>2013-03-24T08:36:28Z</time>
      </trkpt>
      <trkpt lat="41.554324000" lon="1.862081000">
        <ele>176.20</ele>
        <time>2013-03-24T08:36:37Z</time>
      </trkpt>
      <trkpt lat="41.554331000" lon="1.861837000">
        <ele>177.50</ele>
        <time>2013-03-24T08:36:45Z</time>
      </trkpt>
      <trkpt lat="41.554354000" lon="1.861591000">
        <ele>178.40</ele>
        <time>2013-03-24T08:36:54Z</time>
      </trkpt>
      <trkpt lat="41.554400000" lon="1.861349000">
        <ele>179.90</ele>
        <time>2013-03-24T08:37:03Z</time>
      </trkpt>
      <trkpt lat="41.554447000" lon="1.861114000">
        <ele>181.10</ele>
        <time>2013-03-24T08:37:13Z</time>
      </trkpt>
      <trkpt lat="41.554556000" lon="1.861032000">
        <ele>184.10</ele>
        <time>2013-03-24T08:37:22Z</time>
      </trkpt>
      <trkpt lat="41.554588000" lon="1.861264000">
        <ele>185.70</ele>
        <time>2013-03-24T08:37:31Z</time>
      </trkpt>
      <trkpt lat="41.554645000" lon="1.861498000">
        <ele>187.10</ele>
        <time>2013-03-24T08:37:39Z</time>
      </trkpt>
      <trkpt lat="41.554712000" lon="1.861726000">
        <ele>188.90</ele>
        <time>2013-03-24T08:37:48Z</time>
      </trkpt>
      <trkpt lat="41.554731000" lon="1.861988000">
        <ele>190.40</ele>
        <time>2013-03-24T08:37:57Z</time>
      </trkpt>
      <trkpt lat="41.554732000" lon="1.862247000">
        <ele>192.00</ele>
        <time>2013-03-24T08:38:07Z</time>
      </trkpt>
      <trkpt lat="41.554726000" lon="1.862512000">
        <ele>193.30</ele>
        <time>2013-03-24T08:38:16Z</time>
      </trkpt>
      <trkpt lat="41.554752000" lon="1.862717000">
        <ele>195.70</ele>
        <time>2013-03-24T08:38:25Z</time>
      </trkpt>
      <trkpt lat="41.554800000" lon="1.862472000">
        <ele>197.30</ele>
        <time>2013-03-24T08:38:33Z</time>
      </trkpt>
      <trkpt lat="41.554864000" lon="1.862223000">
        <ele>198.50</ele>
        <time>2013-03-24T08:38:42Z</time>
      </trkpt>
      <trkpt lat="41.554940000" lon="1.861992000">
        <ele>199.90</ele>
        <time>2013-03-24T08:38:51Z</time>
      </trkpt>
      <trkpt lat="41.554990000" lon="1.861754000">
        <ele>201.00</ele>
        <time>2013-03-24T08:39:01Z</time>
      </trkpt>
      <trkpt lat="41.555002000" lon="1.861494000">
        <ele>202.10</ele>
        <time>2013-03-24T08:39:10Z</time>
      </trkpt>
      <trkpt lat="41.554958000" lon="1.861245000">
        <ele>202.90</ele>
        <time>2013-03-24T08:39:19Z</time>
      </trkpt>
      <trkpt lat="41.555002000" lon="1.861016000">
        <ele>204.40</ele>
        <time>2013-03-24T08:39:27Z</time>
      </trkpt>
      <trkpt lat="41.555038000" lon="1.860754000">
        <ele>205.90</ele>
        <time>2013-03-24T08:39:36Z</time>
      </trkpt>
      <trkpt lat="41.555083000" lon="1.860513000">
        <ele>208.60</ele>
        <time>2013-03-24T08:39:45Z</time>
      </trkpt>
      <trkpt lat="41.555169000" lon="1.860300000">
        <ele>210.50</ele>
        <time>2013-03-24T08:39:55Z</time>
      </trkpt>
      <trkpt lat="41.555266000" lon="1.860421000">
        <ele>213.30</ele>
        <time>2013-03-24T08:40:04Z</time>
      </trkpt>
      <trkpt lat="41.555279000" lon="1.860668000">
        <ele>215.00</ele>
        <time>2013-03-24T08:40:13Z</time>
      </trkpt>
      <trkpt lat="41.555294000" lon="1.860938000">
        <ele>216.80</ele>
        <time>2013-03-24T08:40:23Z</time>
      </trkpt>
      <trkpt lat="41.555431000" lon="1.861134000">
        <ele>218.20</ele>
        <time>2013-03-24T08:40:34Z</time>
      </trkpt>
      <trkpt lat="41.555598000" lon="1.861036000">
        <ele>221.20</ele>
        <time>2013-03-24T08:40:44Z</time>
      </trkpt>
      <trkpt lat="41.555680000" lon="1.860829000">
        <ele>224.90</ele>
        <time>2013-03-24T08:40:53Z</time>
      </trkpt>
      <trkpt lat="41.555761000" lon="1.860631000">
        <ele>228.00</ele>
        <time>2013-03-24T08:41:03Z</time>
      </trkpt>
      <trkpt lat="41.555879000" lon="1.860439000">
        <ele>230.70</ele>
        <time>2013-03-24T08:41:14Z</time>
      </trkpt>
      <trkpt lat="41.556009000" lon="1.860239000">
        <ele>232.90</ele>
        <time>2013-03-24T08:41:24Z</time>
      </trkpt>
      <trkpt lat="41.556000000" lon="1.860002000">
        <ele>236.60</ele>
        <time>2013-03-24T08:41:36Z</time>
      </trkpt>
      <trkpt lat="41.555875000" lon="1.859794000">
        <ele>240.40</ele>
        <time>2013-03-24T08:41:50Z</time>
      </trkpt>
      <trkpt lat="41.555935000" lon="1.859556000">
        <ele>241.50</ele>
        <time>2013-03-24T08:42:02Z</time>
      </trkpt>
      <trkpt lat="41.556007000" lon="1.859335000">
        <ele>243.70</ele>
        <time>2013-03-24T08:42:16Z</time>
      </trkpt>
      <trkpt lat="41.556074000" lon="1.859096000">
        <ele>245.40</ele>
        <time>2013-03-24T08:42:27Z</time>
      </trkpt>
      <trkpt lat="41.556152000" lon="1.858865000">
        <ele>245.50</ele>
        <time>2013-03-24T08:42:37Z</time>
      </trkpt>
      <trkpt lat="41.556222000" lon="1.858643000">
        <ele>245.80</ele>
        <time>2013-03-24T08:42:44Z</time>
      </trkpt>
      <trkpt lat="41.556241000" lon="1.858360000">
        <ele>244.30</ele>
        <time>2013-03-24T08:42:53Z</time>
      </trkpt>
      <trkpt lat="41.556304000" lon="1.858102000">
        <ele>242.30</ele>
        <time>2013-03-24T08:42:56Z</time>
      </trkpt>
      <trkpt lat="41.556368000" lon="1.857810000">
        <ele>238.50</ele>
        <time>2013-03-24T08:43:00Z</time>
      </trkpt>
      <trkpt lat="41.556503000" lon="1.857600000">
        <ele>234.30</ele>
        <time>2013-03-24T08:43:03Z</time>
      </trkpt>
      <trkpt lat="41.556692000" lon="1.857426000">
        <ele>229.20</ele>
        <time>2013-03-24T08:43:07Z</time>
      </trkpt>
      <trkpt lat="41.556877000" lon="1.857177000">
        <ele>227.30</ele>
        <time>2013-03-24T08:43:10Z</time>
      </trkpt>
      <trkpt lat="41.556992000" lon="1.856891000">
        <ele>224.60</ele>
        <time>2013-03-24T08:43:12Z</time>
      </trkpt>
      <trkpt lat="41.557140000" lon="1.856649000">
        <ele>223.40</ele>
        <time>2013-03-24T08:43:16Z</time>
      </trkpt>
      <trkpt lat="41.557335000" lon="1.856502000">
        <ele>222.60</ele>
        <time>2013-03-24T08:43:19Z</time>
      </trkpt>
      <trkpt lat="41.557549000" lon="1.856453000">
        <ele>220.10</ele>
        <time>2013-03-24T08:43:21Z</time>
      </trkpt>
      <trkpt lat="41.557657000" lon="1.856285000">
        <ele>223.20</ele>
        <time>2013-03-24T08:43:26Z</time>
      </trkpt>
      <trkpt lat="41.557497000" lon="1.856128000">
        <ele>227.40</ele>
        <time>2013-03-24T08:43:33Z</time>
      </trkpt>
      <trkpt lat="41.557309000" lon="1.856009000">
        <ele>229.80</ele>
        <time>2013-03-24T08:43:42Z</time>
      </trkpt>
      <trkpt lat="41.557131000" lon="1.855937000">
        <ele>231.60</ele>
        <time>2013-03-24T08:43:50Z</time>
      </trkpt>
      <trkpt lat="41.556953000" lon="1.855941000">
        <ele>233.10</ele>
        <time>2013-03-24T08:43:59Z</time>
      </trkpt>
      <trkpt lat="41.556779000" lon="1.856018000">
        <ele>235.80</ele>
        <time>2013-03-24T08:44:08Z</time>
      </trkpt>
      <trkpt lat="41.556618000" lon="1.856126000">
        <ele>237.40</ele>
        <time>2013-03-24T08:44:18Z</time>
      </trkpt>
      <trkpt lat="41.556451000" lon="1.856247000">
        <ele>239.00</ele>
        <time>2013-03-24T08:44:27Z</time>
      </trkpt>
      <trkpt lat="41.556258000" lon="1.856303000">
        <ele>241.10</ele>
        <time>2013-03-24T08:44:36Z</time>
      </trkpt>
      <trkpt lat="41.556083000" lon="1.856271000">
        <ele>242.50</ele>
        <time>2013-03-24T08:44:43Z</time>
      </trkpt>
      <trkpt lat="41.556047000" lon="1.856045000">
        <ele>244.10</ele>
        <time>2013-03-24T08:44:53Z</time>
      </trkpt>
      <trkpt lat="41.556130000" lon="1.855803000">
        <ele>244.90</ele>
        <time>2013-03-24T08:45:02Z</time>
      </trkpt>
      <trkpt lat="41.556170000" lon="1.855554000">
        <ele>245.80</ele>
        <time>2013-03-24T08:45:09Z</time>
      </trkpt>
      <trkpt lat="41.556270000" lon="1.855335000">
        <ele>246.80</ele>
        <time>2013-03-24T08:45:18Z</time>
      </trkpt>
      <trkpt lat="41.556405000" lon="1.855137000">
        <ele>247.90</ele>
        <time>2013-03-24T08:45:26Z</time>
      </trkpt>
      <trkpt lat="41.556517000" lon="1.854933000">
        <ele>248.50</ele>
        <time>2013-03-24T08:45:33Z</time>
      </trkpt>
      <trkpt lat="41.556568000" lon="1.854685000">
        <ele>248.00</ele>
        <time>2013-03-24T08:45:37Z</time>
      </trkpt>
      <trkpt lat="41.556711000" lon="1.854514000">
        <ele>249.90</ele>
        <time>2013-03-24T08:45:44Z</time>
      </trkpt>
      <trkpt lat="41.556885000" lon="1.854408000">
        <ele>250.70</ele>
        <time>2013-03-24T08:45:51Z</time>
      </trkpt>
      <trkpt lat="41.556960000" lon="1.854175000">
        <ele>249.80</ele>
        <time>2013-03-24T08:45:56Z</time>
      </trkpt>
      <trkpt lat="41.556850000" lon="1.854019000">
        <ele>251.10</ele>
        <time>2013-03-24T08:46:01Z</time>
      </trkpt>
      <trkpt lat="41.556650000" lon="1.854014000">
        <ele>252.00</ele>
        <time>2013-03-24T08:46:06Z</time>
      </trkpt>
      <trkpt lat="41.556458000" lon="1.853965000">
        <ele>253.00</ele>
        <time>2013-03-24T08:46:12Z</time>
      </trkpt>
      <trkpt lat="41.556265000" lon="1.854051000">
        <ele>253.90</ele>
        <time>2013-03-24T08:46:17Z</time>
      </trkpt>
      <trkpt lat="41.556109000" lon="1.854204000">
        <ele>254.90</ele>
        <time>2013-03-24T08:46:22Z</time>
      </trkpt>
      <trkpt lat="41.555936000" lon="1.854169000">
        <ele>255.90</ele>
        <time>2013-03-24T08:46:27Z</time>
      </trkpt>
      <trkpt lat="41.555861000" lon="1.853920000">
        <ele>258.20</ele>
        <time>2013-03-24T08:46:34Z</time>
      </trkpt>
      <trkpt lat="41.555828000" lon="1.853640000">
        <ele>256.70</ele>
        <time>2013-03-24T08:46:43Z</time>
      </trkpt>
      <trkpt lat="41.555730000" lon="1.853401000">
        <ele>257.20</ele>
        <time>2013-03-24T08:46:46Z</time>
      </trkpt>
      <trkpt lat="41.555533000" lon="1.853329000">
        <ele>259.50</ele>
        <time>2013-03-24T08:46:53Z</time>
      </trkpt>
      <trkpt lat="41.555461000" lon="1.853264000">
        <ele>261.40</ele>
        <time>2013-03-24T08:50:22Z</time>
      </trkpt>
      <trkpt lat="41.555359000" lon="1.853147000">
        <ele>261.80</ele>
        <time>2013-03-24T08:50:36Z</time>
      </trkpt>
      <trkpt lat="41.555153000" lon="1.853134000">
        <ele>260.80</ele>
        <time>2013-03-24T08:51:08Z</time>
      </trkpt>
      <trkpt lat="41.554955000" lon="1.853161000">
        <ele>259.80</ele>
        <time>2013-03-24T08:51:11Z</time>
      </trkpt>
      <trkpt lat="41.554714000" lon="1.853201000">
        <ele>258.10</ele>
        <time>2013-03-24T08:51:16Z</time>
      </trkpt>
      <trkpt lat="41.554526000" lon="1.853231000">
        <ele>258.50</ele>
        <time>2013-03-24T08:51:18Z</time>
      </trkpt>
      <trkpt lat="41.554293000" lon="1.853286000">
        <ele>257.40</ele>
        <time>2013-03-24T08:51:23Z</time>
      </trkpt>
      <trkpt lat="41.554073000" lon="1.853311000">
        <ele>257.10</ele>
        <time>2013-03-24T08:51:27Z</time>
      </trkpt>
      <trkpt lat="41.553895000" lon="1.853205000">
        <ele>257.00</ele>
        <time>2013-03-24T08:51:32Z</time>
      </trkpt>
      <trkpt lat="41.553771000" lon="1.852983000">
        <ele>255.20</ele>
        <time>2013-03-24T08:51:39Z</time>
      </trkpt>
      <trkpt lat="41.553796000" lon="1.852721000">
        <ele>252.40</ele>
        <time>2013-03-24T08:51:44Z</time>
      </trkpt>
      <trkpt lat="41.553855000" lon="1.852486000">
        <ele>251.90</ele>
        <time>2013-03-24T08:51:48Z</time>
      </trkpt>
      <trkpt lat="41.553972000" lon="1.852224000">
        <ele>251.40</ele>
        <time>2013-03-24T08:51:53Z</time>
      </trkpt>
      <trkpt lat="41.554071000" lon="1.851976000">
        <ele>251.20</ele>
        <time>2013-03-24T08:51:58Z</time>
      </trkpt>
      <trkpt lat="41.554122000" lon="1.851687000">
        <ele>250.60</ele>
        <time>2013-03-24T08:52:05Z</time>
      </trkpt>
      <trkpt lat="41.554196000" lon="1.851408000">
        <ele>249.30</ele>
        <time>2013-03-24T08:52:10Z</time>
      </trkpt>
      <trkpt lat="41.554116000" lon="1.851181000">
        <ele>248.50</ele>
        <time>2013-03-24T08:52:14Z</time>
      </trkpt>
      <trkpt lat="41.554021000" lon="1.850912000">
        <ele>248.50</ele>
        <time>2013-03-24T08:52:19Z</time>
      </trkpt>
      <trkpt lat="41.553856000" lon="1.850868000">
        <ele>248.90</ele>
        <time>2013-03-24T08:52:24Z</time>
      </trkpt>
      <trkpt lat="41.553697000" lon="1.850999000">
        <ele>248.50</ele>
        <time>2013-03-24T08:52:31Z</time>
      </trkpt>
      <trkpt lat="41.553522000" lon="1.851018000">
        <ele>248.90</ele>
        <time>2013-03-24T08:52:36Z</time>
      </trkpt>
      <trkpt lat="41.553348000" lon="1.850902000">
        <ele>247.50</ele>
        <time>2013-03-24T08:52:43Z</time>
      </trkpt>
      <trkpt lat="41.553284000" lon="1.850621000">
        <ele>243.90</ele>
        <time>2013-03-24T08:52:50Z</time>
      </trkpt>
      <trkpt lat="41.553217000" lon="1.850338000">
        <ele>242.00</ele>
        <time>2013-03-24T08:52:54Z</time>
      </trkpt>
      <trkpt lat="41.553245000" lon="1.850050000">
        <ele>242.90</ele>
        <time>2013-03-24T08:52:59Z</time>
      </trkpt>
      <trkpt lat="41.553264000" lon="1.849787000">
        <ele>243.40</ele>
        <time>2013-03-24T08:53:04Z</time>
      </trkpt>
      <trkpt lat="41.553273000" lon="1.849532000">
        <ele>243.30</ele>
        <time>2013-03-24T08:53:10Z</time>
      </trkpt>
      <trkpt lat="41.553336000" lon="1.849298000">
        <ele>243.30</ele>
        <time>2013-03-24T08:53:15Z</time>
      </trkpt>
      <trkpt lat="41.553519000" lon="1.849286000">
        <ele>244.10</ele>
        <time>2013-03-24T08:53:22Z</time>
      </trkpt>
      <trkpt lat="41.553728000" lon="1.849315000">
        <ele>244.50</ele>
        <time>2013-03-24T08:53:29Z</time>
      </trkpt>
      <trkpt lat="41.553902000" lon="1.849164000">
        <ele>244.90</ele>
        <time>2013-03-24T08:53:36Z</time>
      </trkpt>
      <trkpt lat="41.554040000" lon="1.849007000">
        <ele>245.50</ele>
        <time>2013-03-24T08:53:41Z</time>
      </trkpt>
      <trkpt lat="41.554188000" lon="1.848832000">
        <ele>246.50</ele>
        <time>2013-03-24T08:53:48Z</time>
      </trkpt>
      <trkpt lat="41.554337000" lon="1.848663000">
        <ele>246.70</ele>
        <time>2013-03-24T08:53:53Z</time>
      </trkpt>
      <trkpt lat="41.554477000" lon="1.848479000">
        <ele>247.70</ele>
        <time>2013-03-24T08:54:00Z</time>
      </trkpt>
      <trkpt lat="41.554483000" lon="1.848233000">
        <ele>247.90</ele>
        <time>2013-03-24T08:54:07Z</time>
      </trkpt>
      <trkpt lat="41.554393000" lon="1.848008000">
        <ele>248.10</ele>
        <time>2013-03-24T08:54:12Z</time>
      </trkpt>
      <trkpt lat="41.554310000" lon="1.847778000">
        <ele>248.10</ele>
        <time>2013-03-24T08:54:19Z</time>
      </trkpt>
      <trkpt lat="41.554209000" lon="1.847521000">
        <ele>247.80</ele>
        <time>2013-03-24T08:54:24Z</time>
      </trkpt>
      <trkpt lat="41.554131000" lon="1.847286000">
        <ele>248.30</ele>
        <time>2013-03-24T08:54:30Z</time>
      </trkpt>
      <trkpt lat="41.554056000" lon="1.847048000">
        <ele>248.40</ele>
        <time>2013-03-24T08:54:37Z</time>
      </trkpt>
      <trkpt lat="41.553948000" lon="1.846836000">
        <ele>248.70</ele>
        <time>2013-03-24T08:54:42Z</time>
      </trkpt>
      <trkpt lat="41.553790000" lon="1.846692000">
        <ele>249.30</ele>
        <time>2013-03-24T08:54:49Z</time>
      </trkpt>
      <trkpt lat="41.553656000" lon="1.846507000">
        <ele>248.90</ele>
        <time>2013-03-24T08:54:54Z</time>
      </trkpt>
      <trkpt lat="41.553652000" lon="1.846227000">
        <ele>248.60</ele>
        <time>2013-03-24T08:55:01Z</time>
      </trkpt>
      <trkpt lat="41.553656000" lon="1.845960000">
        <ele>248.90</ele>
        <time>2013-03-24T08:55:06Z</time>
      </trkpt>
      <trkpt lat="41.553656000" lon="1.845702000">
        <ele>249.60</ele>
        <time>2013-03-24T08:55:13Z</time>
      </trkpt>
      <trkpt lat="41.553670000" lon="1.845462000">
        <ele>250.90</ele>
        <time>2013-03-24T08:55:18Z</time>
      </trkpt>
      <trkpt lat="41.553706000" lon="1.845204000">
        <ele>252.10</ele>
        <time>2013-03-24T08:55:25Z</time>
      </trkpt>
      <trkpt lat="41.553742000" lon="1.844940000">
        <ele>252.90</ele>
        <time>2013-03-24T08:55:32Z</time>
      </trkpt>
      <trkpt lat="41.553780000" lon="1.844672000">
        <ele>253.80</ele>
        <time>2013-03-24T08:55:39Z</time>
      </trkpt>
      <trkpt lat="41.553820000" lon="1.844405000">
        <ele>254.40</ele>
        <time>2013-03-24T08:55:46Z</time>
      </trkpt>
      <trkpt lat="41.553864000" lon="1.844146000">
        <ele>255.20</ele>
        <time>2013-03-24T08:55:53Z</time>
      </trkpt>
      <trkpt lat="41.553899000" lon="1.843902000">
        <ele>255.90</ele>
        <time>2013-03-24T08:56:00Z</time>
      </trkpt>
      <trkpt lat="41.554006000" lon="1.843693000">
        <ele>256.50</ele>
        <time>2013-03-24T08:56:07Z</time>
      </trkpt>
      <trkpt lat="41.554100000" lon="1.843470000">
        <ele>257.00</ele>
        <time>2013-03-24T08:56:14Z</time>
      </trkpt>
      <trkpt lat="41.554201000" lon="1.843227000">
        <ele>257.50</ele>
        <time>2013-03-24T08:56:21Z</time>
      </trkpt>
      <trkpt lat="41.554316000" lon="1.842999000">
        <ele>258.10</ele>
        <time>2013-03-24T08:56:28Z</time>
      </trkpt>
      <trkpt lat="41.554452000" lon="1.842784000">
        <ele>258.40</ele>
        <time>2013-03-24T08:56:35Z</time>
      </trkpt>
      <trkpt lat="41.554558000" lon="1.842553000">
        <ele>259.20</ele>
        <time>2013-03-24T08:56:42Z</time>
      </trkpt>
      <trkpt lat="41.554636000" lon="1.842342000">
        <ele>259.80</ele>
        <time>2013-03-24T08:56:49Z</time>
      </trkpt>
      <trkpt lat="41.554749000" lon="1.842101000">
        <ele>260.40</ele>
        <time>2013-03-24T08:56:56Z</time>
      </trkpt>
      <trkpt lat="41.554855000" lon="1.841850000">
        <ele>261.00</ele>
        <time>2013-03-24T08:57:03Z</time>
      </trkpt>
      <trkpt lat="41.554953000" lon="1.841623000">
        <ele>261.70</ele>
        <time>2013-03-24T08:57:10Z</time>
      </trkpt>
      <trkpt lat="41.555045000" lon="1.841392000">
        <ele>262.50</ele>
        <time>2013-03-24T08:57:17Z</time>
      </trkpt>
      <trkpt lat="41.555148000" lon="1.841160000">
        <ele>263.20</ele>
        <time>2013-03-24T08:57:24Z</time>
      </trkpt>
      <trkpt lat="41.555267000" lon="1.840957000">
        <ele>264.80</ele>
        <time>2013-03-24T08:57:31Z</time>
      </trkpt>
      <trkpt lat="41.555392000" lon="1.840751000">
        <ele>266.00</ele>
        <time>2013-03-24T08:57:38Z</time>
      </trkpt>
      <trkpt lat="41.555515000" lon="1.840548000">
        <ele>267.00</ele>
        <time>2013-03-24T08:57:47Z</time>
      </trkpt>
      <trkpt lat="41.555643000" lon="1.840331000">
        <ele>267.90</ele>
        <time>2013-03-24T08:57:55Z</time>
      </trkpt>
      <trkpt lat="41.555775000" lon="1.840116000">
        <ele>268.80</ele>
        <time>2013-03-24T08:58:02Z</time>
      </trkpt>
      <trkpt lat="41.555907000" lon="1.839908000">
        <ele>269.90</ele>
        <time>2013-03-24T08:58:11Z</time>
      </trkpt>
      <trkpt lat="41.556037000" lon="1.839699000">
        <ele>271.00</ele>
        <time>2013-03-24T08:58:18Z</time>
      </trkpt>
      <trkpt lat="41.556170000" lon="1.839519000">
        <ele>271.70</ele>
        <time>2013-03-24T08:58:27Z</time>
      </trkpt>
      <trkpt lat="41.556306000" lon="1.839331000">
        <ele>272.70</ele>
        <time>2013-03-24T08:58:35Z</time>
      </trkpt>
      <trkpt lat="41.556446000" lon="1.839154000">
        <ele>273.80</ele>
        <time>2013-03-24T08:58:42Z</time>
      </trkpt>
      <trkpt lat="41.556583000" lon="1.838991000">
        <ele>274.80</ele>
        <time>2013-03-24T08:58:51Z</time>
      </trkpt>
      <trkpt lat="41.556719000" lon="1.838834000">
        <ele>276.20</ele>
        <time>2013-03-24T08:58:58Z</time>
      </trkpt>
      <trkpt lat="41.556886000" lon="1.838653000">
        <ele>276.80</ele>
        <time>2013-03-24T08:59:07Z</time>
      </trkpt>
      <trkpt lat="41.557041000" lon="1.838505000">
        <ele>278.40</ele>
        <time>2013-03-24T08:59:14Z</time>
      </trkpt>
      <trkpt lat="41.557205000" lon="1.838355000">
        <ele>279.10</ele>
        <time>2013-03-24T08:59:22Z</time>
      </trkpt>
      <trkpt lat="41.557375000" lon="1.838246000">
        <ele>279.90</ele>
        <time>2013-03-24T08:59:29Z</time>
      </trkpt>
      <trkpt lat="41.557552000" lon="1.838091000">
        <ele>280.30</ele>
        <time>2013-03-24T08:59:36Z</time>
      </trkpt>
      <trkpt lat="41.557723000" lon="1.837971000">
        <ele>280.50</ele>
        <time>2013-03-24T08:59:41Z</time>
      </trkpt>
      <trkpt lat="41.557877000" lon="1.837825000">
        <ele>281.50</ele>
        <time>2013-03-24T08:59:47Z</time>
      </trkpt>
      <trkpt lat="41.558040000" lon="1.837675000">
        <ele>283.20</ele>
        <time>2013-03-24T08:59:54Z</time>
      </trkpt>
      <trkpt lat="41.558240000" lon="1.837580000">
        <ele>282.80</ele>
        <time>2013-03-24T09:00:01Z</time>
      </trkpt>
      <trkpt lat="41.558395000" lon="1.837439000">
        <ele>283.80</ele>
        <time>2013-03-24T09:00:08Z</time>
      </trkpt>
      <trkpt lat="41.558498000" lon="1.837216000">
        <ele>286.50</ele>
        <time>2013-03-24T09:00:16Z</time>
      </trkpt>
      <trkpt lat="41.558598000" lon="1.837011000">
        <ele>287.30</ele>
        <time>2013-03-24T09:00:23Z</time>
      </trkpt>
      <trkpt lat="41.558768000" lon="1.836904000">
        <ele>286.10</ele>
        <time>2013-03-24T09:00:30Z</time>
      </trkpt>
      <trkpt lat="41.558960000" lon="1.836871000">
        <ele>285.20</ele>
        <time>2013-03-24T09:00:34Z</time>
      </trkpt>
      <trkpt lat="41.559171000" lon="1.836793000">
        <ele>286.10</ele>
        <time>2013-03-24T09:00:39Z</time>
      </trkpt>
      <trkpt lat="41.559332000" lon="1.836626000">
        <ele>289.40</ele>
        <time>2013-03-24T09:00:46Z</time>
      </trkpt>
      <trkpt lat="41.559492000" lon="1.836487000">
        <ele>291.90</ele>
        <time>2013-03-24T09:00:53Z</time>
      </trkpt>
      <trkpt lat="41.559588000" lon="1.836279000">
        <ele>293.10</ele>
        <time>2013-03-24T09:01:02Z</time>
      </trkpt>
      <trkpt lat="41.559683000" lon="1.836057000">
        <ele>294.90</ele>
        <time>2013-03-24T09:01:10Z</time>
      </trkpt>
      <trkpt lat="41.559769000" lon="1.835841000">
        <ele>296.20</ele>
        <time>2013-03-24T09:01:17Z</time>
      </trkpt>
      <trkpt lat="41.559892000" lon="1.835628000">
        <ele>297.80</ele>
        <time>2013-03-24T09:01:26Z</time>
      </trkpt>
      <trkpt lat="41.560046000" lon="1.835689000">
        <ele>298.30</ele>
        <time>2013-03-24T09:01:35Z</time>
      </trkpt>
      <trkpt lat="41.560188000" lon="1.835864000">
        <ele>298.10</ele>
        <time>2013-03-24T09:01:40Z</time>
      </trkpt>
      <trkpt lat="41.560309000" lon="1.836050000">
        <ele>298.00</ele>
        <time>2013-03-24T09:01:47Z</time>
      </trkpt>
      <trkpt lat="41.560446000" lon="1.836230000">
        <ele>298.20</ele>
        <time>2013-03-24T09:01:52Z</time>
      </trkpt>
      <trkpt lat="41.560587000" lon="1.836432000">
        <ele>297.70</ele>
        <time>2013-03-24T09:01:59Z</time>
      </trkpt>
      <trkpt lat="41.560726000" lon="1.836612000">
        <ele>297.30</ele>
        <time>2013-03-24T09:02:04Z</time>
      </trkpt>
      <trkpt lat="41.560882000" lon="1.836729000">
        <ele>297.90</ele>
        <time>2013-03-24T09:02:10Z</time>
      </trkpt>
      <trkpt lat="41.561064000" lon="1.836669000">
        <ele>299.30</ele>
        <time>2013-03-24T09:02:15Z</time>
      </trkpt>
      <trkpt lat="41.561212000" lon="1.836509000">
        <ele>300.70</ele>
        <time>2013-03-24T09:02:22Z</time>
      </trkpt>
      <trkpt lat="41.561329000" lon="1.836306000">
        <ele>302.20</ele>
        <time>2013-03-24T09:02:29Z</time>
      </trkpt>
      <trkpt lat="41.561434000" lon="1.836116000">
        <ele>303.70</ele>
        <time>2013-03-24T09:02:36Z</time>
      </trkpt>
      <trkpt lat="41.561625000" lon="1.835666000">
        <ele>306.10</ele>
        <time>2013-03-24T09:02:51Z</time>
      </trkpt>
      <trkpt lat="41.561755000" lon="1.835437000">
        <ele>307.70</ele>
        <time>2013-03-24T09:03:00Z</time>
      </trkpt>
      <trkpt lat="41.561822000" lon="1.835203000">
        <ele>308.70</ele>
        <time>2013-03-24T09:03:07Z</time>
      </trkpt>
      <trkpt lat="41.561889000" lon="1.834974000">
        <ele>309.60</ele>
        <time>2013-03-24T09:03:14Z</time>
      </trkpt>
      <trkpt lat="41.561971000" lon="1.834747000">
        <ele>310.60</ele>
        <time>2013-03-24T09:03:21Z</time>
      </trkpt>
      <trkpt lat="41.562068000" lon="1.834505000">
        <ele>312.10</ele>
        <time>2013-03-24T09:03:28Z</time>
      </trkpt>
      <trkpt lat="41.562177000" lon="1.834284000">
        <ele>313.80</ele>
        <time>2013-03-24T09:03:37Z</time>
      </trkpt>
      <trkpt lat="41.562270000" lon="1.834060000">
        <ele>315.40</ele>
        <time>2013-03-24T09:03:45Z</time>
      </trkpt>
      <trkpt lat="41.562361000" lon="1.833824000">
        <ele>316.60</ele>
        <time>2013-03-24T09:03:52Z</time>
      </trkpt>
      <trkpt lat="41.562403000" lon="1.833578000">
        <ele>318.10</ele>
        <time>2013-03-24T09:04:01Z</time>
      </trkpt>
      <trkpt lat="41.562430000" lon="1.833332000">
        <ele>319.40</ele>
        <time>2013-03-24T09:04:08Z</time>
      </trkpt>
      <trkpt lat="41.562486000" lon="1.833092000">
        <ele>320.60</ele>
        <time>2013-03-24T09:04:17Z</time>
      </trkpt>
      <trkpt lat="41.562527000" lon="1.832833000">
        <ele>321.80</ele>
        <time>2013-03-24T09:04:25Z</time>
      </trkpt>
      <trkpt lat="41.562588000" lon="1.832604000">
        <ele>323.40</ele>
        <time>2013-03-24T09:04:34Z</time>
      </trkpt>
      <trkpt lat="41.562768000" lon="1.832517000">
        <ele>324.50</ele>
        <time>2013-03-24T09:04:46Z</time>
      </trkpt>
      <trkpt lat="41.562951000" lon="1.832440000">
        <ele>324.70</ele>
        <time>2013-03-24T09:04:57Z</time>
      </trkpt>
      <trkpt lat="41.563141000" lon="1.832419000">
        <ele>325.50</ele>
        <time>2013-03-24T09:05:07Z</time>
      </trkpt>
      <trkpt lat="41.563324000" lon="1.832418000">
        <ele>326.10</ele>
        <time>2013-03-24T09:05:16Z</time>
      </trkpt>
      <trkpt lat="41.563512000" lon="1.832388000">
        <ele>327.00</ele>
        <time>2013-03-24T09:05:25Z</time>
      </trkpt>
      <trkpt lat="41.563698000" lon="1.832370000">
        <ele>328.70</ele>
        <time>2013-03-24T09:05:35Z</time>
      </trkpt>
      <trkpt lat="41.563872000" lon="1.832246000">
        <ele>329.90</ele>
        <time>2013-03-24T09:05:44Z</time>
      </trkpt>
      <trkpt lat="41.564007000" lon="1.832083000">
        <ele>331.50</ele>
        <time>2013-03-24T09:05:54Z</time>
      </trkpt>
      <trkpt lat="41.564148000" lon="1.831920000">
        <ele>333.50</ele>
        <time>2013-03-24T09:06:03Z</time>
      </trkpt>
      <trkpt lat="41.564293000" lon="1.831770000">
        <ele>335.40</ele>
        <time>2013-03-24T09:06:13Z</time>
      </trkpt>
      <trkpt lat="41.564422000" lon="1.831587000">
        <ele>337.20</ele>
        <time>2013-03-24T09:06:24Z</time>
      </trkpt>
      <trkpt lat="41.564267000" lon="1.831480000">
        <ele>336.60</ele>
        <time>2013-03-24T09:12:45Z</time>
      </trkpt>
      <trkpt lat="41.564118000" lon="1.831377000">
        <ele>334.80</ele>
        <time>2013-03-24T09:12:49Z</time>
      </trkpt>
      <trkpt lat="41.564158000" lon="1.831126000">
        <ele>336.50</ele>
        <time>2013-03-24T09:12:54Z</time>
      </trkpt>
      <trkpt lat="41.564207000" lon="1.830881000">
        <ele>337.10</ele>
        <time>2013-03-24T09:13:01Z</time>
      </trkpt>
      <trkpt lat="41.564251000" lon="1.830645000">
        <ele>338.00</ele>
        <time>2013-03-24T09:13:08Z</time>
      </trkpt>
      <trkpt lat="41.564296000" lon="1.830406000">
        <ele>338.80</ele>
        <time>2013-03-24T09:13:15Z</time>
      </trkpt>
      <trkpt lat="41.564337000" lon="1.830148000">
        <ele>339.70</ele>
        <time>2013-03-24T09:13:22Z</time>
      </trkpt>
      <trkpt lat="41.564383000" lon="1.829886000">
        <ele>340.50</ele>
        <time>2013-03-24T09:13:29Z</time>
      </trkpt>
      <trkpt lat="41.564431000" lon="1.829625000">
        <ele>341.30</ele>
        <time>2013-03-24T09:13:36Z</time>
      </trkpt>
      <trkpt lat="41.564470000" lon="1.829362000">
        <ele>341.90</ele>
        <time>2013-03-24T09:13:43Z</time>
      </trkpt>
      <trkpt lat="41.564518000" lon="1.829091000">
        <ele>342.70</ele>
        <time>2013-03-24T09:13:50Z</time>
      </trkpt>
      <trkpt lat="41.564555000" lon="1.828846000">
        <ele>342.60</ele>
        <time>2013-03-24T09:13:57Z</time>
      </trkpt>
      <trkpt lat="41.564595000" lon="1.828595000">
        <ele>343.20</ele>
        <time>2013-03-24T09:14:02Z</time>
      </trkpt>
      <trkpt lat="41.564628000" lon="1.828359000">
        <ele>343.40</ele>
        <time>2013-03-24T09:14:09Z</time>
      </trkpt>
      <trkpt lat="41.564670000" lon="1.828119000">
        <ele>343.40</ele>
        <time>2013-03-24T09:14:14Z</time>
      </trkpt>
      <trkpt lat="41.564722000" lon="1.827881000">
        <ele>343.60</ele>
        <time>2013-03-24T09:14:21Z</time>
      </trkpt>
      <trkpt lat="41.564753000" lon="1.827646000">
        <ele>343.80</ele>
        <time>2013-03-24T09:14:26Z</time>
      </trkpt>
      <trkpt lat="41.564794000" lon="1.827402000">
        <ele>344.10</ele>
        <time>2013-03-24T09:14:33Z</time>
      </trkpt>
      <trkpt lat="41.564833000" lon="1.827160000">
        <ele>344.30</ele>
        <time>2013-03-24T09:14:39Z</time>
      </trkpt>
      <trkpt lat="41.564867000" lon="1.826920000">
        <ele>344.50</ele>
        <time>2013-03-24T09:14:44Z</time>
      </trkpt>
      <trkpt lat="41.564906000" lon="1.826660000">
        <ele>344.60</ele>
        <time>2013-03-24T09:14:51Z</time>
      </trkpt>
      <trkpt lat="41.564946000" lon="1.826446000">
        <ele>344.80</ele>
        <time>2013-03-24T09:14:56Z</time>
      </trkpt>
      <trkpt lat="41.564980000" lon="1.826199000">
        <ele>344.70</ele>
        <time>2013-03-24T09:15:03Z</time>
      </trkpt>
      <trkpt lat="41.565028000" lon="1.825940000">
        <ele>344.20</ele>
        <time>2013-03-24T09:15:10Z</time>
      </trkpt>
      <trkpt lat="41.565067000" lon="1.825693000">
        <ele>343.70</ele>
        <time>2013-03-24T09:15:24Z</time>
      </trkpt>
      <trkpt lat="41.565115000" lon="1.825472000">
        <ele>342.80</ele>
        <time>2013-03-24T09:15:36Z</time>
      </trkpt>
      <trkpt lat="41.565270000" lon="1.825351000">
        <ele>343.20</ele>
        <time>2013-03-24T09:15:43Z</time>
      </trkpt>
      <trkpt lat="41.565340000" lon="1.825120000">
        <ele>343.00</ele>
        <time>2013-03-24T09:15:50Z</time>
      </trkpt>
      <trkpt lat="41.565498000" lon="1.825168000">
        <ele>343.10</ele>
        <time>2013-03-24T09:15:57Z</time>
      </trkpt>
      <trkpt lat="41.565519000" lon="1.825332000">
        <ele>344.90</ele>
        <time>2013-03-24T09:16:28Z</time>
      </trkpt>
      <trkpt lat="41.565494000" lon="1.825064000">
        <ele>343.50</ele>
        <time>2013-03-24T09:16:37Z</time>
      </trkpt>
      <trkpt lat="41.565642000" lon="1.824891000">
        <ele>344.20</ele>
        <time>2013-03-24T09:16:44Z</time>
      </trkpt>
      <trkpt lat="41.565796000" lon="1.824770000">
        <ele>345.20</ele>
        <time>2013-03-24T09:16:51Z</time>
      </trkpt>
      <trkpt lat="41.565962000" lon="1.824676000">
        <ele>345.40</ele>
        <time>2013-03-24T09:16:58Z</time>
      </trkpt>
      <trkpt lat="41.566150000" lon="1.824566000">
        <ele>346.80</ele>
        <time>2013-03-24T09:17:07Z</time>
      </trkpt>
      <trkpt lat="41.566316000" lon="1.824467000">
        <ele>348.10</ele>
        <time>2013-03-24T09:17:14Z</time>
      </trkpt>
      <trkpt lat="41.566496000" lon="1.824339000">
        <ele>349.30</ele>
        <time>2013-03-24T09:17:22Z</time>
      </trkpt>
      <trkpt lat="41.566668000" lon="1.824214000">
        <ele>350.70</ele>
        <time>2013-03-24T09:17:29Z</time>
      </trkpt>
      <trkpt lat="41.566825000" lon="1.824091000">
        <ele>351.60</ele>
        <time>2013-03-24T09:17:38Z</time>
      </trkpt>
      <trkpt lat="41.566987000" lon="1.823971000">
        <ele>353.40</ele>
        <time>2013-03-24T09:17:45Z</time>
      </trkpt>
      <trkpt lat="41.567161000" lon="1.823857000">
        <ele>354.90</ele>
        <time>2013-03-24T09:17:55Z</time>
      </trkpt>
      <trkpt lat="41.567338000" lon="1.823735000">
        <ele>356.70</ele>
        <time>2013-03-24T09:18:04Z</time>
      </trkpt>
      <trkpt lat="41.567500000" lon="1.823618000">
        <ele>358.20</ele>
        <time>2013-03-24T09:18:13Z</time>
      </trkpt>
      <trkpt lat="41.567662000" lon="1.823504000">
        <ele>360.00</ele>
        <time>2013-03-24T09:18:20Z</time>
      </trkpt>
      <trkpt lat="41.567838000" lon="1.823402000">
        <ele>361.90</ele>
        <time>2013-03-24T09:18:29Z</time>
      </trkpt>
      <trkpt lat="41.568028000" lon="1.823336000">
        <ele>363.50</ele>
        <time>2013-03-24T09:18:37Z</time>
      </trkpt>
      <trkpt lat="41.568202000" lon="1.823298000">
        <ele>365.30</ele>
        <time>2013-03-24T09:18:46Z</time>
      </trkpt>
      <trkpt lat="41.568383000" lon="1.823238000">
        <ele>366.90</ele>
        <time>2013-03-24T09:18:55Z</time>
      </trkpt>
      <trkpt lat="41.568570000" lon="1.823168000">
        <ele>368.60</ele>
        <time>2013-03-24T09:19:03Z</time>
      </trkpt>
      <trkpt lat="41.568751000" lon="1.823127000">
        <ele>370.30</ele>
        <time>2013-03-24T09:19:12Z</time>
      </trkpt>
      <trkpt lat="41.568930000" lon="1.823070000">
        <ele>372.40</ele>
        <time>2013-03-24T09:19:21Z</time>
      </trkpt>
      <trkpt lat="41.569122000" lon="1.823004000">
        <ele>374.50</ele>
        <time>2013-03-24T09:19:31Z</time>
      </trkpt>
      <trkpt lat="41.569199000" lon="1.823207000">
        <ele>375.10</ele>
        <time>2013-03-24T09:19:40Z</time>
      </trkpt>
      <trkpt lat="41.569245000" lon="1.823478000">
        <ele>375.70</ele>
        <time>2013-03-24T09:19:49Z</time>
      </trkpt>
      <trkpt lat="41.569271000" lon="1.823722000">
        <ele>376.50</ele>
        <time>2013-03-24T09:19:57Z</time>
      </trkpt>
      <trkpt lat="41.569296000" lon="1.823978000">
        <ele>377.10</ele>
        <time>2013-03-24T09:20:06Z</time>
      </trkpt>
      <trkpt lat="41.569328000" lon="1.824243000">
        <ele>377.60</ele>
        <time>2013-03-24T09:20:13Z</time>
      </trkpt>
      <trkpt lat="41.569341000" lon="1.824481000">
        <ele>378.00</ele>
        <time>2013-03-24T09:20:20Z</time>
      </trkpt>
      <trkpt lat="41.569352000" lon="1.824730000">
        <ele>378.60</ele>
        <time>2013-03-24T09:20:27Z</time>
      </trkpt>
      <trkpt lat="41.569378000" lon="1.824976000">
        <ele>378.80</ele>
        <time>2013-03-24T09:20:36Z</time>
      </trkpt>
      <trkpt lat="41.569437000" lon="1.825224000">
        <ele>379.30</ele>
        <time>2013-03-24T09:20:43Z</time>
      </trkpt>
      <trkpt lat="41.569440000" lon="1.825491000">
        <ele>379.30</ele>
        <time>2013-03-24T09:20:50Z</time>
      </trkpt>
      <trkpt lat="41.569435000" lon="1.825748000">
        <ele>379.80</ele>
        <time>2013-03-24T09:20:58Z</time>
      </trkpt>
      <trkpt lat="41.569408000" lon="1.825986000">
        <ele>380.20</ele>
        <time>2013-03-24T09:21:17Z</time>
      </trkpt>
      <trkpt lat="41.569482000" lon="1.825982000">
        <ele>380.70</ele>
        <time>2013-03-24T09:21:26Z</time>
      </trkpt>
      <trkpt lat="41.569573000" lon="1.825753000">
        <ele>382.40</ele>
        <time>2013-03-24T09:21:35Z</time>
      </trkpt>
      <trkpt lat="41.569638000" lon="1.825523000">
        <ele>384.20</ele>
        <time>2013-03-24T09:21:44Z</time>
      </trkpt>
      <trkpt lat="41.569624000" lon="1.825247000">
        <ele>384.60</ele>
        <time>2013-03-24T09:21:54Z</time>
      </trkpt>
      <trkpt lat="41.569612000" lon="1.824976000">
        <ele>384.50</ele>
        <time>2013-03-24T09:22:01Z</time>
      </trkpt>
      <trkpt lat="41.569597000" lon="1.824709000">
        <ele>383.90</ele>
        <time>2013-03-24T09:22:10Z</time>
      </trkpt>
      <trkpt lat="41.569585000" lon="1.824458000">
        <ele>382.80</ele>
        <time>2013-03-24T09:22:15Z</time>
      </trkpt>
      <trkpt lat="41.569562000" lon="1.824189000">
        <ele>382.00</ele>
        <time>2013-03-24T09:22:22Z</time>
      </trkpt>
      <trkpt lat="41.569564000" lon="1.823942000">
        <ele>382.20</ele>
        <time>2013-03-24T09:22:27Z</time>
      </trkpt>
      <trkpt lat="41.569545000" lon="1.823710000">
        <ele>382.20</ele>
        <time>2013-03-24T09:22:32Z</time>
      </trkpt>
      <trkpt lat="41.569544000" lon="1.823473000">
        <ele>381.60</ele>
        <time>2013-03-24T09:22:39Z</time>
      </trkpt>
      <trkpt lat="41.569584000" lon="1.823223000">
        <ele>381.60</ele>
        <time>2013-03-24T09:22:46Z</time>
      </trkpt>
      <trkpt lat="41.569672000" lon="1.823014000">
        <ele>382.40</ele>
        <time>2013-03-24T09:22:55Z</time>
      </trkpt>
      <trkpt lat="41.569746000" lon="1.822764000">
        <ele>382.90</ele>
        <time>2013-03-24T09:23:02Z</time>
      </trkpt>
      <trkpt lat="41.569818000" lon="1.822521000">
        <ele>383.20</ele>
        <time>2013-03-24T09:23:09Z</time>
      </trkpt>
      <trkpt lat="41.569899000" lon="1.822297000">
        <ele>382.60</ele>
        <time>2013-03-24T09:23:16Z</time>
      </trkpt>
      <trkpt lat="41.569969000" lon="1.822068000">
        <ele>382.50</ele>
        <time>2013-03-24T09:23:23Z</time>
      </trkpt>
      <trkpt lat="41.570044000" lon="1.821850000">
        <ele>382.60</ele>
        <time>2013-03-24T09:23:28Z</time>
      </trkpt>
      <trkpt lat="41.570106000" lon="1.821618000">
        <ele>382.50</ele>
        <time>2013-03-24T09:23:35Z</time>
      </trkpt>
      <trkpt lat="41.570205000" lon="1.821621000">
        <ele>383.80</ele>
        <time>2013-03-24T09:23:46Z</time>
      </trkpt>
      <trkpt lat="41.570273000" lon="1.821829000">
        <ele>384.80</ele>
        <time>2013-03-24T09:23:56Z</time>
      </trkpt>
      <trkpt lat="41.570338000" lon="1.821871000">
        <ele>385.40</ele>
        <time>2013-03-24T09:24:31Z</time>
      </trkpt>
      <trkpt lat="41.570251000" lon="1.821661000">
        <ele>383.80</ele>
        <time>2013-03-24T09:24:38Z</time>
      </trkpt>
      <trkpt lat="41.570173000" lon="1.821426000">
        <ele>382.80</ele>
        <time>2013-03-24T09:24:43Z</time>
      </trkpt>
      <trkpt lat="41.570142000" lon="1.821122000">
        <ele>381.90</ele>
        <time>2013-03-24T09:24:48Z</time>
      </trkpt>
      <trkpt lat="41.570126000" lon="1.820835000">
        <ele>382.00</ele>
        <time>2013-03-24T09:24:52Z</time>
      </trkpt>
      <trkpt lat="41.570082000" lon="1.820576000">
        <ele>381.60</ele>
        <time>2013-03-24T09:24:57Z</time>
      </trkpt>
      <trkpt lat="41.570148000" lon="1.820387000">
        <ele>382.30</ele>
        <time>2013-03-24T09:25:04Z</time>
      </trkpt>
      <trkpt lat="41.570276000" lon="1.820229000">
        <ele>383.60</ele>
        <time>2013-03-24T09:25:11Z</time>
      </trkpt>
      <trkpt lat="41.570296000" lon="1.819975000">
        <ele>383.50</ele>
        <time>2013-03-24T09:25:18Z</time>
      </trkpt>
      <trkpt lat="41.570319000" lon="1.819698000">
        <ele>383.30</ele>
        <time>2013-03-24T09:25:25Z</time>
      </trkpt>
      <trkpt lat="41.570348000" lon="1.819438000">
        <ele>382.60</ele>
        <time>2013-03-24T09:25:30Z</time>
      </trkpt>
      <trkpt lat="41.570381000" lon="1.819198000">
        <ele>382.30</ele>
        <time>2013-03-24T09:25:35Z</time>
      </trkpt>
      <trkpt lat="41.570399000" lon="1.818929000">
        <ele>382.50</ele>
        <time>2013-03-24T09:25:42Z</time>
      </trkpt>
      <trkpt lat="41.570405000" lon="1.818662000">
        <ele>383.30</ele>
        <time>2013-03-24T09:25:48Z</time>
      </trkpt>
      <trkpt lat="41.570431000" lon="1.818406000">
        <ele>384.00</ele>
        <time>2013-03-24T09:25:53Z</time>
      </trkpt>
      <trkpt lat="41.570441000" lon="1.818160000">
        <ele>384.70</ele>
        <time>2013-03-24T09:26:00Z</time>
      </trkpt>
      <trkpt lat="41.570451000" lon="1.817896000">
        <ele>385.50</ele>
        <time>2013-03-24T09:26:07Z</time>
      </trkpt>
      <trkpt lat="41.570473000" lon="1.817637000">
        <ele>386.00</ele>
        <time>2013-03-24T09:26:14Z</time>
      </trkpt>
      <trkpt lat="41.570493000" lon="1.817381000">
        <ele>386.40</ele>
        <time>2013-03-24T09:26:21Z</time>
      </trkpt>
      <trkpt lat="41.570566000" lon="1.817134000">
        <ele>386.30</ele>
        <time>2013-03-24T09:26:29Z</time>
      </trkpt>
      <trkpt lat="41.570714000" lon="1.816973000">
        <ele>385.60</ele>
        <time>2013-03-24T09:26:35Z</time>
      </trkpt>
      <trkpt lat="41.570810000" lon="1.816770000">
        <ele>386.90</ele>
        <time>2013-03-24T09:26:40Z</time>
      </trkpt>
      <trkpt lat="41.570919000" lon="1.816571000">
        <ele>389.20</ele>
        <time>2013-03-24T09:26:47Z</time>
      </trkpt>
      <trkpt lat="41.571020000" lon="1.816345000">
        <ele>391.30</ele>
        <time>2013-03-24T09:26:55Z</time>
      </trkpt>
      <trkpt lat="41.571096000" lon="1.816119000">
        <ele>391.30</ele>
        <time>2013-03-24T09:27:02Z</time>
      </trkpt>
      <trkpt lat="41.571191000" lon="1.815885000">
        <ele>392.10</ele>
        <time>2013-03-24T09:27:09Z</time>
      </trkpt>
      <trkpt lat="41.571228000" lon="1.815607000">
        <ele>392.40</ele>
        <time>2013-03-24T09:27:16Z</time>
      </trkpt>
      <trkpt lat="41.571216000" lon="1.815341000">
        <ele>392.50</ele>
        <time>2013-03-24T09:27:23Z</time>
      </trkpt>
      <trkpt lat="41.571189000" lon="1.815070000">
        <ele>392.80</ele>
        <time>2013-03-24T09:27:30Z</time>
      </trkpt>
      <trkpt lat="41.571217000" lon="1.814810000">
        <ele>393.10</ele>
        <time>2013-03-24T09:27:37Z</time>
      </trkpt>
      <trkpt lat="41.571328000" lon="1.814596000">
        <ele>394.20</ele>
        <time>2013-03-24T09:27:44Z</time>
      </trkpt>
      <trkpt lat="41.571393000" lon="1.814360000">
        <ele>395.50</ele>
        <time>2013-03-24T09:27:51Z</time>
      </trkpt>
      <trkpt lat="41.571477000" lon="1.814133000">
        <ele>396.50</ele>
        <time>2013-03-24T09:27:58Z</time>
      </trkpt>
      <trkpt lat="41.571566000" lon="1.813905000">
        <ele>397.30</ele>
        <time>2013-03-24T09:28:05Z</time>
      </trkpt>
      <trkpt lat="41.571653000" lon="1.813661000">
        <ele>398.20</ele>
        <time>2013-03-24T09:28:12Z</time>
      </trkpt>
      <trkpt lat="41.571720000" lon="1.813428000">
        <ele>399.10</ele>
        <time>2013-03-24T09:28:19Z</time>
      </trkpt>
      <trkpt lat="41.571878000" lon="1.813309000">
        <ele>400.40</ele>
        <time>2013-03-24T09:28:28Z</time>
      </trkpt>
      <trkpt lat="41.572038000" lon="1.813204000">
        <ele>401.60</ele>
        <time>2013-03-24T09:28:35Z</time>
      </trkpt>
      <trkpt lat="41.572194000" lon="1.813079000">
        <ele>403.10</ele>
        <time>2013-03-24T09:28:43Z</time>
      </trkpt>
      <trkpt lat="41.572377000" lon="1.812986000">
        <ele>405.00</ele>
        <time>2013-03-24T09:28:52Z</time>
      </trkpt>
      <trkpt lat="41.572554000" lon="1.812892000">
        <ele>406.30</ele>
        <time>2013-03-24T09:29:03Z</time>
      </trkpt>
      <trkpt lat="41.572737000" lon="1.812810000">
        <ele>407.60</ele>
        <time>2013-03-24T09:29:11Z</time>
      </trkpt>
      <trkpt lat="41.572917000" lon="1.812744000">
        <ele>408.80</ele>
        <time>2013-03-24T09:29:20Z</time>
      </trkpt>
      <trkpt lat="41.573088000" lon="1.812661000">
        <ele>410.00</ele>
        <time>2013-03-24T09:29:29Z</time>
      </trkpt>
      <trkpt lat="41.573257000" lon="1.812574000">
        <ele>411.40</ele>
        <time>2013-03-24T09:29:39Z</time>
      </trkpt>
      <trkpt lat="41.573437000" lon="1.812486000">
        <ele>412.80</ele>
        <time>2013-03-24T09:29:48Z</time>
      </trkpt>
      <trkpt lat="41.573605000" lon="1.812410000">
        <ele>413.90</ele>
        <time>2013-03-24T09:29:57Z</time>
      </trkpt>
      <trkpt lat="41.573679000" lon="1.812191000">
        <ele>414.60</ele>
        <time>2013-03-24T09:30:05Z</time>
      </trkpt>
      <trkpt lat="41.573700000" lon="1.811944000">
        <ele>414.80</ele>
        <time>2013-03-24T09:30:14Z</time>
      </trkpt>
      <trkpt lat="41.573743000" lon="1.811692000">
        <ele>414.40</ele>
        <time>2013-03-24T09:30:24Z</time>
      </trkpt>
      <trkpt lat="41.573783000" lon="1.811445000">
        <ele>414.20</ele>
        <time>2013-03-24T09:30:33Z</time>
      </trkpt>
      <trkpt lat="41.573824000" lon="1.811197000">
        <ele>414.10</ele>
        <time>2013-03-24T09:30:42Z</time>
      </trkpt>
      <trkpt lat="41.573871000" lon="1.810953000">
        <ele>413.90</ele>
        <time>2013-03-24T09:30:52Z</time>
      </trkpt>
      <trkpt lat="41.573926000" lon="1.810711000">
        <ele>414.00</ele>
        <time>2013-03-24T09:30:59Z</time>
      </trkpt>
      <trkpt lat="41.574004000" lon="1.810465000">
        <ele>414.40</ele>
        <time>2013-03-24T09:31:08Z</time>
      </trkpt>
      <trkpt lat="41.574083000" lon="1.810216000">
        <ele>414.70</ele>
        <time>2013-03-24T09:31:15Z</time>
      </trkpt>
      <trkpt lat="41.574166000" lon="1.809985000">
        <ele>414.80</ele>
        <time>2013-03-24T09:31:22Z</time>
      </trkpt>
      <trkpt lat="41.574250000" lon="1.809749000">
        <ele>414.70</ele>
        <time>2013-03-24T09:31:29Z</time>
      </trkpt>
      <trkpt lat="41.574339000" lon="1.809536000">
        <ele>414.10</ele>
        <time>2013-03-24T09:31:36Z</time>
      </trkpt>
      <trkpt lat="41.574440000" lon="1.809303000">
        <ele>412.50</ele>
        <time>2013-03-24T09:31:41Z</time>
      </trkpt>
      <trkpt lat="41.574613000" lon="1.809119000">
        <ele>411.00</ele>
        <time>2013-03-24T09:31:45Z</time>
      </trkpt>
      <trkpt lat="41.574690000" lon="1.808818000">
        <ele>410.70</ele>
        <time>2013-03-24T09:31:48Z</time>
      </trkpt>
      <trkpt lat="41.574697000" lon="1.808569000">
        <ele>411.70</ele>
        <time>2013-03-24T09:31:53Z</time>
      </trkpt>
      <trkpt lat="41.574679000" lon="1.808306000">
        <ele>413.00</ele>
        <time>2013-03-24T09:31:57Z</time>
      </trkpt>
      <trkpt lat="41.574662000" lon="1.808032000">
        <ele>413.90</ele>
        <time>2013-03-24T09:32:04Z</time>
      </trkpt>
      <trkpt lat="41.574640000" lon="1.807779000">
        <ele>414.80</ele>
        <time>2013-03-24T09:32:09Z</time>
      </trkpt>
      <trkpt lat="41.574605000" lon="1.807536000">
        <ele>415.70</ele>
        <time>2013-03-24T09:32:16Z</time>
      </trkpt>
      <trkpt lat="41.574594000" lon="1.807256000">
        <ele>415.30</ele>
        <time>2013-03-24T09:32:21Z</time>
      </trkpt>
      <trkpt lat="41.574641000" lon="1.806994000">
        <ele>415.00</ele>
        <time>2013-03-24T09:32:28Z</time>
      </trkpt>
      <trkpt lat="41.574700000" lon="1.806728000">
        <ele>414.70</ele>
        <time>2013-03-24T09:32:33Z</time>
      </trkpt>
      <trkpt lat="41.574760000" lon="1.806479000">
        <ele>414.60</ele>
        <time>2013-03-24T09:32:40Z</time>
      </trkpt>
      <trkpt lat="41.574853000" lon="1.806224000">
        <ele>414.70</ele>
        <time>2013-03-24T09:32:46Z</time>
      </trkpt>
      <trkpt lat="41.575018000" lon="1.806093000">
        <ele>415.60</ele>
        <time>2013-03-24T09:32:53Z</time>
      </trkpt>
      <trkpt lat="41.575206000" lon="1.806025000">
        <ele>416.70</ele>
        <time>2013-03-24T09:32:59Z</time>
      </trkpt>
      <trkpt lat="41.575390000" lon="1.805985000">
        <ele>417.90</ele>
        <time>2013-03-24T09:33:06Z</time>
      </trkpt>
      <trkpt lat="41.575575000" lon="1.805965000">
        <ele>419.10</ele>
        <time>2013-03-24T09:33:13Z</time>
      </trkpt>
      <trkpt lat="41.575758000" lon="1.805927000">
        <ele>420.10</ele>
        <time>2013-03-24T09:33:20Z</time>
      </trkpt>
      <trkpt lat="41.575945000" lon="1.805899000">
        <ele>421.50</ele>
        <time>2013-03-24T09:33:27Z</time>
      </trkpt>
      <trkpt lat="41.576136000" lon="1.805858000">
        <ele>422.50</ele>
        <time>2013-03-24T09:33:34Z</time>
      </trkpt>
      <trkpt lat="41.576324000" lon="1.805800000">
        <ele>424.00</ele>
        <time>2013-03-24T09:33:41Z</time>
      </trkpt>
      <trkpt lat="41.576498000" lon="1.805728000">
        <ele>425.50</ele>
        <time>2013-03-24T09:33:48Z</time>
      </trkpt>
      <trkpt lat="41.576674000" lon="1.805662000">
        <ele>426.30</ele>
        <time>2013-03-24T09:33:55Z</time>
      </trkpt>
      <trkpt lat="41.576855000" lon="1.805614000">
        <ele>427.60</ele>
        <time>2013-03-24T09:34:02Z</time>
      </trkpt>
      <trkpt lat="41.577029000" lon="1.805564000">
        <ele>428.40</ele>
        <time>2013-03-24T09:34:09Z</time>
      </trkpt>
      <trkpt lat="41.577202000" lon="1.805513000">
        <ele>429.00</ele>
        <time>2013-03-24T09:34:16Z</time>
      </trkpt>
      <trkpt lat="41.577405000" lon="1.805493000">
        <ele>430.70</ele>
        <time>2013-03-24T09:34:23Z</time>
      </trkpt>
      <trkpt lat="41.577599000" lon="1.805485000">
        <ele>431.50</ele>
        <time>2013-03-24T09:34:30Z</time>
      </trkpt>
      <trkpt lat="41.577798000" lon="1.805489000">
        <ele>432.70</ele>
        <time>2013-03-24T09:34:39Z</time>
      </trkpt>
      <trkpt lat="41.577985000" lon="1.805516000">
        <ele>433.60</ele>
        <time>2013-03-24T09:34:46Z</time>
      </trkpt>
      <trkpt lat="41.578168000" lon="1.805537000">
        <ele>434.50</ele>
        <time>2013-03-24T09:34:53Z</time>
      </trkpt>
      <trkpt lat="41.578358000" lon="1.805582000">
        <ele>435.30</ele>
        <time>2013-03-24T09:35:00Z</time>
      </trkpt>
      <trkpt lat="41.578554000" lon="1.805617000">
        <ele>436.60</ele>
        <time>2013-03-24T09:35:07Z</time>
      </trkpt>
      <trkpt lat="41.578758000" lon="1.805659000">
        <ele>437.80</ele>
        <time>2013-03-24T09:35:15Z</time>
      </trkpt>
      <trkpt lat="41.578961000" lon="1.805700000">
        <ele>439.20</ele>
        <time>2013-03-24T09:35:24Z</time>
      </trkpt>
      <trkpt lat="41.579156000" lon="1.805733000">
        <ele>440.20</ele>
        <time>2013-03-24T09:35:31Z</time>
      </trkpt>
      <trkpt lat="41.579347000" lon="1.805758000">
        <ele>441.40</ele>
        <time>2013-03-24T09:35:40Z</time>
      </trkpt>
      <trkpt lat="41.579542000" lon="1.805776000">
        <ele>443.00</ele>
        <time>2013-03-24T09:35:47Z</time>
      </trkpt>
      <trkpt lat="41.579732000" lon="1.805780000">
        <ele>444.30</ele>
        <time>2013-03-24T09:35:55Z</time>
      </trkpt>
      <trkpt lat="41.579926000" lon="1.805799000">
        <ele>445.70</ele>
        <time>2013-03-24T09:36:04Z</time>
      </trkpt>
      <trkpt lat="41.580120000" lon="1.805807000">
        <ele>447.10</ele>
        <time>2013-03-24T09:36:11Z</time>
      </trkpt>
      <trkpt lat="41.580307000" lon="1.805827000">
        <ele>448.50</ele>
        <time>2013-03-24T09:36:20Z</time>
      </trkpt>
      <trkpt lat="41.580488000" lon="1.805812000">
        <ele>450.30</ele>
        <time>2013-03-24T09:36:27Z</time>
      </trkpt>
      <trkpt lat="41.580651000" lon="1.805763000">
        <ele>451.70</ele>
        <time>2013-03-24T09:36:36Z</time>
      </trkpt>
      <trkpt lat="41.580818000" lon="1.805701000">
        <ele>453.80</ele>
        <time>2013-03-24T09:36:44Z</time>
      </trkpt>
      <trkpt lat="41.580979000" lon="1.805764000">
        <ele>454.80</ele>
        <time>2013-03-24T09:36:53Z</time>
      </trkpt>
      <trkpt lat="41.581084000" lon="1.805977000">
        <ele>455.60</ele>
        <time>2013-03-24T09:37:00Z</time>
      </trkpt>
      <trkpt lat="41.581223000" lon="1.806165000">
        <ele>456.70</ele>
        <time>2013-03-24T09:37:09Z</time>
      </trkpt>
      <trkpt lat="41.581368000" lon="1.806319000">
        <ele>457.50</ele>
        <time>2013-03-24T09:37:17Z</time>
      </trkpt>
      <trkpt lat="41.581529000" lon="1.806480000">
        <ele>458.80</ele>
        <time>2013-03-24T09:37:24Z</time>
      </trkpt>
      <trkpt lat="41.581700000" lon="1.806639000">
        <ele>460.30</ele>
        <time>2013-03-24T09:37:33Z</time>
      </trkpt>
      <trkpt lat="41.581846000" lon="1.806782000">
        <ele>461.20</ele>
        <time>2013-03-24T09:37:40Z</time>
      </trkpt>
      <trkpt lat="41.581996000" lon="1.806947000">
        <ele>462.00</ele>
        <time>2013-03-24T09:37:47Z</time>
      </trkpt>
      <trkpt lat="41.582156000" lon="1.807100000">
        <ele>462.40</ele>
        <time>2013-03-24T09:37:56Z</time>
      </trkpt>
      <trkpt lat="41.582301000" lon="1.807250000">
        <ele>463.00</ele>
        <time>2013-03-24T09:38:03Z</time>
      </trkpt>
      <trkpt lat="41.582446000" lon="1.807427000">
        <ele>464.30</ele>
        <time>2013-03-24T09:38:11Z</time>
      </trkpt>
      <trkpt lat="41.582536000" lon="1.807642000">
        <ele>465.60</ele>
        <time>2013-03-24T09:38:18Z</time>
      </trkpt>
      <trkpt lat="41.582613000" lon="1.807864000">
        <ele>467.30</ele>
        <time>2013-03-24T09:38:27Z</time>
      </trkpt>
      <trkpt lat="41.582703000" lon="1.808100000">
        <ele>468.90</ele>
        <time>2013-03-24T09:38:36Z</time>
      </trkpt>
      <trkpt lat="41.582798000" lon="1.808342000">
        <ele>470.90</ele>
        <time>2013-03-24T09:38:44Z</time>
      </trkpt>
      <trkpt lat="41.582935000" lon="1.808469000">
        <ele>472.80</ele>
        <time>2013-03-24T09:38:53Z</time>
      </trkpt>
      <trkpt lat="41.583081000" lon="1.808322000">
        <ele>473.80</ele>
        <time>2013-03-24T09:39:02Z</time>
      </trkpt>
      <trkpt lat="41.583193000" lon="1.808116000">
        <ele>474.00</ele>
        <time>2013-03-24T09:39:12Z</time>
      </trkpt>
      <trkpt lat="41.583259000" lon="1.807880000">
        <ele>473.40</ele>
        <time>2013-03-24T09:39:19Z</time>
      </trkpt>
      <trkpt lat="41.583325000" lon="1.807632000">
        <ele>473.50</ele>
        <time>2013-03-24T09:39:26Z</time>
      </trkpt>
      <trkpt lat="41.583398000" lon="1.807389000">
        <ele>473.70</ele>
        <time>2013-03-24T09:39:33Z</time>
      </trkpt>
      <trkpt lat="41.583465000" lon="1.807153000">
        <ele>474.40</ele>
        <time>2013-03-24T09:39:42Z</time>
      </trkpt>
      <trkpt lat="41.583528000" lon="1.806927000">
        <ele>475.30</ele>
        <time>2013-03-24T09:39:54Z</time>
      </trkpt>
      <trkpt lat="41.583581000" lon="1.806692000">
        <ele>476.40</ele>
        <time>2013-03-24T09:40:27Z</time>
      </trkpt>
      <trkpt lat="41.583651000" lon="1.806442000">
        <ele>478.30</ele>
        <time>2013-03-24T09:40:36Z</time>
      </trkpt>
      <trkpt lat="41.583690000" lon="1.806187000">
        <ele>480.60</ele>
        <time>2013-03-24T09:40:43Z</time>
      </trkpt>
      <trkpt lat="41.583793000" lon="1.805970000">
        <ele>483.10</ele>
        <time>2013-03-24T09:40:52Z</time>
      </trkpt>
      <trkpt lat="41.583966000" lon="1.805921000">
        <ele>485.50</ele>
        <time>2013-03-24T09:41:02Z</time>
      </trkpt>
      <trkpt lat="41.584120000" lon="1.805795000">
        <ele>487.60</ele>
        <time>2013-03-24T09:41:11Z</time>
      </trkpt>
      <trkpt lat="41.584300000" lon="1.805731000">
        <ele>489.40</ele>
        <time>2013-03-24T09:41:19Z</time>
      </trkpt>
      <trkpt lat="41.584482000" lon="1.805655000">
        <ele>490.70</ele>
        <time>2013-03-24T09:41:28Z</time>
      </trkpt>
      <trkpt lat="41.584709000" lon="1.805593000">
        <ele>492.00</ele>
        <time>2013-03-24T09:41:58Z</time>
      </trkpt>
      <trkpt lat="41.584909000" lon="1.805532000">
        <ele>493.90</ele>
        <time>2013-03-24T09:42:08Z</time>
      </trkpt>
      <trkpt lat="41.585033000" lon="1.805287000">
        <ele>494.50</ele>
        <time>2013-03-24T09:42:17Z</time>
      </trkpt>
      <trkpt lat="41.584910000" lon="1.805102000">
        <ele>495.20</ele>
        <time>2013-03-24T09:42:24Z</time>
      </trkpt>
      <trkpt lat="41.584819000" lon="1.804868000">
        <ele>496.10</ele>
        <time>2013-03-24T09:42:33Z</time>
      </trkpt>
      <trkpt lat="41.584863000" lon="1.804630000">
        <ele>495.40</ele>
        <time>2013-03-24T09:42:40Z</time>
      </trkpt>
      <trkpt lat="41.584949000" lon="1.804376000">
        <ele>494.90</ele>
        <time>2013-03-24T09:42:48Z</time>
      </trkpt>
      <trkpt lat="41.585048000" lon="1.804077000">
        <ele>495.70</ele>
        <time>2013-03-24T09:42:57Z</time>
      </trkpt>
      <trkpt lat="41.585211000" lon="1.803748000">
        <ele>495.50</ele>
        <time>2013-03-24T09:43:04Z</time>
      </trkpt>
      <trkpt lat="41.585334000" lon="1.803428000">
        <ele>494.20</ele>
        <time>2013-03-24T09:43:11Z</time>
      </trkpt>
      <trkpt lat="41.585419000" lon="1.803165000">
        <ele>494.00</ele>
        <time>2013-03-24T09:43:16Z</time>
      </trkpt>
      <trkpt lat="41.585455000" lon="1.802880000">
        <ele>494.90</ele>
        <time>2013-03-24T09:43:23Z</time>
      </trkpt>
      <trkpt lat="41.585515000" lon="1.802532000">
        <ele>496.60</ele>
        <time>2013-03-24T09:43:30Z</time>
      </trkpt>
      <trkpt lat="41.585597000" lon="1.802235000">
        <ele>495.80</ele>
        <time>2013-03-24T09:43:37Z</time>
      </trkpt>
      <trkpt lat="41.585717000" lon="1.802084000">
        <ele>495.00</ele>
        <time>2013-03-24T09:43:44Z</time>
      </trkpt>
      <trkpt lat="41.585913000" lon="1.801940000">
        <ele>494.60</ele>
        <time>2013-03-24T09:43:49Z</time>
      </trkpt>
      <trkpt lat="41.585989000" lon="1.801707000">
        <ele>494.40</ele>
        <time>2013-03-24T09:43:54Z</time>
      </trkpt>
      <trkpt lat="41.585986000" lon="1.801462000">
        <ele>494.70</ele>
        <time>2013-03-24T09:44:00Z</time>
      </trkpt>
      <trkpt lat="41.585909000" lon="1.801240000">
        <ele>495.40</ele>
        <time>2013-03-24T09:44:05Z</time>
      </trkpt>
      <trkpt lat="41.585767000" lon="1.801075000">
        <ele>496.80</ele>
        <time>2013-03-24T09:44:12Z</time>
      </trkpt>
      <trkpt lat="41.585654000" lon="1.800869000">
        <ele>498.10</ele>
        <time>2013-03-24T09:44:21Z</time>
      </trkpt>
      <trkpt lat="41.585679000" lon="1.800636000">
        <ele>496.20</ele>
        <time>2013-03-24T09:44:26Z</time>
      </trkpt>
      <trkpt lat="41.585814000" lon="1.800469000">
        <ele>494.20</ele>
        <time>2013-03-24T09:44:31Z</time>
      </trkpt>
      <trkpt lat="41.585991000" lon="1.800392000">
        <ele>493.20</ele>
        <time>2013-03-24T09:44:36Z</time>
      </trkpt>
      <trkpt lat="41.586165000" lon="1.800285000">
        <ele>493.10</ele>
        <time>2013-03-24T09:44:40Z</time>
      </trkpt>
      <trkpt lat="41.586331000" lon="1.800109000">
        <ele>492.90</ele>
        <time>2013-03-24T09:44:45Z</time>
      </trkpt>
      <trkpt lat="41.586462000" lon="1.799847000">
        <ele>489.20</ele>
        <time>2013-03-24T09:44:48Z</time>
      </trkpt>
      <trkpt lat="41.586582000" lon="1.799595000">
        <ele>491.20</ele>
        <time>2013-03-24T09:44:52Z</time>
      </trkpt>
      <trkpt lat="41.586753000" lon="1.799486000">
        <ele>492.40</ele>
        <time>2013-03-24T09:44:57Z</time>
      </trkpt>
      <trkpt lat="41.586964000" lon="1.799445000">
        <ele>493.50</ele>
        <time>2013-03-24T09:45:04Z</time>
      </trkpt>
      <trkpt lat="41.587181000" lon="1.799442000">
        <ele>492.40</ele>
        <time>2013-03-24T09:45:09Z</time>
      </trkpt>
      <trkpt lat="41.587370000" lon="1.799381000">
        <ele>492.20</ele>
        <time>2013-03-24T09:45:13Z</time>
      </trkpt>
      <trkpt lat="41.587537000" lon="1.799243000">
        <ele>493.20</ele>
        <time>2013-03-24T09:45:20Z</time>
      </trkpt>
      <trkpt lat="41.587696000" lon="1.799065000">
        <ele>494.50</ele>
        <time>2013-03-24T09:45:27Z</time>
      </trkpt>
      <trkpt lat="41.587751000" lon="1.798791000">
        <ele>493.90</ele>
        <time>2013-03-24T09:45:32Z</time>
      </trkpt>
      <trkpt lat="41.587836000" lon="1.798515000">
        <ele>496.70</ele>
        <time>2013-03-24T09:45:39Z</time>
      </trkpt>
      <trkpt lat="41.587905000" lon="1.798264000">
        <ele>500.90</ele>
        <time>2013-03-24T09:45:48Z</time>
      </trkpt>
      <trkpt lat="41.587900000" lon="1.798025000">
        <ele>504.20</ele>
        <time>2013-03-24T09:45:55Z</time>
      </trkpt>
      <trkpt lat="41.587873000" lon="1.797796000">
        <ele>507.00</ele>
        <time>2013-03-24T09:46:03Z</time>
      </trkpt>
      <trkpt lat="41.587902000" lon="1.797536000">
        <ele>509.70</ele>
        <time>2013-03-24T09:46:12Z</time>
      </trkpt>
      <trkpt lat="41.587882000" lon="1.797283000">
        <ele>511.30</ele>
        <time>2013-03-24T09:46:21Z</time>
      </trkpt>
      <trkpt lat="41.587887000" lon="1.797026000">
        <ele>512.50</ele>
        <time>2013-03-24T09:46:28Z</time>
      </trkpt>
      <trkpt lat="41.587909000" lon="1.796746000">
        <ele>512.10</ele>
        <time>2013-03-24T09:46:36Z</time>
      </trkpt>
      <trkpt lat="41.587964000" lon="1.796487000">
        <ele>513.30</ele>
        <time>2013-03-24T09:46:43Z</time>
      </trkpt>
      <trkpt lat="41.588138000" lon="1.796348000">
        <ele>516.70</ele>
        <time>2013-03-24T09:46:52Z</time>
      </trkpt>
      <trkpt lat="41.588262000" lon="1.796144000">
        <ele>519.50</ele>
        <time>2013-03-24T09:47:01Z</time>
      </trkpt>
      <trkpt lat="41.588293000" lon="1.795901000">
        <ele>522.90</ele>
        <time>2013-03-24T09:47:10Z</time>
      </trkpt>
      <trkpt lat="41.588377000" lon="1.795664000">
        <ele>523.30</ele>
        <time>2013-03-24T09:47:18Z</time>
      </trkpt>
      <trkpt lat="41.588487000" lon="1.795463000">
        <ele>524.30</ele>
        <time>2013-03-24T09:47:25Z</time>
      </trkpt>
      <trkpt lat="41.588578000" lon="1.795246000">
        <ele>524.70</ele>
        <time>2013-03-24T09:47:36Z</time>
      </trkpt>
      <trkpt lat="41.588675000" lon="1.795014000">
        <ele>524.20</ele>
        <time>2013-03-24T09:47:46Z</time>
      </trkpt>
      <trkpt lat="41.588753000" lon="1.794803000">
        <ele>523.50</ele>
        <time>2013-03-24T09:47:53Z</time>
      </trkpt>
      <trkpt lat="41.588841000" lon="1.794576000">
        <ele>523.60</ele>
        <time>2013-03-24T09:48:00Z</time>
      </trkpt>
      <trkpt lat="41.588927000" lon="1.794343000">
        <ele>523.30</ele>
        <time>2013-03-24T09:48:07Z</time>
      </trkpt>
      <trkpt lat="41.589072000" lon="1.794181000">
        <ele>520.40</ele>
        <time>2013-03-24T09:48:16Z</time>
      </trkpt>
      <trkpt lat="41.589031000" lon="1.793935000">
        <ele>516.90</ele>
        <time>2013-03-24T09:48:23Z</time>
      </trkpt>
      <trkpt lat="41.588982000" lon="1.793660000">
        <ele>516.10</ele>
        <time>2013-03-24T09:48:28Z</time>
      </trkpt>
      <trkpt lat="41.588869000" lon="1.793475000">
        <ele>516.10</ele>
        <time>2013-03-24T09:48:33Z</time>
      </trkpt>
      <trkpt lat="41.588683000" lon="1.793466000">
        <ele>515.30</ele>
        <time>2013-03-24T09:48:38Z</time>
      </trkpt>
      <trkpt lat="41.588487000" lon="1.793459000">
        <ele>514.90</ele>
        <time>2013-03-24T09:48:47Z</time>
      </trkpt>
      <trkpt lat="41.588306000" lon="1.793442000">
        <ele>513.50</ele>
        <time>2013-03-24T09:48:54Z</time>
      </trkpt>
      <trkpt lat="41.588109000" lon="1.793433000">
        <ele>511.70</ele>
        <time>2013-03-24T09:48:59Z</time>
      </trkpt>
      <trkpt lat="41.587901000" lon="1.793406000">
        <ele>509.80</ele>
        <time>2013-03-24T09:49:06Z</time>
      </trkpt>
      <trkpt lat="41.587716000" lon="1.793394000">
        <ele>508.50</ele>
        <time>2013-03-24T09:49:10Z</time>
      </trkpt>
      <trkpt lat="41.587510000" lon="1.793381000">
        <ele>507.10</ele>
        <time>2013-03-24T09:49:15Z</time>
      </trkpt>
      <trkpt lat="41.587347000" lon="1.793283000">
        <ele>506.10</ele>
        <time>2013-03-24T09:49:20Z</time>
      </trkpt>
      <trkpt lat="41.587379000" lon="1.793038000">
        <ele>506.70</ele>
        <time>2013-03-24T09:49:27Z</time>
      </trkpt>
      <trkpt lat="41.587418000" lon="1.792787000">
        <ele>506.80</ele>
        <time>2013-03-24T09:49:34Z</time>
      </trkpt>
      <trkpt lat="41.587453000" lon="1.792544000">
        <ele>506.50</ele>
        <time>2013-03-24T09:49:43Z</time>
      </trkpt>
      <trkpt lat="41.587479000" lon="1.792311000">
        <ele>506.20</ele>
        <time>2013-03-24T09:49:50Z</time>
      </trkpt>
      <trkpt lat="41.587516000" lon="1.792057000">
        <ele>505.50</ele>
        <time>2013-03-24T09:49:57Z</time>
      </trkpt>
      <trkpt lat="41.587552000" lon="1.791811000">
        <ele>504.10</ele>
        <time>2013-03-24T09:50:02Z</time>
      </trkpt>
      <trkpt lat="41.587575000" lon="1.791548000">
        <ele>504.40</ele>
        <time>2013-03-24T09:50:07Z</time>
      </trkpt>
      <trkpt lat="41.587593000" lon="1.791303000">
        <ele>504.30</ele>
        <time>2013-03-24T09:50:14Z</time>
      </trkpt>
      <trkpt lat="41.587629000" lon="1.791016000">
        <ele>501.40</ele>
        <time>2013-03-24T09:50:18Z</time>
      </trkpt>
      <trkpt lat="41.587679000" lon="1.790743000">
        <ele>501.00</ele>
        <time>2013-03-24T09:50:23Z</time>
      </trkpt>
      <trkpt lat="41.587860000" lon="1.790553000">
        <ele>498.50</ele>
        <time>2013-03-24T09:50:26Z</time>
      </trkpt>
      <trkpt lat="41.588069000" lon="1.790511000">
        <ele>496.40</ele>
        <time>2013-03-24T09:50:30Z</time>
      </trkpt>
      <trkpt lat="41.588281000" lon="1.790413000">
        <ele>492.90</ele>
        <time>2013-03-24T09:50:33Z</time>
      </trkpt>
      <trkpt lat="41.588437000" lon="1.790120000">
        <ele>488.80</ele>
        <time>2013-03-24T09:50:35Z</time>
      </trkpt>
      <trkpt lat="41.588478000" lon="1.789874000">
        <ele>487.20</ele>
        <time>2013-03-24T09:50:37Z</time>
      </trkpt>
      <trkpt lat="41.588479000" lon="1.789546000">
        <ele>488.90</ele>
        <time>2013-03-24T09:50:40Z</time>
      </trkpt>
      <trkpt lat="41.588597000" lon="1.789352000">
        <ele>490.20</ele>
        <time>2013-03-24T09:50:44Z</time>
      </trkpt>
      <trkpt lat="41.588773000" lon="1.789227000">
        <ele>491.70</ele>
        <time>2013-03-24T09:50:47Z</time>
      </trkpt>
      <trkpt lat="41.588935000" lon="1.789114000">
        <ele>493.00</ele>
        <time>2013-03-24T09:50:53Z</time>
      </trkpt>
      <trkpt lat="41.589087000" lon="1.788948000">
        <ele>494.30</ele>
        <time>2013-03-24T09:50:58Z</time>
      </trkpt>
      <trkpt lat="41.589201000" lon="1.788721000">
        <ele>495.10</ele>
        <time>2013-03-24T09:51:05Z</time>
      </trkpt>
      <trkpt lat="41.589298000" lon="1.788507000">
        <ele>495.90</ele>
        <time>2013-03-24T09:51:10Z</time>
      </trkpt>
      <trkpt lat="41.589431000" lon="1.788300000">
        <ele>497.20</ele>
        <time>2013-03-24T09:51:17Z</time>
      </trkpt>
      <trkpt lat="41.589544000" lon="1.788095000">
        <ele>498.10</ele>
        <time>2013-03-24T09:51:24Z</time>
      </trkpt>
      <trkpt lat="41.589625000" lon="1.787877000">
        <ele>499.10</ele>
        <time>2013-03-24T09:51:31Z</time>
      </trkpt>
      <trkpt lat="41.589559000" lon="1.787664000">
        <ele>500.10</ele>
        <time>2013-03-24T09:51:40Z</time>
      </trkpt>
      <trkpt lat="41.589405000" lon="1.787788000">
        <ele>500.20</ele>
        <time>2013-03-24T09:51:48Z</time>
      </trkpt>
      <trkpt lat="41.589271000" lon="1.787997000">
        <ele>501.00</ele>
        <time>2013-03-24T09:51:55Z</time>
      </trkpt>
      <trkpt lat="41.589125000" lon="1.788189000">
        <ele>502.20</ele>
        <time>2013-03-24T09:52:04Z</time>
      </trkpt>
      <trkpt lat="41.588954000" lon="1.788317000">
        <ele>503.00</ele>
        <time>2013-03-24T09:52:11Z</time>
      </trkpt>
      <trkpt lat="41.588763000" lon="1.788422000">
        <ele>504.10</ele>
        <time>2013-03-24T09:52:20Z</time>
      </trkpt>
      <trkpt lat="41.588563000" lon="1.788450000">
        <ele>506.50</ele>
        <time>2013-03-24T09:52:28Z</time>
      </trkpt>
      <trkpt lat="41.588513000" lon="1.788308000">
        <ele>508.30</ele>
        <time>2013-03-24T09:52:39Z</time>
      </trkpt>
      <trkpt lat="41.588692000" lon="1.788203000">
        <ele>510.30</ele>
        <time>2013-03-24T09:52:49Z</time>
      </trkpt>
      <trkpt lat="41.588841000" lon="1.788077000">
        <ele>512.90</ele>
        <time>2013-03-24T09:52:58Z</time>
      </trkpt>
      <trkpt lat="41.588980000" lon="1.787891000">
        <ele>515.10</ele>
        <time>2013-03-24T09:53:08Z</time>
      </trkpt>
      <trkpt lat="41.589051000" lon="1.787642000">
        <ele>517.80</ele>
        <time>2013-03-24T09:53:19Z</time>
      </trkpt>
      <trkpt lat="41.589122000" lon="1.787416000">
        <ele>520.50</ele>
        <time>2013-03-24T09:53:29Z</time>
      </trkpt>
      <trkpt lat="41.589168000" lon="1.787156000">
        <ele>523.30</ele>
        <time>2013-03-24T09:53:40Z</time>
      </trkpt>
      <trkpt lat="41.589168000" lon="1.786888000">
        <ele>525.50</ele>
        <time>2013-03-24T09:53:50Z</time>
      </trkpt>
      <trkpt lat="41.589145000" lon="1.786592000">
        <ele>527.40</ele>
        <time>2013-03-24T09:54:01Z</time>
      </trkpt>
      <trkpt lat="41.589030000" lon="1.786367000">
        <ele>527.90</ele>
        <time>2013-03-24T09:54:11Z</time>
      </trkpt>
      <trkpt lat="41.589037000" lon="1.786109000">
        <ele>527.60</ele>
        <time>2013-03-24T09:54:22Z</time>
      </trkpt>
      <trkpt lat="41.589087000" lon="1.785857000">
        <ele>528.10</ele>
        <time>2013-03-24T09:54:30Z</time>
      </trkpt>
      <trkpt lat="41.589155000" lon="1.785615000">
        <ele>528.90</ele>
        <time>2013-03-24T09:54:37Z</time>
      </trkpt>
      <trkpt lat="41.589225000" lon="1.785397000">
        <ele>529.60</ele>
        <time>2013-03-24T09:54:46Z</time>
      </trkpt>
      <trkpt lat="41.589254000" lon="1.785156000">
        <ele>531.10</ele>
        <time>2013-03-24T09:54:55Z</time>
      </trkpt>
      <trkpt lat="41.589215000" lon="1.785063000">
        <ele>532.10</ele>
        <time>2013-03-24T09:56:39Z</time>
      </trkpt>
      <trkpt lat="41.589249000" lon="1.785320000">
        <ele>529.70</ele>
        <time>2013-03-24T09:56:46Z</time>
      </trkpt>
      <trkpt lat="41.589159000" lon="1.785553000">
        <ele>529.00</ele>
        <time>2013-03-24T09:56:50Z</time>
      </trkpt>
      <trkpt lat="41.589087000" lon="1.785812000">
        <ele>527.40</ele>
        <time>2013-03-24T09:56:55Z</time>
      </trkpt>
      <trkpt lat="41.589027000" lon="1.786100000">
        <ele>527.10</ele>
        <time>2013-03-24T09:56:58Z</time>
      </trkpt>
      <trkpt lat="41.589017000" lon="1.786356000">
        <ele>527.20</ele>
        <time>2013-03-24T09:57:02Z</time>
      </trkpt>
      <trkpt lat="41.589110000" lon="1.786564000">
        <ele>527.70</ele>
        <time>2013-03-24T09:57:07Z</time>
      </trkpt>
      <trkpt lat="41.589071000" lon="1.786493000">
        <ele>528.40</ele>
        <time>2013-03-24T09:59:14Z</time>
      </trkpt>
      <trkpt lat="41.589030000" lon="1.786245000">
        <ele>527.80</ele>
        <time>2013-03-24T09:59:35Z</time>
      </trkpt>
      <trkpt lat="41.589066000" lon="1.785990000">
        <ele>527.80</ele>
        <time>2013-03-24T09:59:44Z</time>
      </trkpt>
      <trkpt lat="41.589125000" lon="1.785765000">
        <ele>528.80</ele>
        <time>2013-03-24T09:59:53Z</time>
      </trkpt>
      <trkpt lat="41.589182000" lon="1.785509000">
        <ele>529.60</ele>
        <time>2013-03-24T10:00:01Z</time>
      </trkpt>
      <trkpt lat="41.589264000" lon="1.785298000">
        <ele>530.10</ele>
        <time>2013-03-24T10:00:10Z</time>
      </trkpt>
      <trkpt lat="41.589234000" lon="1.785061000">
        <ele>532.10</ele>
        <time>2013-03-24T10:00:19Z</time>
      </trkpt>
      <trkpt lat="41.589063000" lon="1.784932000">
        <ele>531.80</ele>
        <time>2013-03-24T10:00:27Z</time>
      </trkpt>
      <trkpt lat="41.588911000" lon="1.784764000">
        <ele>530.70</ele>
        <time>2013-03-24T10:00:34Z</time>
      </trkpt>
      <trkpt lat="41.588786000" lon="1.784585000">
        <ele>529.90</ele>
        <time>2013-03-24T10:00:41Z</time>
      </trkpt>
      <trkpt lat="41.588713000" lon="1.784342000">
        <ele>529.40</ele>
        <time>2013-03-24T10:00:47Z</time>
      </trkpt>
      <trkpt lat="41.588634000" lon="1.784069000">
        <ele>529.10</ele>
        <time>2013-03-24T10:00:52Z</time>
      </trkpt>
      <trkpt lat="41.588517000" lon="1.783890000">
        <ele>529.10</ele>
        <time>2013-03-24T10:00:57Z</time>
      </trkpt>
      <trkpt lat="41.588380000" lon="1.783681000">
        <ele>529.30</ele>
        <time>2013-03-24T10:01:04Z</time>
      </trkpt>
      <trkpt lat="41.588274000" lon="1.783457000">
        <ele>529.70</ele>
        <time>2013-03-24T10:01:11Z</time>
      </trkpt>
      <trkpt lat="41.588214000" lon="1.783208000">
        <ele>529.40</ele>
        <time>2013-03-24T10:01:16Z</time>
      </trkpt>
      <trkpt lat="41.588095000" lon="1.783010000">
        <ele>528.20</ele>
        <time>2013-03-24T10:01:23Z</time>
      </trkpt>
      <trkpt lat="41.587896000" lon="1.783078000">
        <ele>525.50</ele>
        <time>2013-03-24T10:01:28Z</time>
      </trkpt>
      <trkpt lat="41.587717000" lon="1.783118000">
        <ele>523.70</ele>
        <time>2013-03-24T10:01:32Z</time>
      </trkpt>
      <trkpt lat="41.587529000" lon="1.783147000">
        <ele>522.20</ele>
        <time>2013-03-24T10:01:35Z</time>
      </trkpt>
      <trkpt lat="41.587328000" lon="1.783094000">
        <ele>519.50</ele>
        <time>2013-03-24T10:01:39Z</time>
      </trkpt>
      <trkpt lat="41.587115000" lon="1.782954000">
        <ele>518.80</ele>
        <time>2013-03-24T10:01:44Z</time>
      </trkpt>
      <trkpt lat="41.586906000" lon="1.782874000">
        <ele>518.60</ele>
        <time>2013-03-24T10:01:48Z</time>
      </trkpt>
      <trkpt lat="41.586729000" lon="1.782851000">
        <ele>519.70</ele>
        <time>2013-03-24T10:01:51Z</time>
      </trkpt>
      <trkpt lat="41.586553000" lon="1.782763000">
        <ele>520.10</ele>
        <time>2013-03-24T10:01:56Z</time>
      </trkpt>
      <trkpt lat="41.586453000" lon="1.782538000">
        <ele>521.10</ele>
        <time>2013-03-24T10:02:03Z</time>
      </trkpt>
      <trkpt lat="41.586373000" lon="1.782319000">
        <ele>520.70</ele>
        <time>2013-03-24T10:02:08Z</time>
      </trkpt>
      <trkpt lat="41.586305000" lon="1.782095000">
        <ele>521.00</ele>
        <time>2013-03-24T10:02:15Z</time>
      </trkpt>
      <trkpt lat="41.586284000" lon="1.781842000">
        <ele>520.60</ele>
        <time>2013-03-24T10:02:22Z</time>
      </trkpt>
      <trkpt lat="41.586241000" lon="1.781576000">
        <ele>520.80</ele>
        <time>2013-03-24T10:02:28Z</time>
      </trkpt>
      <trkpt lat="41.586170000" lon="1.781319000">
        <ele>520.90</ele>
        <time>2013-03-24T10:02:33Z</time>
      </trkpt>
      <trkpt lat="41.586088000" lon="1.781079000">
        <ele>521.30</ele>
        <time>2013-03-24T10:02:40Z</time>
      </trkpt>
      <trkpt lat="41.586243000" lon="1.780969000">
        <ele>521.90</ele>
        <time>2013-03-24T10:02:50Z</time>
      </trkpt>
      <trkpt lat="41.586447000" lon="1.780998000">
        <ele>523.70</ele>
        <time>2013-03-24T10:02:59Z</time>
      </trkpt>
      <trkpt lat="41.586635000" lon="1.781014000">
        <ele>525.10</ele>
        <time>2013-03-24T10:03:08Z</time>
      </trkpt>
      <trkpt lat="41.586831000" lon="1.781000000">
        <ele>526.50</ele>
        <time>2013-03-24T10:03:16Z</time>
      </trkpt>
      <trkpt lat="41.587023000" lon="1.780957000">
        <ele>528.10</ele>
        <time>2013-03-24T10:03:25Z</time>
      </trkpt>
      <trkpt lat="41.587253000" lon="1.780932000">
        <ele>530.20</ele>
        <time>2013-03-24T10:03:34Z</time>
      </trkpt>
      <trkpt lat="41.587458000" lon="1.780888000">
        <ele>531.20</ele>
        <time>2013-03-24T10:03:44Z</time>
      </trkpt>
      <trkpt lat="41.587686000" lon="1.780880000">
        <ele>533.00</ele>
        <time>2013-03-24T10:03:53Z</time>
      </trkpt>
      <trkpt lat="41.587907000" lon="1.780786000">
        <ele>534.30</ele>
        <time>2013-03-24T10:04:00Z</time>
      </trkpt>
      <trkpt lat="41.588121000" lon="1.780678000">
        <ele>535.60</ele>
        <time>2013-03-24T10:04:09Z</time>
      </trkpt>
      <trkpt lat="41.588306000" lon="1.780618000">
        <ele>537.10</ele>
        <time>2013-03-24T10:04:16Z</time>
      </trkpt>
      <trkpt lat="41.588492000" lon="1.780582000">
        <ele>538.50</ele>
        <time>2013-03-24T10:04:23Z</time>
      </trkpt>
      <trkpt lat="41.588679000" lon="1.780533000">
        <ele>539.50</ele>
        <time>2013-03-24T10:04:30Z</time>
      </trkpt>
      <trkpt lat="41.588860000" lon="1.780528000">
        <ele>540.80</ele>
        <time>2013-03-24T10:04:36Z</time>
      </trkpt>
      <trkpt lat="41.589032000" lon="1.780515000">
        <ele>542.10</ele>
        <time>2013-03-24T10:04:43Z</time>
      </trkpt>
      <trkpt lat="41.589214000" lon="1.780481000">
        <ele>543.00</ele>
        <time>2013-03-24T10:04:50Z</time>
      </trkpt>
      <trkpt lat="41.589393000" lon="1.780436000">
        <ele>544.30</ele>
        <time>2013-03-24T10:04:57Z</time>
      </trkpt>
      <trkpt lat="41.589573000" lon="1.780373000">
        <ele>545.40</ele>
        <time>2013-03-24T10:05:04Z</time>
      </trkpt>
      <trkpt lat="41.589747000" lon="1.780402000">
        <ele>546.80</ele>
        <time>2013-03-24T10:05:11Z</time>
      </trkpt>
      <trkpt lat="41.589928000" lon="1.780539000">
        <ele>548.30</ele>
        <time>2013-03-24T10:05:20Z</time>
      </trkpt>
      <trkpt lat="41.590097000" lon="1.780600000">
        <ele>549.50</ele>
        <time>2013-03-24T10:05:27Z</time>
      </trkpt>
      <trkpt lat="41.590306000" lon="1.780625000">
        <ele>551.00</ele>
        <time>2013-03-24T10:05:34Z</time>
      </trkpt>
      <trkpt lat="41.590501000" lon="1.780621000">
        <ele>552.10</ele>
        <time>2013-03-24T10:05:43Z</time>
      </trkpt>
      <trkpt lat="41.590686000" lon="1.780539000">
        <ele>552.90</ele>
        <time>2013-03-24T10:05:50Z</time>
      </trkpt>
      <trkpt lat="41.590885000" lon="1.780436000">
        <ele>554.20</ele>
        <time>2013-03-24T10:05:58Z</time>
      </trkpt>
      <trkpt lat="41.591089000" lon="1.780426000">
        <ele>555.60</ele>
        <time>2013-03-24T10:06:05Z</time>
      </trkpt>
      <trkpt lat="41.591298000" lon="1.780440000">
        <ele>557.20</ele>
        <time>2013-03-24T10:06:14Z</time>
      </trkpt>
      <trkpt lat="41.591487000" lon="1.780443000">
        <ele>559.00</ele>
        <time>2013-03-24T10:06:21Z</time>
      </trkpt>
      <trkpt lat="41.591678000" lon="1.780473000">
        <ele>560.40</ele>
        <time>2013-03-24T10:06:30Z</time>
      </trkpt>
      <trkpt lat="41.591865000" lon="1.780441000">
        <ele>561.80</ele>
        <time>2013-03-24T10:06:37Z</time>
      </trkpt>
      <trkpt lat="41.592046000" lon="1.780384000">
        <ele>562.90</ele>
        <time>2013-03-24T10:06:45Z</time>
      </trkpt>
      <trkpt lat="41.592254000" lon="1.780359000">
        <ele>564.40</ele>
        <time>2013-03-24T10:06:52Z</time>
      </trkpt>
      <trkpt lat="41.592445000" lon="1.780297000">
        <ele>566.10</ele>
        <time>2013-03-24T10:07:01Z</time>
      </trkpt>
      <trkpt lat="41.592618000" lon="1.780247000">
        <ele>567.30</ele>
        <time>2013-03-24T10:07:08Z</time>
      </trkpt>
      <trkpt lat="41.592800000" lon="1.780180000">
        <ele>569.30</ele>
        <time>2013-03-24T10:07:15Z</time>
      </trkpt>
      <trkpt lat="41.592970000" lon="1.780093000">
        <ele>570.10</ele>
        <time>2013-03-24T10:07:22Z</time>
      </trkpt>
      <trkpt lat="41.593154000" lon="1.780015000">
        <ele>571.40</ele>
        <time>2013-03-24T10:07:29Z</time>
      </trkpt>
      <trkpt lat="41.593282000" lon="1.779839000">
        <ele>572.50</ele>
        <time>2013-03-24T10:07:36Z</time>
      </trkpt>
      <trkpt lat="41.593428000" lon="1.779666000">
        <ele>571.10</ele>
        <time>2013-03-24T10:07:43Z</time>
      </trkpt>
      <trkpt lat="41.593567000" lon="1.779490000">
        <ele>571.50</ele>
        <time>2013-03-24T10:07:48Z</time>
      </trkpt>
      <trkpt lat="41.593703000" lon="1.779280000">
        <ele>571.20</ele>
        <time>2013-03-24T10:07:53Z</time>
      </trkpt>
      <trkpt lat="41.593865000" lon="1.779072000">
        <ele>569.60</ele>
        <time>2013-03-24T10:08:00Z</time>
      </trkpt>
      <trkpt lat="41.594063000" lon="1.778932000">
        <ele>566.90</ele>
        <time>2013-03-24T10:08:04Z</time>
      </trkpt>
      <trkpt lat="41.594211000" lon="1.778752000">
        <ele>568.90</ele>
        <time>2013-03-24T10:08:07Z</time>
      </trkpt>
      <trkpt lat="41.594091000" lon="1.778580000">
        <ele>571.80</ele>
        <time>2013-03-24T10:08:18Z</time>
      </trkpt>
      <trkpt lat="41.593958000" lon="1.778375000">
        <ele>573.70</ele>
        <time>2013-03-24T10:08:28Z</time>
      </trkpt>
      <trkpt lat="41.593951000" lon="1.778160000">
        <ele>577.50</ele>
        <time>2013-03-24T10:08:37Z</time>
      </trkpt>
      <trkpt lat="41.594050000" lon="1.777998000">
        <ele>579.60</ele>
        <time>2013-03-24T10:08:51Z</time>
      </trkpt>
      <trkpt lat="41.594222000" lon="1.777916000">
        <ele>580.80</ele>
        <time>2013-03-24T10:09:45Z</time>
      </trkpt>
      <trkpt lat="41.594391000" lon="1.777855000">
        <ele>582.60</ele>
        <time>2013-03-24T10:09:54Z</time>
      </trkpt>
      <trkpt lat="41.594526000" lon="1.777694000">
        <ele>584.30</ele>
        <time>2013-03-24T10:10:04Z</time>
      </trkpt>
      <trkpt lat="41.594677000" lon="1.777562000">
        <ele>586.40</ele>
        <time>2013-03-24T10:10:13Z</time>
      </trkpt>
      <trkpt lat="41.594855000" lon="1.777421000">
        <ele>588.70</ele>
        <time>2013-03-24T10:10:25Z</time>
      </trkpt>
      <trkpt lat="41.595023000" lon="1.777304000">
        <ele>590.00</ele>
        <time>2013-03-24T10:10:35Z</time>
      </trkpt>
      <trkpt lat="41.595188000" lon="1.777135000">
        <ele>591.60</ele>
        <time>2013-03-24T10:10:46Z</time>
      </trkpt>
      <trkpt lat="41.595314000" lon="1.776941000">
        <ele>593.80</ele>
        <time>2013-03-24T10:10:56Z</time>
      </trkpt>
      <trkpt lat="41.595473000" lon="1.776794000">
        <ele>595.40</ele>
        <time>2013-03-24T10:11:08Z</time>
      </trkpt>
      <trkpt lat="41.595587000" lon="1.776604000">
        <ele>597.40</ele>
        <time>2013-03-24T10:11:22Z</time>
      </trkpt>
      <trkpt lat="41.595751000" lon="1.776457000">
        <ele>599.60</ele>
        <time>2013-03-24T10:11:33Z</time>
      </trkpt>
      <trkpt lat="41.595903000" lon="1.776297000">
        <ele>600.70</ele>
        <time>2013-03-24T10:11:43Z</time>
      </trkpt>
      <trkpt lat="41.596008000" lon="1.776112000">
        <ele>602.90</ele>
        <time>2013-03-24T10:11:54Z</time>
      </trkpt>
      <trkpt lat="41.596185000" lon="1.775994000">
        <ele>604.40</ele>
        <time>2013-03-24T10:12:06Z</time>
      </trkpt>
      <trkpt lat="41.596370000" lon="1.775900000">
        <ele>606.50</ele>
        <time>2013-03-24T10:12:18Z</time>
      </trkpt>
      <trkpt lat="41.596535000" lon="1.775782000">
        <ele>608.20</ele>
        <time>2013-03-24T10:12:29Z</time>
      </trkpt>
      <trkpt lat="41.596699000" lon="1.775639000">
        <ele>609.50</ele>
        <time>2013-03-24T10:12:39Z</time>
      </trkpt>
      <trkpt lat="41.596880000" lon="1.775495000">
        <ele>612.10</ele>
        <time>2013-03-24T10:12:53Z</time>
      </trkpt>
      <trkpt lat="41.597068000" lon="1.775323000">
        <ele>614.70</ele>
        <time>2013-03-24T10:13:05Z</time>
      </trkpt>
      <trkpt lat="41.597242000" lon="1.775154000">
        <ele>616.50</ele>
        <time>2013-03-24T10:13:16Z</time>
      </trkpt>
      <trkpt lat="41.597336000" lon="1.774950000">
        <ele>618.90</ele>
        <time>2013-03-24T10:13:26Z</time>
      </trkpt>
      <trkpt lat="41.597436000" lon="1.774736000">
        <ele>620.00</ele>
        <time>2013-03-24T10:13:35Z</time>
      </trkpt>
      <trkpt lat="41.597522000" lon="1.774507000">
        <ele>620.10</ele>
        <time>2013-03-24T10:13:43Z</time>
      </trkpt>
      <trkpt lat="41.597630000" lon="1.774285000">
        <ele>621.60</ele>
        <time>2013-03-24T10:13:52Z</time>
      </trkpt>
      <trkpt lat="41.597776000" lon="1.774111000">
        <ele>622.40</ele>
        <time>2013-03-24T10:14:01Z</time>
      </trkpt>
      <trkpt lat="41.597932000" lon="1.773959000">
        <ele>623.10</ele>
        <time>2013-03-24T10:14:13Z</time>
      </trkpt>
      <trkpt lat="41.598103000" lon="1.773842000">
        <ele>624.20</ele>
        <time>2013-03-24T10:14:24Z</time>
      </trkpt>
      <trkpt lat="41.598229000" lon="1.773649000">
        <ele>625.50</ele>
        <time>2013-03-24T10:14:34Z</time>
      </trkpt>
      <trkpt lat="41.598384000" lon="1.773487000">
        <ele>626.30</ele>
        <time>2013-03-24T10:14:44Z</time>
      </trkpt>
      <trkpt lat="41.598541000" lon="1.773340000">
        <ele>628.40</ele>
        <time>2013-03-24T10:14:55Z</time>
      </trkpt>
      <trkpt lat="41.598589000" lon="1.773112000">
        <ele>629.90</ele>
        <time>2013-03-24T10:15:04Z</time>
      </trkpt>
      <trkpt lat="41.598527000" lon="1.772867000">
        <ele>630.40</ele>
        <time>2013-03-24T10:15:12Z</time>
      </trkpt>
      <trkpt lat="41.598406000" lon="1.772664000">
        <ele>631.30</ele>
        <time>2013-03-24T10:15:21Z</time>
      </trkpt>
      <trkpt lat="41.598294000" lon="1.772476000">
        <ele>632.30</ele>
        <time>2013-03-24T10:15:30Z</time>
      </trkpt>
      <trkpt lat="41.598318000" lon="1.772244000">
        <ele>633.00</ele>
        <time>2013-03-24T10:15:45Z</time>
      </trkpt>
      <trkpt lat="41.598420000" lon="1.772041000">
        <ele>632.90</ele>
        <time>2013-03-24T10:17:30Z</time>
      </trkpt>
      <trkpt lat="41.598537000" lon="1.771835000">
        <ele>632.60</ele>
        <time>2013-03-24T10:17:39Z</time>
      </trkpt>
      <trkpt lat="41.598698000" lon="1.771669000">
        <ele>631.40</ele>
        <time>2013-03-24T10:17:44Z</time>
      </trkpt>
      <trkpt lat="41.598897000" lon="1.771572000">
        <ele>628.80</ele>
        <time>2013-03-24T10:17:49Z</time>
      </trkpt>
      <trkpt lat="41.599060000" lon="1.771448000">
        <ele>627.10</ele>
        <time>2013-03-24T10:17:51Z</time>
      </trkpt>
      <trkpt lat="41.599290000" lon="1.771349000">
        <ele>627.20</ele>
        <time>2013-03-24T10:17:56Z</time>
      </trkpt>
      <trkpt lat="41.599516000" lon="1.771296000">
        <ele>626.00</ele>
        <time>2013-03-24T10:17:59Z</time>
      </trkpt>
      <trkpt lat="41.599707000" lon="1.771185000">
        <ele>623.10</ele>
        <time>2013-03-24T10:18:03Z</time>
      </trkpt>
      <trkpt lat="41.599838000" lon="1.770958000">
        <ele>621.50</ele>
        <time>2013-03-24T10:18:05Z</time>
      </trkpt>
      <trkpt lat="41.599840000" lon="1.770653000">
        <ele>620.30</ele>
        <time>2013-03-24T10:18:08Z</time>
      </trkpt>
      <trkpt lat="41.599856000" lon="1.770354000">
        <ele>618.30</ele>
        <time>2013-03-24T10:18:12Z</time>
      </trkpt>
      <trkpt lat="41.599970000" lon="1.770151000">
        <ele>618.60</ele>
        <time>2013-03-24T10:18:15Z</time>
      </trkpt>
      <trkpt lat="41.600183000" lon="1.770057000">
        <ele>619.50</ele>
        <time>2013-03-24T10:18:19Z</time>
      </trkpt>
      <trkpt lat="41.600389000" lon="1.770008000">
        <ele>619.00</ele>
        <time>2013-03-24T10:18:22Z</time>
      </trkpt>
      <trkpt lat="41.600543000" lon="1.769824000">
        <ele>617.00</ele>
        <time>2013-03-24T10:18:26Z</time>
      </trkpt>
      <trkpt lat="41.600746000" lon="1.769796000">
        <ele>617.40</ele>
        <time>2013-03-24T10:18:31Z</time>
      </trkpt>
      <trkpt lat="41.600931000" lon="1.769769000">
        <ele>618.00</ele>
        <time>2013-03-24T10:18:34Z</time>
      </trkpt>
      <trkpt lat="41.601118000" lon="1.769751000">
        <ele>617.20</ele>
        <time>2013-03-24T10:18:38Z</time>
      </trkpt>
      <trkpt lat="41.601318000" lon="1.769697000">
        <ele>615.50</ele>
        <time>2013-03-24T10:18:43Z</time>
      </trkpt>
      <trkpt lat="41.601521000" lon="1.769604000">
        <ele>614.80</ele>
        <time>2013-03-24T10:18:47Z</time>
      </trkpt>
      <trkpt lat="41.601747000" lon="1.769542000">
        <ele>613.80</ele>
        <time>2013-03-24T10:18:50Z</time>
      </trkpt>
      <trkpt lat="41.601925000" lon="1.769406000">
        <ele>613.20</ele>
        <time>2013-03-24T10:18:55Z</time>
      </trkpt>
      <trkpt lat="41.601811000" lon="1.769246000">
        <ele>613.80</ele>
        <time>2013-03-24T10:18:59Z</time>
      </trkpt>
      <trkpt lat="41.601626000" lon="1.769254000">
        <ele>613.70</ele>
        <time>2013-03-24T10:19:02Z</time>
      </trkpt>
      <trkpt lat="41.601424000" lon="1.769265000">
        <ele>614.10</ele>
        <time>2013-03-24T10:19:06Z</time>
      </trkpt>
      <trkpt lat="41.601242000" lon="1.769266000">
        <ele>614.70</ele>
        <time>2013-03-24T10:19:11Z</time>
      </trkpt>
      <trkpt lat="41.601030000" lon="1.769261000">
        <ele>612.90</ele>
        <time>2013-03-24T10:19:14Z</time>
      </trkpt>
      <trkpt lat="41.600851000" lon="1.769193000">
        <ele>614.70</ele>
        <time>2013-03-24T10:19:18Z</time>
      </trkpt>
      <trkpt lat="41.600717000" lon="1.769010000">
        <ele>618.10</ele>
        <time>2013-03-24T10:19:23Z</time>
      </trkpt>
      <trkpt lat="41.600530000" lon="1.768950000">
        <ele>619.50</ele>
        <time>2013-03-24T10:19:28Z</time>
      </trkpt>
      <trkpt lat="41.600320000" lon="1.768949000">
        <ele>620.60</ele>
        <time>2013-03-24T10:19:35Z</time>
      </trkpt>
      <trkpt lat="41.600126000" lon="1.768905000">
        <ele>621.60</ele>
        <time>2013-03-24T10:19:41Z</time>
      </trkpt>
      <trkpt lat="41.599924000" lon="1.768860000">
        <ele>622.40</ele>
        <time>2013-03-24T10:19:46Z</time>
      </trkpt>
      <trkpt lat="41.599766000" lon="1.768996000">
        <ele>624.20</ele>
        <time>2013-03-24T10:19:53Z</time>
      </trkpt>
      <trkpt lat="41.599558000" lon="1.769081000">
        <ele>624.30</ele>
        <time>2013-03-24T10:19:58Z</time>
      </trkpt>
      <trkpt lat="41.599377000" lon="1.769162000">
        <ele>625.40</ele>
        <time>2013-03-24T10:20:05Z</time>
      </trkpt>
      <trkpt lat="41.599181000" lon="1.769190000">
        <ele>624.40</ele>
        <time>2013-03-24T10:20:10Z</time>
      </trkpt>
      <trkpt lat="41.599006000" lon="1.769119000">
        <ele>625.50</ele>
        <time>2013-03-24T10:20:14Z</time>
      </trkpt>
      <trkpt lat="41.598831000" lon="1.769023000">
        <ele>626.10</ele>
        <time>2013-03-24T10:20:19Z</time>
      </trkpt>
      <trkpt lat="41.598642000" lon="1.768872000">
        <ele>624.70</ele>
        <time>2013-03-24T10:20:24Z</time>
      </trkpt>
      <trkpt lat="41.598466000" lon="1.768724000">
        <ele>625.40</ele>
        <time>2013-03-24T10:20:29Z</time>
      </trkpt>
      <trkpt lat="41.598303000" lon="1.768596000">
        <ele>625.20</ele>
        <time>2013-03-24T10:20:36Z</time>
      </trkpt>
      <trkpt lat="41.598137000" lon="1.768512000">
        <ele>624.30</ele>
        <time>2013-03-24T10:20:40Z</time>
      </trkpt>
      <trkpt lat="41.597963000" lon="1.768549000">
        <ele>623.60</ele>
        <time>2013-03-24T10:21:51Z</time>
      </trkpt>
      <trkpt lat="41.597869000" lon="1.768794000">
        <ele>621.20</ele>
        <time>2013-03-24T10:21:55Z</time>
      </trkpt>
      <trkpt lat="41.597665000" lon="1.768931000">
        <ele>616.90</ele>
        <time>2013-03-24T10:21:58Z</time>
      </trkpt>
      <trkpt lat="41.597391000" lon="1.769041000">
        <ele>613.10</ele>
        <time>2013-03-24T10:22:02Z</time>
      </trkpt>
      <trkpt lat="41.597197000" lon="1.769125000">
        <ele>611.30</ele>
        <time>2013-03-24T10:22:03Z</time>
      </trkpt>
      <trkpt lat="41.596998000" lon="1.769205000">
        <ele>610.40</ele>
        <time>2013-03-24T10:22:05Z</time>
      </trkpt>
      <trkpt lat="41.596794000" lon="1.769270000">
        <ele>609.90</ele>
        <time>2013-03-24T10:22:07Z</time>
      </trkpt>
      <trkpt lat="41.596594000" lon="1.769300000">
        <ele>609.80</ele>
        <time>2013-03-24T10:22:10Z</time>
      </trkpt>
      <trkpt lat="41.596400000" lon="1.769242000">
        <ele>608.70</ele>
        <time>2013-03-24T10:22:12Z</time>
      </trkpt>
      <trkpt lat="41.596216000" lon="1.769128000">
        <ele>608.00</ele>
        <time>2013-03-24T10:22:14Z</time>
      </trkpt>
      <trkpt lat="41.596035000" lon="1.768992000">
        <ele>605.50</ele>
        <time>2013-03-24T10:22:16Z</time>
      </trkpt>
      <trkpt lat="41.595865000" lon="1.768852000">
        <ele>605.30</ele>
        <time>2013-03-24T10:22:17Z</time>
      </trkpt>
      <trkpt lat="41.595652000" lon="1.768696000">
        <ele>606.20</ele>
        <time>2013-03-24T10:22:21Z</time>
      </trkpt>
      <trkpt lat="41.595546000" lon="1.768498000">
        <ele>607.00</ele>
        <time>2013-03-24T10:22:26Z</time>
      </trkpt>
      <trkpt lat="41.595385000" lon="1.768368000">
        <ele>605.80</ele>
        <time>2013-03-24T10:23:58Z</time>
      </trkpt>
      <trkpt lat="41.595202000" lon="1.768401000">
        <ele>604.80</ele>
        <time>2013-03-24T10:24:02Z</time>
      </trkpt>
      <trkpt lat="41.595004000" lon="1.768395000">
        <ele>604.00</ele>
        <time>2013-03-24T10:24:05Z</time>
      </trkpt>
      <trkpt lat="41.594785000" lon="1.768386000">
        <ele>603.00</ele>
        <time>2013-03-24T10:24:09Z</time>
      </trkpt>
      <trkpt lat="41.594569000" lon="1.768260000">
        <ele>599.80</ele>
        <time>2013-03-24T10:24:14Z</time>
      </trkpt>
      <trkpt lat="41.594413000" lon="1.768120000">
        <ele>596.10</ele>
        <time>2013-03-24T10:24:16Z</time>
      </trkpt>
      <trkpt lat="41.594370000" lon="1.767837000">
        <ele>589.50</ele>
        <time>2013-03-24T10:24:19Z</time>
      </trkpt>
      <trkpt lat="41.594435000" lon="1.767496000">
        <ele>587.30</ele>
        <time>2013-03-24T10:24:23Z</time>
      </trkpt>
      <trkpt lat="41.594581000" lon="1.767307000">
        <ele>588.90</ele>
        <time>2013-03-24T10:24:26Z</time>
      </trkpt>
      <trkpt lat="41.594799000" lon="1.767293000">
        <ele>592.40</ele>
        <time>2013-03-24T10:26:02Z</time>
      </trkpt>
      <trkpt lat="41.594880000" lon="1.767282000">
        <ele>594.00</ele>
        <time>2013-03-24T10:27:48Z</time>
      </trkpt>
      <trkpt lat="41.594718000" lon="1.767307000">
        <ele>591.90</ele>
        <time>2013-03-24T10:28:09Z</time>
      </trkpt>
      <trkpt lat="41.594505000" lon="1.767361000">
        <ele>590.60</ele>
        <time>2013-03-24T10:28:21Z</time>
      </trkpt>
      <trkpt lat="41.594373000" lon="1.767548000">
        <ele>591.00</ele>
        <time>2013-03-24T10:28:32Z</time>
      </trkpt>
      <trkpt lat="41.594238000" lon="1.767766000">
        <ele>590.90</ele>
        <time>2013-03-24T10:28:39Z</time>
      </trkpt>
      <trkpt lat="41.594271000" lon="1.768000000">
        <ele>593.00</ele>
        <time>2013-03-24T10:28:44Z</time>
      </trkpt>
      <trkpt lat="41.594368000" lon="1.768201000">
        <ele>597.10</ele>
        <time>2013-03-24T10:28:51Z</time>
      </trkpt>
      <trkpt lat="41.594459000" lon="1.768442000">
        <ele>601.40</ele>
        <time>2013-03-24T10:29:00Z</time>
      </trkpt>
      <trkpt lat="41.594618000" lon="1.768495000">
        <ele>603.30</ele>
        <time>2013-03-24T10:29:10Z</time>
      </trkpt>
      <trkpt lat="41.594783000" lon="1.768423000">
        <ele>603.50</ele>
        <time>2013-03-24T10:29:19Z</time>
      </trkpt>
      <trkpt lat="41.594943000" lon="1.768547000">
        <ele>604.50</ele>
        <time>2013-03-24T10:29:28Z</time>
      </trkpt>
      <trkpt lat="41.595132000" lon="1.768557000">
        <ele>604.60</ele>
        <time>2013-03-24T10:29:38Z</time>
      </trkpt>
      <trkpt lat="41.595305000" lon="1.768515000">
        <ele>605.80</ele>
        <time>2013-03-24T10:29:47Z</time>
      </trkpt>
      <trkpt lat="41.595468000" lon="1.768426000">
        <ele>606.70</ele>
        <time>2013-03-24T10:29:57Z</time>
      </trkpt>
      <trkpt lat="41.595634000" lon="1.768302000">
        <ele>607.50</ele>
        <time>2013-03-24T10:30:06Z</time>
      </trkpt>
      <trkpt lat="41.595793000" lon="1.768154000">
        <ele>608.50</ele>
        <time>2013-03-24T10:30:16Z</time>
      </trkpt>
      <trkpt lat="41.595925000" lon="1.767963000">
        <ele>609.80</ele>
        <time>2013-03-24T10:30:25Z</time>
      </trkpt>
      <trkpt lat="41.596042000" lon="1.767783000">
        <ele>610.90</ele>
        <time>2013-03-24T10:30:37Z</time>
      </trkpt>
      <trkpt lat="41.596166000" lon="1.767569000">
        <ele>611.80</ele>
        <time>2013-03-24T10:30:46Z</time>
      </trkpt>
      <trkpt lat="41.596277000" lon="1.767392000">
        <ele>612.70</ele>
        <time>2013-03-24T10:30:58Z</time>
      </trkpt>
      <trkpt lat="41.596406000" lon="1.767223000">
        <ele>613.70</ele>
        <time>2013-03-24T10:31:07Z</time>
      </trkpt>
      <trkpt lat="41.596573000" lon="1.767085000">
        <ele>614.50</ele>
        <time>2013-03-24T10:31:14Z</time>
      </trkpt>
      <trkpt lat="41.596776000" lon="1.766989000">
        <ele>615.50</ele>
        <time>2013-03-24T10:31:21Z</time>
      </trkpt>
      <trkpt lat="41.596970000" lon="1.766922000">
        <ele>616.00</ele>
        <time>2013-03-24T10:31:28Z</time>
      </trkpt>
      <trkpt lat="41.597150000" lon="1.766865000">
        <ele>616.60</ele>
        <time>2013-03-24T10:31:35Z</time>
      </trkpt>
      <trkpt lat="41.597339000" lon="1.766791000">
        <ele>617.30</ele>
        <time>2013-03-24T10:31:42Z</time>
      </trkpt>
      <trkpt lat="41.597527000" lon="1.766729000">
        <ele>618.20</ele>
        <time>2013-03-24T10:31:49Z</time>
      </trkpt>
      <trkpt lat="41.597719000" lon="1.766656000">
        <ele>618.90</ele>
        <time>2013-03-24T10:31:54Z</time>
      </trkpt>
      <trkpt lat="41.597919000" lon="1.766587000">
        <ele>619.80</ele>
        <time>2013-03-24T10:32:01Z</time>
      </trkpt>
      <trkpt lat="41.598100000" lon="1.766528000">
        <ele>621.00</ele>
        <time>2013-03-24T10:32:08Z</time>
      </trkpt>
      <trkpt lat="41.598284000" lon="1.766470000">
        <ele>622.00</ele>
        <time>2013-03-24T10:32:13Z</time>
      </trkpt>
      <trkpt lat="41.598466000" lon="1.766416000">
        <ele>622.70</ele>
        <time>2013-03-24T10:32:20Z</time>
      </trkpt>
      <trkpt lat="41.598669000" lon="1.766359000">
        <ele>623.50</ele>
        <time>2013-03-24T10:32:27Z</time>
      </trkpt>
      <trkpt lat="41.598850000" lon="1.766302000">
        <ele>624.90</ele>
        <time>2013-03-24T10:32:32Z</time>
      </trkpt>
      <trkpt lat="41.599029000" lon="1.766226000">
        <ele>625.30</ele>
        <time>2013-03-24T10:32:39Z</time>
      </trkpt>
      <trkpt lat="41.599213000" lon="1.766106000">
        <ele>625.80</ele>
        <time>2013-03-24T10:32:44Z</time>
      </trkpt>
      <trkpt lat="41.599349000" lon="1.765939000">
        <ele>626.20</ele>
        <time>2013-03-24T10:32:50Z</time>
      </trkpt>
      <trkpt lat="41.599462000" lon="1.765751000">
        <ele>626.70</ele>
        <time>2013-03-24T10:32:55Z</time>
      </trkpt>
      <trkpt lat="41.599554000" lon="1.765499000">
        <ele>627.80</ele>
        <time>2013-03-24T10:33:00Z</time>
      </trkpt>
      <trkpt lat="41.599620000" lon="1.765263000">
        <ele>628.60</ele>
        <time>2013-03-24T10:33:07Z</time>
      </trkpt>
      <trkpt lat="41.599680000" lon="1.765024000">
        <ele>629.80</ele>
        <time>2013-03-24T10:33:12Z</time>
      </trkpt>
      <trkpt lat="41.599731000" lon="1.764790000">
        <ele>630.80</ele>
        <time>2013-03-24T10:33:19Z</time>
      </trkpt>
      <trkpt lat="41.599800000" lon="1.764558000">
        <ele>631.70</ele>
        <time>2013-03-24T10:33:24Z</time>
      </trkpt>
      <trkpt lat="41.599891000" lon="1.764330000">
        <ele>632.00</ele>
        <time>2013-03-24T10:33:30Z</time>
      </trkpt>
      <trkpt lat="41.600019000" lon="1.764128000">
        <ele>632.50</ele>
        <time>2013-03-24T10:33:37Z</time>
      </trkpt>
      <trkpt lat="41.600149000" lon="1.763943000">
        <ele>631.20</ele>
        <time>2013-03-24T10:33:42Z</time>
      </trkpt>
      <trkpt lat="41.600319000" lon="1.763757000">
        <ele>630.90</ele>
        <time>2013-03-24T10:33:47Z</time>
      </trkpt>
      <trkpt lat="41.600462000" lon="1.763600000">
        <ele>630.40</ele>
        <time>2013-03-24T10:33:51Z</time>
      </trkpt>
      <trkpt lat="41.600603000" lon="1.763395000">
        <ele>629.20</ele>
        <time>2013-03-24T10:33:54Z</time>
      </trkpt>
      <trkpt lat="41.600707000" lon="1.763137000">
        <ele>628.80</ele>
        <time>2013-03-24T10:33:59Z</time>
      </trkpt>
      <trkpt lat="41.600796000" lon="1.762876000">
        <ele>628.50</ele>
        <time>2013-03-24T10:34:03Z</time>
      </trkpt>
      <trkpt lat="41.600879000" lon="1.762599000">
        <ele>626.90</ele>
        <time>2013-03-24T10:34:06Z</time>
      </trkpt>
      <trkpt lat="41.600965000" lon="1.762306000">
        <ele>626.30</ele>
        <time>2013-03-24T10:34:10Z</time>
      </trkpt>
      <trkpt lat="41.601036000" lon="1.762082000">
        <ele>626.40</ele>
        <time>2013-03-24T10:34:13Z</time>
      </trkpt>
      <trkpt lat="41.601105000" lon="1.761845000">
        <ele>625.70</ele>
        <time>2013-03-24T10:34:17Z</time>
      </trkpt>
      <trkpt lat="41.601170000" lon="1.761597000">
        <ele>625.40</ele>
        <time>2013-03-24T10:34:20Z</time>
      </trkpt>
      <trkpt lat="41.601236000" lon="1.761347000">
        <ele>624.30</ele>
        <time>2013-03-24T10:34:22Z</time>
      </trkpt>
      <trkpt lat="41.601307000" lon="1.761095000">
        <ele>623.60</ele>
        <time>2013-03-24T10:34:25Z</time>
      </trkpt>
      <trkpt lat="41.601386000" lon="1.760842000">
        <ele>622.90</ele>
        <time>2013-03-24T10:34:29Z</time>
      </trkpt>
      <trkpt lat="41.601468000" lon="1.760584000">
        <ele>622.50</ele>
        <time>2013-03-24T10:34:31Z</time>
      </trkpt>
      <trkpt lat="41.601535000" lon="1.760320000">
        <ele>621.40</ele>
        <time>2013-03-24T10:34:34Z</time>
      </trkpt>
      <trkpt lat="41.601586000" lon="1.760049000">
        <ele>620.50</ele>
        <time>2013-03-24T10:34:38Z</time>
      </trkpt>
      <trkpt lat="41.601602000" lon="1.759773000">
        <ele>621.10</ele>
        <time>2013-03-24T10:34:41Z</time>
      </trkpt>
      <trkpt lat="41.601588000" lon="1.759528000">
        <ele>621.40</ele>
        <time>2013-03-24T10:34:43Z</time>
      </trkpt>
      <trkpt lat="41.601525000" lon="1.759242000">
        <ele>622.40</ele>
        <time>2013-03-24T10:34:48Z</time>
      </trkpt>
      <trkpt lat="41.601436000" lon="1.759006000">
        <ele>623.90</ele>
        <time>2013-03-24T10:34:52Z</time>
      </trkpt>
      <trkpt lat="41.601318000" lon="1.758749000">
        <ele>625.10</ele>
        <time>2013-03-24T10:34:57Z</time>
      </trkpt>
      <trkpt lat="41.601210000" lon="1.758503000">
        <ele>626.50</ele>
        <time>2013-03-24T10:35:02Z</time>
      </trkpt>
      <trkpt lat="41.601106000" lon="1.758269000">
        <ele>627.80</ele>
        <time>2013-03-24T10:35:07Z</time>
      </trkpt>
      <trkpt lat="41.601001000" lon="1.758037000">
        <ele>629.00</ele>
        <time>2013-03-24T10:35:11Z</time>
      </trkpt>
      <trkpt lat="41.600896000" lon="1.757825000">
        <ele>630.90</ele>
        <time>2013-03-24T10:35:16Z</time>
      </trkpt>
      <trkpt lat="41.600808000" lon="1.757600000">
        <ele>631.90</ele>
        <time>2013-03-24T10:35:21Z</time>
      </trkpt>
      <trkpt lat="41.600753000" lon="1.757359000">
        <ele>632.40</ele>
        <time>2013-03-24T10:35:26Z</time>
      </trkpt>
      <trkpt lat="41.600720000" lon="1.757103000">
        <ele>632.20</ele>
        <time>2013-03-24T10:35:33Z</time>
      </trkpt>
      <trkpt lat="41.600683000" lon="1.757125000">
        <ele>632.50</ele>
        <time>2013-03-24T10:35:42Z</time>
      </trkpt>
      <trkpt lat="41.600734000" lon="1.756996000">
        <ele>631.70</ele>
        <time>2013-03-24T10:37:49Z</time>
      </trkpt>
      <trkpt lat="41.600748000" lon="1.756736000">
        <ele>631.00</ele>
        <time>2013-03-24T10:37:54Z</time>
      </trkpt>
      <trkpt lat="41.600795000" lon="1.756461000">
        <ele>630.70</ele>
        <time>2013-03-24T10:38:00Z</time>
      </trkpt>
      <trkpt lat="41.600844000" lon="1.756165000">
        <ele>630.00</ele>
        <time>2013-03-24T10:38:05Z</time>
      </trkpt>
      <trkpt lat="41.600908000" lon="1.755917000">
        <ele>629.20</ele>
        <time>2013-03-24T10:38:10Z</time>
      </trkpt>
      <trkpt lat="41.600939000" lon="1.755641000">
        <ele>628.60</ele>
        <time>2013-03-24T10:38:14Z</time>
      </trkpt>
      <trkpt lat="41.600993000" lon="1.755349000">
        <ele>628.10</ele>
        <time>2013-03-24T10:38:17Z</time>
      </trkpt>
      <trkpt lat="41.601038000" lon="1.755110000">
        <ele>627.10</ele>
        <time>2013-03-24T10:38:21Z</time>
      </trkpt>
      <trkpt lat="41.601083000" lon="1.754864000">
        <ele>626.80</ele>
        <time>2013-03-24T10:38:24Z</time>
      </trkpt>
      <trkpt lat="41.601138000" lon="1.754557000">
        <ele>626.60</ele>
        <time>2013-03-24T10:38:28Z</time>
      </trkpt>
      <trkpt lat="41.601195000" lon="1.754262000">
        <ele>626.70</ele>
        <time>2013-03-24T10:38:31Z</time>
      </trkpt>
      <trkpt lat="41.601247000" lon="1.753963000">
        <ele>626.50</ele>
        <time>2013-03-24T10:38:36Z</time>
      </trkpt>
      <trkpt lat="41.601310000" lon="1.753663000">
        <ele>625.90</ele>
        <time>2013-03-24T10:38:40Z</time>
      </trkpt>
      <trkpt lat="41.601377000" lon="1.753434000">
        <ele>624.90</ele>
        <time>2013-03-24T10:38:43Z</time>
      </trkpt>
      <trkpt lat="41.601492000" lon="1.753220000">
        <ele>622.70</ele>
        <time>2013-03-24T10:38:45Z</time>
      </trkpt>
      <trkpt lat="41.601630000" lon="1.753009000">
        <ele>621.80</ele>
        <time>2013-03-24T10:38:48Z</time>
      </trkpt>
      <trkpt lat="41.601795000" lon="1.752797000">
        <ele>619.60</ele>
        <time>2013-03-24T10:38:52Z</time>
      </trkpt>
      <trkpt lat="41.601983000" lon="1.752561000">
        <ele>617.50</ele>
        <time>2013-03-24T10:38:54Z</time>
      </trkpt>
      <trkpt lat="41.602117000" lon="1.752398000">
        <ele>616.20</ele>
        <time>2013-03-24T10:38:57Z</time>
      </trkpt>
      <trkpt lat="41.602252000" lon="1.752222000">
        <ele>615.90</ele>
        <time>2013-03-24T10:38:59Z</time>
      </trkpt>
      <trkpt lat="41.602384000" lon="1.752054000">
        <ele>614.60</ele>
        <time>2013-03-24T10:39:01Z</time>
      </trkpt>
      <trkpt lat="41.602517000" lon="1.751876000">
        <ele>613.40</ele>
        <time>2013-03-24T10:39:02Z</time>
      </trkpt>
      <trkpt lat="41.602658000" lon="1.751701000">
        <ele>613.00</ele>
        <time>2013-03-24T10:39:04Z</time>
      </trkpt>
      <trkpt lat="41.602789000" lon="1.751519000">
        <ele>612.60</ele>
        <time>2013-03-24T10:39:06Z</time>
      </trkpt>
      <trkpt lat="41.602907000" lon="1.751328000">
        <ele>611.70</ele>
        <time>2013-03-24T10:39:09Z</time>
      </trkpt>
      <trkpt lat="41.603035000" lon="1.751014000">
        <ele>609.00</ele>
        <time>2013-03-24T10:39:11Z</time>
      </trkpt>
      <trkpt lat="41.603112000" lon="1.750683000">
        <ele>608.80</ele>
        <time>2013-03-24T10:39:15Z</time>
      </trkpt>
      <trkpt lat="41.603190000" lon="1.750341000">
        <ele>607.50</ele>
        <time>2013-03-24T10:39:18Z</time>
      </trkpt>
      <trkpt lat="41.603249000" lon="1.750104000">
        <ele>606.50</ele>
        <time>2013-03-24T10:39:20Z</time>
      </trkpt>
      <trkpt lat="41.603297000" lon="1.749858000">
        <ele>605.90</ele>
        <time>2013-03-24T10:39:22Z</time>
      </trkpt>
      <trkpt lat="41.603326000" lon="1.749605000">
        <ele>604.60</ele>
        <time>2013-03-24T10:39:23Z</time>
      </trkpt>
      <trkpt lat="41.603306000" lon="1.749349000">
        <ele>604.50</ele>
        <time>2013-03-24T10:39:25Z</time>
      </trkpt>
      <trkpt lat="41.603233000" lon="1.749131000">
        <ele>605.20</ele>
        <time>2013-03-24T10:39:27Z</time>
      </trkpt>
      <trkpt lat="41.603051000" lon="1.748870000">
        <ele>606.30</ele>
        <time>2013-03-24T10:39:30Z</time>
      </trkpt>
      <trkpt lat="41.602839000" lon="1.748713000">
        <ele>607.80</ele>
        <time>2013-03-24T10:39:34Z</time>
      </trkpt>
      <trkpt lat="41.602611000" lon="1.748625000">
        <ele>609.10</ele>
        <time>2013-03-24T10:39:37Z</time>
      </trkpt>
      <trkpt lat="41.602398000" lon="1.748535000">
        <ele>610.40</ele>
        <time>2013-03-24T10:39:39Z</time>
      </trkpt>
      <trkpt lat="41.602207000" lon="1.748412000">
        <ele>611.50</ele>
        <time>2013-03-24T10:39:42Z</time>
      </trkpt>
      <trkpt lat="41.602050000" lon="1.748241000">
        <ele>613.20</ele>
        <time>2013-03-24T10:39:46Z</time>
      </trkpt>
      <trkpt lat="41.601926000" lon="1.748044000">
        <ele>614.50</ele>
        <time>2013-03-24T10:39:48Z</time>
      </trkpt>
      <trkpt lat="41.601840000" lon="1.747825000">
        <ele>614.40</ele>
        <time>2013-03-24T10:39:51Z</time>
      </trkpt>
      <trkpt lat="41.601777000" lon="1.747599000">
        <ele>614.90</ele>
        <time>2013-03-24T10:39:55Z</time>
      </trkpt>
      <trkpt lat="41.601724000" lon="1.747295000">
        <ele>616.00</ele>
        <time>2013-03-24T10:39:58Z</time>
      </trkpt>
      <trkpt lat="41.601702000" lon="1.747014000">
        <ele>617.10</ele>
        <time>2013-03-24T10:40:02Z</time>
      </trkpt>
      <trkpt lat="41.601685000" lon="1.746778000">
        <ele>618.40</ele>
        <time>2013-03-24T10:40:07Z</time>
      </trkpt>
      <trkpt lat="41.601668000" lon="1.746502000">
        <ele>620.10</ele>
        <time>2013-03-24T10:40:12Z</time>
      </trkpt>
      <trkpt lat="41.601645000" lon="1.746233000">
        <ele>621.60</ele>
        <time>2013-03-24T10:40:17Z</time>
      </trkpt>
      <trkpt lat="41.601637000" lon="1.745982000">
        <ele>622.50</ele>
        <time>2013-03-24T10:40:21Z</time>
      </trkpt>
      <trkpt lat="41.601611000" lon="1.745726000">
        <ele>623.40</ele>
        <time>2013-03-24T10:40:26Z</time>
      </trkpt>
      <trkpt lat="41.601585000" lon="1.745453000">
        <ele>623.70</ele>
        <time>2013-03-24T10:40:31Z</time>
      </trkpt>
      <trkpt lat="41.601567000" lon="1.745208000">
        <ele>623.20</ele>
        <time>2013-03-24T10:40:35Z</time>
      </trkpt>
      <trkpt lat="41.601574000" lon="1.744921000">
        <ele>622.30</ele>
        <time>2013-03-24T10:40:40Z</time>
      </trkpt>
      <trkpt lat="41.601646000" lon="1.744613000">
        <ele>620.40</ele>
        <time>2013-03-24T10:40:43Z</time>
      </trkpt>
      <trkpt lat="41.601747000" lon="1.744369000">
        <ele>619.00</ele>
        <time>2013-03-24T10:40:47Z</time>
      </trkpt>
      <trkpt lat="41.601881000" lon="1.744113000">
        <ele>617.50</ele>
        <time>2013-03-24T10:40:49Z</time>
      </trkpt>
      <trkpt lat="41.602080000" lon="1.743725000">
        <ele>616.60</ele>
        <time>2013-03-24T10:40:54Z</time>
      </trkpt>
      <trkpt lat="41.602495000" lon="1.742897000">
        <ele>612.50</ele>
        <time>2013-03-24T10:41:01Z</time>
      </trkpt>
      <trkpt lat="41.602590000" lon="1.742705000">
        <ele>612.30</ele>
        <time>2013-03-24T10:41:04Z</time>
      </trkpt>
      <trkpt lat="41.602763000" lon="1.742367000">
        <ele>614.00</ele>
        <time>2013-03-24T10:41:08Z</time>
      </trkpt>
      <trkpt lat="41.602878000" lon="1.742127000">
        <ele>613.10</ele>
        <time>2013-03-24T10:41:11Z</time>
      </trkpt>
      <trkpt lat="41.602996000" lon="1.741889000">
        <ele>612.80</ele>
        <time>2013-03-24T10:41:13Z</time>
      </trkpt>
      <trkpt lat="41.603121000" lon="1.741642000">
        <ele>611.20</ele>
        <time>2013-03-24T10:41:17Z</time>
      </trkpt>
      <trkpt lat="41.603255000" lon="1.741368000">
        <ele>610.20</ele>
        <time>2013-03-24T10:41:20Z</time>
      </trkpt>
      <trkpt lat="41.603361000" lon="1.741043000">
        <ele>609.40</ele>
        <time>2013-03-24T10:41:22Z</time>
      </trkpt>
      <trkpt lat="41.603398000" lon="1.740807000">
        <ele>607.70</ele>
        <time>2013-03-24T10:41:25Z</time>
      </trkpt>
      <trkpt lat="41.603404000" lon="1.740546000">
        <ele>606.00</ele>
        <time>2013-03-24T10:41:27Z</time>
      </trkpt>
      <trkpt lat="41.603365000" lon="1.740285000">
        <ele>605.40</ele>
        <time>2013-03-24T10:41:29Z</time>
      </trkpt>
      <trkpt lat="41.603300000" lon="1.740033000">
        <ele>604.40</ele>
        <time>2013-03-24T10:41:30Z</time>
      </trkpt>
      <trkpt lat="41.603226000" lon="1.739796000">
        <ele>604.30</ele>
        <time>2013-03-24T10:41:32Z</time>
      </trkpt>
      <trkpt lat="41.603156000" lon="1.739567000">
        <ele>603.80</ele>
        <time>2013-03-24T10:41:34Z</time>
      </trkpt>
      <trkpt lat="41.603077000" lon="1.739334000">
        <ele>603.30</ele>
        <time>2013-03-24T10:41:36Z</time>
      </trkpt>
      <trkpt lat="41.603004000" lon="1.739101000">
        <ele>603.10</ele>
        <time>2013-03-24T10:41:39Z</time>
      </trkpt>
      <trkpt lat="41.602934000" lon="1.738875000">
        <ele>603.00</ele>
        <time>2013-03-24T10:41:41Z</time>
      </trkpt>
      <trkpt lat="41.602823000" lon="1.738570000">
        <ele>603.60</ele>
        <time>2013-03-24T10:41:43Z</time>
      </trkpt>
      <trkpt lat="41.602677000" lon="1.738316000">
        <ele>604.20</ele>
        <time>2013-03-24T10:41:46Z</time>
      </trkpt>
      <trkpt lat="41.602517000" lon="1.738099000">
        <ele>604.60</ele>
        <time>2013-03-24T10:41:50Z</time>
      </trkpt>
      <trkpt lat="41.602364000" lon="1.737919000">
        <ele>604.80</ele>
        <time>2013-03-24T10:41:53Z</time>
      </trkpt>
      <trkpt lat="41.602174000" lon="1.737750000">
        <ele>605.50</ele>
        <time>2013-03-24T10:41:57Z</time>
      </trkpt>
      <trkpt lat="41.602177000" lon="1.737742000">
        <ele>605.50</ele>
        <time>2013-03-24T10:41:57Z</time>
      </trkpt>
      <trkpt lat="41.602177000" lon="1.737742000">
        <ele>605.50</ele>
        <time>2013-03-24T11:40:23Z</time>
      </trkpt>
      <trkpt lat="41.602139000" lon="1.737739000">
        <ele>605.10</ele>
        <time>2013-03-24T11:40:23Z</time>
      </trkpt>
      <trkpt lat="41.602024000" lon="1.737694000">
        <ele>605.10</ele>
        <time>2013-03-24T11:40:23Z</time>
      </trkpt>
      <trkpt lat="41.601891000" lon="1.737583000">
        <ele>605.10</ele>
        <time>2013-03-24T11:40:23Z</time>
      </trkpt>
      <trkpt lat="41.602104000" lon="1.737574000">
        <ele>600.50</ele>
        <time>2013-03-24T11:42:48Z</time>
      </trkpt>
      <trkpt lat="41.602261000" lon="1.737699000">
        <ele>600.20</ele>
        <time>2013-03-24T11:43:00Z</time>
      </trkpt>
      <trkpt lat="41.602391000" lon="1.737903000">
        <ele>599.60</ele>
        <time>2013-03-24T11:43:10Z</time>
      </trkpt>
      <trkpt lat="41.602513000" lon="1.738095000">
        <ele>599.60</ele>
        <time>2013-03-24T11:43:19Z</time>
      </trkpt>
      <trkpt lat="41.602641000" lon="1.738286000">
        <ele>599.60</ele>
        <time>2013-03-24T11:43:28Z</time>
      </trkpt>
      <trkpt lat="41.602745000" lon="1.738472000">
        <ele>599.00</ele>
        <time>2013-03-24T11:43:35Z</time>
      </trkpt>
      <trkpt lat="41.602842000" lon="1.738698000">
        <ele>599.00</ele>
        <time>2013-03-24T11:43:42Z</time>
      </trkpt>
      <trkpt lat="41.602916000" lon="1.738943000">
        <ele>599.30</ele>
        <time>2013-03-24T11:43:47Z</time>
      </trkpt>
      <trkpt lat="41.602991000" lon="1.739172000">
        <ele>599.70</ele>
        <time>2013-03-24T11:43:54Z</time>
      </trkpt>
      <trkpt lat="41.603054000" lon="1.739435000">
        <ele>600.20</ele>
        <time>2013-03-24T11:44:01Z</time>
      </trkpt>
      <trkpt lat="41.603128000" lon="1.739687000">
        <ele>601.30</ele>
        <time>2013-03-24T11:44:08Z</time>
      </trkpt>
      <trkpt lat="41.603207000" lon="1.739939000">
        <ele>601.60</ele>
        <time>2013-03-24T11:44:15Z</time>
      </trkpt>
      <trkpt lat="41.603274000" lon="1.740171000">
        <ele>602.10</ele>
        <time>2013-03-24T11:44:20Z</time>
      </trkpt>
      <trkpt lat="41.603328000" lon="1.740431000">
        <ele>602.40</ele>
        <time>2013-03-24T11:44:27Z</time>
      </trkpt>
      <trkpt lat="41.603347000" lon="1.740691000">
        <ele>603.50</ele>
        <time>2013-03-24T11:44:34Z</time>
      </trkpt>
      <trkpt lat="41.603311000" lon="1.740953000">
        <ele>605.00</ele>
        <time>2013-03-24T11:44:41Z</time>
      </trkpt>
      <trkpt lat="41.603261000" lon="1.741188000">
        <ele>606.40</ele>
        <time>2013-03-24T11:44:48Z</time>
      </trkpt>
      <trkpt lat="41.603173000" lon="1.741395000">
        <ele>607.50</ele>
        <time>2013-03-24T11:44:53Z</time>
      </trkpt>
      <trkpt lat="41.603071000" lon="1.741606000">
        <ele>608.80</ele>
        <time>2013-03-24T11:45:00Z</time>
      </trkpt>
      <trkpt lat="41.602961000" lon="1.741806000">
        <ele>610.00</ele>
        <time>2013-03-24T11:45:05Z</time>
      </trkpt>
      <trkpt lat="41.602851000" lon="1.742030000">
        <ele>610.60</ele>
        <time>2013-03-24T11:45:12Z</time>
      </trkpt>
      <trkpt lat="41.602736000" lon="1.742271000">
        <ele>610.80</ele>
        <time>2013-03-24T11:45:19Z</time>
      </trkpt>
      <trkpt lat="41.602636000" lon="1.742478000">
        <ele>610.60</ele>
        <time>2013-03-24T11:45:24Z</time>
      </trkpt>
      <trkpt lat="41.602535000" lon="1.742682000">
        <ele>609.80</ele>
        <time>2013-03-24T11:45:30Z</time>
      </trkpt>
      <trkpt lat="41.602424000" lon="1.742917000">
        <ele>609.20</ele>
        <time>2013-03-24T11:45:35Z</time>
      </trkpt>
      <trkpt lat="41.602319000" lon="1.743122000">
        <ele>609.70</ele>
        <time>2013-03-24T11:45:40Z</time>
      </trkpt>
      <trkpt lat="41.602219000" lon="1.743326000">
        <ele>609.80</ele>
        <time>2013-03-24T11:45:45Z</time>
      </trkpt>
      <trkpt lat="41.602102000" lon="1.743564000">
        <ele>610.30</ele>
        <time>2013-03-24T11:45:51Z</time>
      </trkpt>
      <trkpt lat="41.601987000" lon="1.743792000">
        <ele>611.50</ele>
        <time>2013-03-24T11:45:56Z</time>
      </trkpt>
      <trkpt lat="41.601879000" lon="1.744002000">
        <ele>613.10</ele>
        <time>2013-03-24T11:46:01Z</time>
      </trkpt>
      <trkpt lat="41.601773000" lon="1.744208000">
        <ele>614.50</ele>
        <time>2013-03-24T11:46:08Z</time>
      </trkpt>
      <trkpt lat="41.601665000" lon="1.744417000">
        <ele>615.80</ele>
        <time>2013-03-24T11:46:13Z</time>
      </trkpt>
      <trkpt lat="41.601564000" lon="1.744665000">
        <ele>617.20</ele>
        <time>2013-03-24T11:46:20Z</time>
      </trkpt>
      <trkpt lat="41.601505000" lon="1.744896000">
        <ele>617.90</ele>
        <time>2013-03-24T11:46:24Z</time>
      </trkpt>
      <trkpt lat="41.601484000" lon="1.745165000">
        <ele>618.60</ele>
        <time>2013-03-24T11:46:29Z</time>
      </trkpt>
      <trkpt lat="41.601502000" lon="1.745420000">
        <ele>618.90</ele>
        <time>2013-03-24T11:46:34Z</time>
      </trkpt>
      <trkpt lat="41.601531000" lon="1.745698000">
        <ele>618.40</ele>
        <time>2013-03-24T11:46:39Z</time>
      </trkpt>
      <trkpt lat="41.601569000" lon="1.745956000">
        <ele>617.30</ele>
        <time>2013-03-24T11:46:43Z</time>
      </trkpt>
      <trkpt lat="41.601603000" lon="1.746269000">
        <ele>616.00</ele>
        <time>2013-03-24T11:46:48Z</time>
      </trkpt>
      <trkpt lat="41.601622000" lon="1.746543000">
        <ele>614.70</ele>
        <time>2013-03-24T11:46:50Z</time>
      </trkpt>
      <trkpt lat="41.601646000" lon="1.746857000">
        <ele>612.50</ele>
        <time>2013-03-24T11:46:53Z</time>
      </trkpt>
      <trkpt lat="41.601681000" lon="1.747202000">
        <ele>609.70</ele>
        <time>2013-03-24T11:46:57Z</time>
      </trkpt>
      <trkpt lat="41.601730000" lon="1.747555000">
        <ele>608.40</ele>
        <time>2013-03-24T11:47:00Z</time>
      </trkpt>
      <trkpt lat="41.601827000" lon="1.747885000">
        <ele>608.90</ele>
        <time>2013-03-24T11:47:02Z</time>
      </trkpt>
      <trkpt lat="41.601947000" lon="1.748171000">
        <ele>608.50</ele>
        <time>2013-03-24T11:47:05Z</time>
      </trkpt>
      <trkpt lat="41.602110000" lon="1.748410000">
        <ele>607.00</ele>
        <time>2013-03-24T11:47:09Z</time>
      </trkpt>
      <trkpt lat="41.602331000" lon="1.748573000">
        <ele>603.60</ele>
        <time>2013-03-24T11:47:11Z</time>
      </trkpt>
      <trkpt lat="41.602573000" lon="1.748682000">
        <ele>602.20</ele>
        <time>2013-03-24T11:47:14Z</time>
      </trkpt>
      <trkpt lat="41.602822000" lon="1.748783000">
        <ele>599.50</ele>
        <time>2013-03-24T11:47:18Z</time>
      </trkpt>
      <trkpt lat="41.603045000" lon="1.748940000">
        <ele>599.70</ele>
        <time>2013-03-24T11:47:21Z</time>
      </trkpt>
      <trkpt lat="41.603205000" lon="1.749183000">
        <ele>600.10</ele>
        <time>2013-03-24T11:47:23Z</time>
      </trkpt>
      <trkpt lat="41.603272000" lon="1.749473000">
        <ele>600.30</ele>
        <time>2013-03-24T11:47:26Z</time>
      </trkpt>
      <trkpt lat="41.603259000" lon="1.749764000">
        <ele>600.80</ele>
        <time>2013-03-24T11:47:30Z</time>
      </trkpt>
      <trkpt lat="41.603213000" lon="1.750024000">
        <ele>602.20</ele>
        <time>2013-03-24T11:47:33Z</time>
      </trkpt>
      <trkpt lat="41.603158000" lon="1.750319000">
        <ele>604.20</ele>
        <time>2013-03-24T11:47:37Z</time>
      </trkpt>
      <trkpt lat="41.603101000" lon="1.750604000">
        <ele>605.20</ele>
        <time>2013-03-24T11:47:40Z</time>
      </trkpt>
      <trkpt lat="41.603035000" lon="1.750868000">
        <ele>606.00</ele>
        <time>2013-03-24T11:47:44Z</time>
      </trkpt>
      <trkpt lat="41.602945000" lon="1.751141000">
        <ele>606.40</ele>
        <time>2013-03-24T11:47:49Z</time>
      </trkpt>
      <trkpt lat="41.602809000" lon="1.751400000">
        <ele>606.40</ele>
        <time>2013-03-24T11:47:53Z</time>
      </trkpt>
      <trkpt lat="41.602668000" lon="1.751615000">
        <ele>607.50</ele>
        <time>2013-03-24T11:47:56Z</time>
      </trkpt>
      <trkpt lat="41.602531000" lon="1.751790000">
        <ele>608.90</ele>
        <time>2013-03-24T11:48:01Z</time>
      </trkpt>
      <trkpt lat="41.602373000" lon="1.751968000">
        <ele>610.30</ele>
        <time>2013-03-24T11:48:05Z</time>
      </trkpt>
      <trkpt lat="41.602234000" lon="1.752151000">
        <ele>611.10</ele>
        <time>2013-03-24T11:48:10Z</time>
      </trkpt>
      <trkpt lat="41.602101000" lon="1.752326000">
        <ele>612.60</ele>
        <time>2013-03-24T11:48:15Z</time>
      </trkpt>
      <trkpt lat="41.601957000" lon="1.752484000">
        <ele>614.10</ele>
        <time>2013-03-24T11:48:20Z</time>
      </trkpt>
      <trkpt lat="41.601830000" lon="1.752671000">
        <ele>614.90</ele>
        <time>2013-03-24T11:48:26Z</time>
      </trkpt>
      <trkpt lat="41.601680000" lon="1.752839000">
        <ele>616.80</ele>
        <time>2013-03-24T11:48:31Z</time>
      </trkpt>
      <trkpt lat="41.601541000" lon="1.753005000">
        <ele>618.50</ele>
        <time>2013-03-24T11:48:36Z</time>
      </trkpt>
      <trkpt lat="41.601408000" lon="1.753176000">
        <ele>619.80</ele>
        <time>2013-03-24T11:48:41Z</time>
      </trkpt>
      <trkpt lat="41.601300000" lon="1.753396000">
        <ele>621.10</ele>
        <time>2013-03-24T11:48:45Z</time>
      </trkpt>
      <trkpt lat="41.601224000" lon="1.753626000">
        <ele>621.90</ele>
        <time>2013-03-24T11:48:50Z</time>
      </trkpt>
      <trkpt lat="41.601172000" lon="1.753883000">
        <ele>622.40</ele>
        <time>2013-03-24T11:48:55Z</time>
      </trkpt>
      <trkpt lat="41.601126000" lon="1.754169000">
        <ele>622.20</ele>
        <time>2013-03-24T11:49:00Z</time>
      </trkpt>
      <trkpt lat="41.601083000" lon="1.754428000">
        <ele>621.90</ele>
        <time>2013-03-24T11:49:04Z</time>
      </trkpt>
      <trkpt lat="41.601036000" lon="1.754700000">
        <ele>621.50</ele>
        <time>2013-03-24T11:49:09Z</time>
      </trkpt>
      <trkpt lat="41.600997000" lon="1.754974000">
        <ele>621.60</ele>
        <time>2013-03-24T11:49:13Z</time>
      </trkpt>
      <trkpt lat="41.600952000" lon="1.755234000">
        <ele>622.30</ele>
        <time>2013-03-24T11:49:16Z</time>
      </trkpt>
      <trkpt lat="41.600905000" lon="1.755499000">
        <ele>622.70</ele>
        <time>2013-03-24T11:49:21Z</time>
      </trkpt>
      <trkpt lat="41.600859000" lon="1.755754000">
        <ele>623.70</ele>
        <time>2013-03-24T11:49:25Z</time>
      </trkpt>
      <trkpt lat="41.600811000" lon="1.756010000">
        <ele>624.00</ele>
        <time>2013-03-24T11:49:28Z</time>
      </trkpt>
      <trkpt lat="41.600768000" lon="1.756259000">
        <ele>624.60</ele>
        <time>2013-03-24T11:49:32Z</time>
      </trkpt>
      <trkpt lat="41.600725000" lon="1.756507000">
        <ele>624.80</ele>
        <time>2013-03-24T11:49:37Z</time>
      </trkpt>
      <trkpt lat="41.600688000" lon="1.756753000">
        <ele>625.60</ele>
        <time>2013-03-24T11:49:41Z</time>
      </trkpt>
      <trkpt lat="41.600660000" lon="1.756999000">
        <ele>625.60</ele>
        <time>2013-03-24T11:49:44Z</time>
      </trkpt>
      <trkpt lat="41.600668000" lon="1.757243000">
        <ele>626.10</ele>
        <time>2013-03-24T11:49:49Z</time>
      </trkpt>
      <trkpt lat="41.600706000" lon="1.757488000">
        <ele>626.10</ele>
        <time>2013-03-24T11:49:53Z</time>
      </trkpt>
      <trkpt lat="41.600787000" lon="1.757745000">
        <ele>625.60</ele>
        <time>2013-03-24T11:49:56Z</time>
      </trkpt>
      <trkpt lat="41.600886000" lon="1.757963000">
        <ele>624.20</ele>
        <time>2013-03-24T11:50:00Z</time>
      </trkpt>
      <trkpt lat="41.600998000" lon="1.758216000">
        <ele>622.30</ele>
        <time>2013-03-24T11:50:03Z</time>
      </trkpt>
      <trkpt lat="41.601129000" lon="1.758497000">
        <ele>619.70</ele>
        <time>2013-03-24T11:50:05Z</time>
      </trkpt>
      <trkpt lat="41.601221000" lon="1.758707000">
        <ele>618.60</ele>
        <time>2013-03-24T11:50:07Z</time>
      </trkpt>
      <trkpt lat="41.601317000" lon="1.758927000">
        <ele>617.10</ele>
        <time>2013-03-24T11:50:10Z</time>
      </trkpt>
      <trkpt lat="41.601415000" lon="1.759153000">
        <ele>614.80</ele>
        <time>2013-03-24T11:50:12Z</time>
      </trkpt>
      <trkpt lat="41.601497000" lon="1.759401000">
        <ele>613.60</ele>
        <time>2013-03-24T11:50:14Z</time>
      </trkpt>
      <trkpt lat="41.601538000" lon="1.759654000">
        <ele>613.50</ele>
        <time>2013-03-24T11:50:15Z</time>
      </trkpt>
      <trkpt lat="41.601544000" lon="1.759901000">
        <ele>613.70</ele>
        <time>2013-03-24T11:50:17Z</time>
      </trkpt>
      <trkpt lat="41.601495000" lon="1.760239000">
        <ele>615.20</ele>
        <time>2013-03-24T11:50:21Z</time>
      </trkpt>
      <trkpt lat="41.601418000" lon="1.760536000">
        <ele>616.10</ele>
        <time>2013-03-24T11:50:24Z</time>
      </trkpt>
      <trkpt lat="41.601338000" lon="1.760800000">
        <ele>617.00</ele>
        <time>2013-03-24T11:50:26Z</time>
      </trkpt>
      <trkpt lat="41.601260000" lon="1.761046000">
        <ele>618.10</ele>
        <time>2013-03-24T11:50:29Z</time>
      </trkpt>
      <trkpt lat="41.601189000" lon="1.761276000">
        <ele>618.60</ele>
        <time>2013-03-24T11:50:33Z</time>
      </trkpt>
      <trkpt lat="41.601107000" lon="1.761574000">
        <ele>618.90</ele>
        <time>2013-03-24T11:50:36Z</time>
      </trkpt>
      <trkpt lat="41.601025000" lon="1.761846000">
        <ele>619.50</ele>
        <time>2013-03-24T11:50:40Z</time>
      </trkpt>
      <trkpt lat="41.600945000" lon="1.762103000">
        <ele>620.50</ele>
        <time>2013-03-24T11:50:45Z</time>
      </trkpt>
      <trkpt lat="41.600879000" lon="1.762352000">
        <ele>621.40</ele>
        <time>2013-03-24T11:50:48Z</time>
      </trkpt>
      <trkpt lat="41.600813000" lon="1.762577000">
        <ele>621.70</ele>
        <time>2013-03-24T11:50:52Z</time>
      </trkpt>
      <trkpt lat="41.600746000" lon="1.762809000">
        <ele>622.50</ele>
        <time>2013-03-24T11:50:57Z</time>
      </trkpt>
      <trkpt lat="41.600678000" lon="1.763052000">
        <ele>622.90</ele>
        <time>2013-03-24T11:51:01Z</time>
      </trkpt>
      <trkpt lat="41.600598000" lon="1.763274000">
        <ele>623.50</ele>
        <time>2013-03-24T11:51:04Z</time>
      </trkpt>
      <trkpt lat="41.600484000" lon="1.763473000">
        <ele>623.90</ele>
        <time>2013-03-24T11:51:09Z</time>
      </trkpt>
      <trkpt lat="41.600325000" lon="1.763673000">
        <ele>624.60</ele>
        <time>2013-03-24T11:51:13Z</time>
      </trkpt>
      <trkpt lat="41.600156000" lon="1.763861000">
        <ele>625.50</ele>
        <time>2013-03-24T11:51:18Z</time>
      </trkpt>
      <trkpt lat="41.599994000" lon="1.764054000">
        <ele>626.40</ele>
        <time>2013-03-24T11:51:23Z</time>
      </trkpt>
      <trkpt lat="41.599861000" lon="1.764283000">
        <ele>626.60</ele>
        <time>2013-03-24T11:51:29Z</time>
      </trkpt>
      <trkpt lat="41.599760000" lon="1.764495000">
        <ele>626.10</ele>
        <time>2013-03-24T11:51:32Z</time>
      </trkpt>
      <trkpt lat="41.599674000" lon="1.764768000">
        <ele>624.70</ele>
        <time>2013-03-24T11:51:37Z</time>
      </trkpt>
      <trkpt lat="41.599615000" lon="1.765020000">
        <ele>622.80</ele>
        <time>2013-03-24T11:51:39Z</time>
      </trkpt>
      <trkpt lat="41.599546000" lon="1.765309000">
        <ele>620.90</ele>
        <time>2013-03-24T11:51:42Z</time>
      </trkpt>
      <trkpt lat="41.599448000" lon="1.765624000">
        <ele>619.00</ele>
        <time>2013-03-24T11:51:46Z</time>
      </trkpt>
      <trkpt lat="41.599297000" lon="1.765903000">
        <ele>617.50</ele>
        <time>2013-03-24T11:51:48Z</time>
      </trkpt>
      <trkpt lat="41.599102000" lon="1.766120000">
        <ele>617.00</ele>
        <time>2013-03-24T11:51:51Z</time>
      </trkpt>
      <trkpt lat="41.598881000" lon="1.766251000">
        <ele>616.90</ele>
        <time>2013-03-24T11:51:55Z</time>
      </trkpt>
      <trkpt lat="41.598639000" lon="1.766335000">
        <ele>615.20</ele>
        <time>2013-03-24T11:51:58Z</time>
      </trkpt>
      <trkpt lat="41.598380000" lon="1.766401000">
        <ele>613.90</ele>
        <time>2013-03-24T11:52:00Z</time>
      </trkpt>
      <trkpt lat="41.598201000" lon="1.766449000">
        <ele>612.90</ele>
        <time>2013-03-24T11:52:02Z</time>
      </trkpt>
      <trkpt lat="41.598018000" lon="1.766500000">
        <ele>611.60</ele>
        <time>2013-03-24T11:52:05Z</time>
      </trkpt>
      <trkpt lat="41.597836000" lon="1.766553000">
        <ele>610.30</ele>
        <time>2013-03-24T11:52:07Z</time>
      </trkpt>
      <trkpt lat="41.597654000" lon="1.766613000">
        <ele>609.20</ele>
        <time>2013-03-24T11:52:09Z</time>
      </trkpt>
      <trkpt lat="41.597467000" lon="1.766674000">
        <ele>608.60</ele>
        <time>2013-03-24T11:52:10Z</time>
      </trkpt>
      <trkpt lat="41.597279000" lon="1.766731000">
        <ele>607.50</ele>
        <time>2013-03-24T11:52:12Z</time>
      </trkpt>
      <trkpt lat="41.597091000" lon="1.766789000">
        <ele>607.30</ele>
        <time>2013-03-24T11:52:14Z</time>
      </trkpt>
      <trkpt lat="41.596908000" lon="1.766852000">
        <ele>607.10</ele>
        <time>2013-03-24T11:52:17Z</time>
      </trkpt>
      <trkpt lat="41.596729000" lon="1.766915000">
        <ele>606.80</ele>
        <time>2013-03-24T11:52:19Z</time>
      </trkpt>
      <trkpt lat="41.596554000" lon="1.766989000">
        <ele>606.10</ele>
        <time>2013-03-24T11:52:21Z</time>
      </trkpt>
      <trkpt lat="41.596392000" lon="1.767110000">
        <ele>605.40</ele>
        <time>2013-03-24T11:52:23Z</time>
      </trkpt>
      <trkpt lat="41.596255000" lon="1.767273000">
        <ele>604.70</ele>
        <time>2013-03-24T11:52:24Z</time>
      </trkpt>
      <trkpt lat="41.596147000" lon="1.767479000">
        <ele>602.40</ele>
        <time>2013-03-24T11:52:26Z</time>
      </trkpt>
      <trkpt lat="41.596044000" lon="1.767704000">
        <ele>600.90</ele>
        <time>2013-03-24T11:52:28Z</time>
      </trkpt>
      <trkpt lat="41.595940000" lon="1.767926000">
        <ele>600.50</ele>
        <time>2013-03-24T11:52:31Z</time>
      </trkpt>
      <trkpt lat="41.595852000" lon="1.768149000">
        <ele>599.40</ele>
        <time>2013-03-24T11:52:33Z</time>
      </trkpt>
      <trkpt lat="41.595713000" lon="1.768412000">
        <ele>599.70</ele>
        <time>2013-03-24T11:52:35Z</time>
      </trkpt>
      <trkpt lat="41.595567000" lon="1.768561000">
        <ele>600.00</ele>
        <time>2013-03-24T11:52:38Z</time>
      </trkpt>
      <trkpt lat="41.595403000" lon="1.768683000">
        <ele>599.30</ele>
        <time>2013-03-24T11:52:43Z</time>
      </trkpt>
      <trkpt lat="41.595257000" lon="1.768804000">
        <ele>600.10</ele>
        <time>2013-03-24T11:52:59Z</time>
      </trkpt>
      <trkpt lat="41.595064000" lon="1.768854000">
        <ele>599.80</ele>
        <time>2013-03-24T11:53:10Z</time>
      </trkpt>
      <trkpt lat="41.594859000" lon="1.768941000">
        <ele>599.70</ele>
        <time>2013-03-24T11:53:24Z</time>
      </trkpt>
      <trkpt lat="41.594657000" lon="1.768987000">
        <ele>599.10</ele>
        <time>2013-03-24T11:53:29Z</time>
      </trkpt>
      <trkpt lat="41.594478000" lon="1.769075000">
        <ele>596.40</ele>
        <time>2013-03-24T11:53:34Z</time>
      </trkpt>
      <trkpt lat="41.594262000" lon="1.769132000">
        <ele>595.00</ele>
        <time>2013-03-24T11:53:39Z</time>
      </trkpt>
      <trkpt lat="41.594027000" lon="1.769228000">
        <ele>592.60</ele>
        <time>2013-03-24T11:53:43Z</time>
      </trkpt>
      <trkpt lat="41.593836000" lon="1.769356000">
        <ele>591.00</ele>
        <time>2013-03-24T11:53:46Z</time>
      </trkpt>
      <trkpt lat="41.593674000" lon="1.769467000">
        <ele>589.30</ele>
        <time>2013-03-24T11:53:48Z</time>
      </trkpt>
      <trkpt lat="41.593510000" lon="1.769608000">
        <ele>588.40</ele>
        <time>2013-03-24T11:53:53Z</time>
      </trkpt>
      <trkpt lat="41.593337000" lon="1.769767000">
        <ele>587.00</ele>
        <time>2013-03-24T11:53:57Z</time>
      </trkpt>
      <trkpt lat="41.593148000" lon="1.769910000">
        <ele>585.90</ele>
        <time>2013-03-24T11:54:00Z</time>
      </trkpt>
      <trkpt lat="41.592992000" lon="1.770135000">
        <ele>585.00</ele>
        <time>2013-03-24T11:54:05Z</time>
      </trkpt>
      <trkpt lat="41.592817000" lon="1.770322000">
        <ele>584.70</ele>
        <time>2013-03-24T11:54:09Z</time>
      </trkpt>
      <trkpt lat="41.592620000" lon="1.770484000">
        <ele>583.80</ele>
        <time>2013-03-24T11:54:12Z</time>
      </trkpt>
      <trkpt lat="41.592468000" lon="1.770642000">
        <ele>582.30</ele>
        <time>2013-03-24T11:54:16Z</time>
      </trkpt>
      <trkpt lat="41.592315000" lon="1.770809000">
        <ele>580.40</ele>
        <time>2013-03-24T11:54:21Z</time>
      </trkpt>
      <trkpt lat="41.592172000" lon="1.770983000">
        <ele>578.10</ele>
        <time>2013-03-24T11:54:26Z</time>
      </trkpt>
      <trkpt lat="41.592008000" lon="1.771154000">
        <ele>575.80</ele>
        <time>2013-03-24T11:54:33Z</time>
      </trkpt>
      <trkpt lat="41.591824000" lon="1.771314000">
        <ele>571.50</ele>
        <time>2013-03-24T11:54:40Z</time>
      </trkpt>
      <trkpt lat="41.591640000" lon="1.771528000">
        <ele>569.70</ele>
        <time>2013-03-24T11:54:44Z</time>
      </trkpt>
      <trkpt lat="41.591497000" lon="1.771718000">
        <ele>567.80</ele>
        <time>2013-03-24T11:54:47Z</time>
      </trkpt>
      <trkpt lat="41.591340000" lon="1.771864000">
        <ele>566.10</ele>
        <time>2013-03-24T11:54:49Z</time>
      </trkpt>
      <trkpt lat="41.591158000" lon="1.772042000">
        <ele>564.60</ele>
        <time>2013-03-24T11:54:54Z</time>
      </trkpt>
      <trkpt lat="41.590971000" lon="1.772197000">
        <ele>562.60</ele>
        <time>2013-03-24T11:54:59Z</time>
      </trkpt>
      <trkpt lat="41.590788000" lon="1.772316000">
        <ele>561.80</ele>
        <time>2013-03-24T11:55:03Z</time>
      </trkpt>
      <trkpt lat="41.590635000" lon="1.772434000">
        <ele>560.50</ele>
        <time>2013-03-24T11:55:08Z</time>
      </trkpt>
      <trkpt lat="41.590319000" lon="1.772755000">
        <ele>557.20</ele>
        <time>2013-03-24T11:55:15Z</time>
      </trkpt>
      <trkpt lat="41.590139000" lon="1.772938000">
        <ele>556.50</ele>
        <time>2013-03-24T11:55:20Z</time>
      </trkpt>
      <trkpt lat="41.589940000" lon="1.773072000">
        <ele>554.90</ele>
        <time>2013-03-24T11:55:24Z</time>
      </trkpt>
      <trkpt lat="41.589732000" lon="1.773190000">
        <ele>554.20</ele>
        <time>2013-03-24T11:55:27Z</time>
      </trkpt>
      <trkpt lat="41.589564000" lon="1.773315000">
        <ele>552.10</ele>
        <time>2013-03-24T11:55:31Z</time>
      </trkpt>
      <trkpt lat="41.589391000" lon="1.773455000">
        <ele>547.60</ele>
        <time>2013-03-24T11:55:36Z</time>
      </trkpt>
      <trkpt lat="41.589267000" lon="1.773672000">
        <ele>545.20</ele>
        <time>2013-03-24T11:55:41Z</time>
      </trkpt>
      <trkpt lat="41.589193000" lon="1.773803000">
        <ele>545.00</ele>
        <time>2013-03-24T11:57:08Z</time>
      </trkpt>
      <trkpt lat="41.589053000" lon="1.773918000">
        <ele>544.50</ele>
        <time>2013-03-24T11:58:02Z</time>
      </trkpt>
      <trkpt lat="41.589192000" lon="1.773769000">
        <ele>544.20</ele>
        <time>2013-03-24T11:58:11Z</time>
      </trkpt>
      <trkpt lat="41.589354000" lon="1.773632000">
        <ele>545.60</ele>
        <time>2013-03-24T11:58:16Z</time>
      </trkpt>
      <trkpt lat="41.589529000" lon="1.773521000">
        <ele>546.80</ele>
        <time>2013-03-24T11:58:23Z</time>
      </trkpt>
      <trkpt lat="41.589711000" lon="1.773398000">
        <ele>547.80</ele>
        <time>2013-03-24T11:58:32Z</time>
      </trkpt>
      <trkpt lat="41.589888000" lon="1.773293000">
        <ele>548.60</ele>
        <time>2013-03-24T11:58:39Z</time>
      </trkpt>
      <trkpt lat="41.590068000" lon="1.773191000">
        <ele>549.80</ele>
        <time>2013-03-24T11:58:46Z</time>
      </trkpt>
      <trkpt lat="41.590220000" lon="1.773039000">
        <ele>551.30</ele>
        <time>2013-03-24T11:58:56Z</time>
      </trkpt>
      <trkpt lat="41.590357000" lon="1.772868000">
        <ele>553.10</ele>
        <time>2013-03-24T11:59:07Z</time>
      </trkpt>
      <trkpt lat="41.590500000" lon="1.772708000">
        <ele>554.00</ele>
        <time>2013-03-24T11:59:15Z</time>
      </trkpt>
      <trkpt lat="41.590667000" lon="1.772601000">
        <ele>554.40</ele>
        <time>2013-03-24T11:59:22Z</time>
      </trkpt>
      <trkpt lat="41.590853000" lon="1.772551000">
        <ele>556.20</ele>
        <time>2013-03-24T11:59:29Z</time>
      </trkpt>
      <trkpt lat="41.591052000" lon="1.772515000">
        <ele>556.40</ele>
        <time>2013-03-24T11:59:36Z</time>
      </trkpt>
      <trkpt lat="41.591244000" lon="1.772427000">
        <ele>557.10</ele>
        <time>2013-03-24T11:59:43Z</time>
      </trkpt>
      <trkpt lat="41.591427000" lon="1.772289000">
        <ele>557.40</ele>
        <time>2013-03-24T11:59:50Z</time>
      </trkpt>
      <trkpt lat="41.591597000" lon="1.772191000">
        <ele>557.40</ele>
        <time>2013-03-24T11:59:57Z</time>
      </trkpt>
      <trkpt lat="41.591763000" lon="1.772023000">
        <ele>556.40</ele>
        <time>2013-03-24T12:00:02Z</time>
      </trkpt>
      <trkpt lat="41.591928000" lon="1.771872000">
        <ele>555.80</ele>
        <time>2013-03-24T12:00:08Z</time>
      </trkpt>
      <trkpt lat="41.592100000" lon="1.771699000">
        <ele>554.90</ele>
        <time>2013-03-24T12:00:13Z</time>
      </trkpt>
      <trkpt lat="41.592267000" lon="1.771533000">
        <ele>554.00</ele>
        <time>2013-03-24T12:00:18Z</time>
      </trkpt>
      <trkpt lat="41.592430000" lon="1.771412000">
        <ele>553.30</ele>
        <time>2013-03-24T12:00:22Z</time>
      </trkpt>
      <trkpt lat="41.592607000" lon="1.771318000">
        <ele>552.80</ele>
        <time>2013-03-24T12:00:25Z</time>
      </trkpt>
      <trkpt lat="41.592818000" lon="1.771230000">
        <ele>552.50</ele>
        <time>2013-03-24T12:00:30Z</time>
      </trkpt>
      <trkpt lat="41.592998000" lon="1.771179000">
        <ele>552.10</ele>
        <time>2013-03-24T12:00:34Z</time>
      </trkpt>
      <trkpt lat="41.593219000" lon="1.771126000">
        <ele>552.10</ele>
        <time>2013-03-24T12:00:39Z</time>
      </trkpt>
      <trkpt lat="41.593403000" lon="1.771051000">
        <ele>551.40</ele>
        <time>2013-03-24T12:00:44Z</time>
      </trkpt>
      <trkpt lat="41.593595000" lon="1.770998000">
        <ele>551.40</ele>
        <time>2013-03-24T12:00:48Z</time>
      </trkpt>
      <trkpt lat="41.593799000" lon="1.771011000">
        <ele>551.30</ele>
        <time>2013-03-24T12:00:53Z</time>
      </trkpt>
      <trkpt lat="41.593777000" lon="1.771234000">
        <ele>552.60</ele>
        <time>2013-03-24T12:00:58Z</time>
      </trkpt>
      <trkpt lat="41.593615000" lon="1.771349000">
        <ele>553.70</ele>
        <time>2013-03-24T12:01:02Z</time>
      </trkpt>
      <trkpt lat="41.593431000" lon="1.771469000">
        <ele>554.40</ele>
        <time>2013-03-24T12:01:09Z</time>
      </trkpt>
      <trkpt lat="41.593237000" lon="1.771588000">
        <ele>555.80</ele>
        <time>2013-03-24T12:01:14Z</time>
      </trkpt>
      <trkpt lat="41.593039000" lon="1.771677000">
        <ele>556.80</ele>
        <time>2013-03-24T12:01:21Z</time>
      </trkpt>
      <trkpt lat="41.592861000" lon="1.771828000">
        <ele>556.90</ele>
        <time>2013-03-24T12:01:26Z</time>
      </trkpt>
      <trkpt lat="41.592698000" lon="1.771939000">
        <ele>557.40</ele>
        <time>2013-03-24T12:01:31Z</time>
      </trkpt>
      <trkpt lat="41.592614000" lon="1.772181000">
        <ele>557.90</ele>
        <time>2013-03-24T12:01:38Z</time>
      </trkpt>
      <trkpt lat="41.592716000" lon="1.772419000">
        <ele>558.80</ele>
        <time>2013-03-24T12:01:43Z</time>
      </trkpt>
      <trkpt lat="41.592587000" lon="1.772587000">
        <ele>559.90</ele>
        <time>2013-03-24T12:01:49Z</time>
      </trkpt>
      <trkpt lat="41.592394000" lon="1.772691000">
        <ele>561.40</ele>
        <time>2013-03-24T12:01:56Z</time>
      </trkpt>
      <trkpt lat="41.592242000" lon="1.772884000">
        <ele>562.30</ele>
        <time>2013-03-24T12:02:01Z</time>
      </trkpt>
      <trkpt lat="41.592149000" lon="1.773132000">
        <ele>562.30</ele>
        <time>2013-03-24T12:02:08Z</time>
      </trkpt>
      <trkpt lat="41.592089000" lon="1.773382000">
        <ele>563.40</ele>
        <time>2013-03-24T12:02:13Z</time>
      </trkpt>
      <trkpt lat="41.592050000" lon="1.773644000">
        <ele>562.50</ele>
        <time>2013-03-24T12:02:20Z</time>
      </trkpt>
      <trkpt lat="41.591915000" lon="1.773825000">
        <ele>563.00</ele>
        <time>2013-03-24T12:02:27Z</time>
      </trkpt>
      <trkpt lat="41.591823000" lon="1.774042000">
        <ele>563.70</ele>
        <time>2013-03-24T12:02:34Z</time>
      </trkpt>
      <trkpt lat="41.591909000" lon="1.774274000">
        <ele>563.60</ele>
        <time>2013-03-24T12:02:39Z</time>
      </trkpt>
      <trkpt lat="41.592051000" lon="1.774420000">
        <ele>562.90</ele>
        <time>2013-03-24T12:02:44Z</time>
      </trkpt>
      <trkpt lat="41.592244000" lon="1.774495000">
        <ele>561.50</ele>
        <time>2013-03-24T12:02:50Z</time>
      </trkpt>
      <trkpt lat="41.592417000" lon="1.774596000">
        <ele>560.70</ele>
        <time>2013-03-24T12:02:53Z</time>
      </trkpt>
      <trkpt lat="41.592460000" lon="1.774853000">
        <ele>561.40</ele>
        <time>2013-03-24T12:02:58Z</time>
      </trkpt>
      <trkpt lat="41.592328000" lon="1.775021000">
        <ele>562.20</ele>
        <time>2013-03-24T12:03:04Z</time>
      </trkpt>
      <trkpt lat="41.592128000" lon="1.775103000">
        <ele>563.30</ele>
        <time>2013-03-24T12:03:09Z</time>
      </trkpt>
      <trkpt lat="41.591926000" lon="1.775165000">
        <ele>561.70</ele>
        <time>2013-03-24T12:03:14Z</time>
      </trkpt>
      <trkpt lat="41.591708000" lon="1.775272000">
        <ele>559.80</ele>
        <time>2013-03-24T12:03:19Z</time>
      </trkpt>
      <trkpt lat="41.591546000" lon="1.775402000">
        <ele>557.80</ele>
        <time>2013-03-24T12:03:23Z</time>
      </trkpt>
      <trkpt lat="41.591348000" lon="1.775482000">
        <ele>555.60</ele>
        <time>2013-03-24T12:03:26Z</time>
      </trkpt>
      <trkpt lat="41.591130000" lon="1.775549000">
        <ele>553.70</ele>
        <time>2013-03-24T12:03:28Z</time>
      </trkpt>
      <trkpt lat="41.590894000" lon="1.775624000">
        <ele>551.80</ele>
        <time>2013-03-24T12:03:31Z</time>
      </trkpt>
      <trkpt lat="41.590647000" lon="1.775675000">
        <ele>550.20</ele>
        <time>2013-03-24T12:03:35Z</time>
      </trkpt>
      <trkpt lat="41.590435000" lon="1.775751000">
        <ele>549.80</ele>
        <time>2013-03-24T12:03:37Z</time>
      </trkpt>
      <trkpt lat="41.590234000" lon="1.775734000">
        <ele>548.20</ele>
        <time>2013-03-24T12:03:40Z</time>
      </trkpt>
      <trkpt lat="41.590015000" lon="1.775779000">
        <ele>545.40</ele>
        <time>2013-03-24T12:03:44Z</time>
      </trkpt>
      <trkpt lat="41.589779000" lon="1.775874000">
        <ele>543.20</ele>
        <time>2013-03-24T12:03:47Z</time>
      </trkpt>
      <trkpt lat="41.589540000" lon="1.775922000">
        <ele>542.10</ele>
        <time>2013-03-24T12:03:49Z</time>
      </trkpt>
      <trkpt lat="41.589380000" lon="1.776048000">
        <ele>541.10</ele>
        <time>2013-03-24T12:03:52Z</time>
      </trkpt>
      <trkpt lat="41.589241000" lon="1.776236000">
        <ele>538.70</ele>
        <time>2013-03-24T12:03:56Z</time>
      </trkpt>
      <trkpt lat="41.589042000" lon="1.776318000">
        <ele>536.50</ele>
        <time>2013-03-24T12:03:59Z</time>
      </trkpt>
      <trkpt lat="41.588874000" lon="1.776496000">
        <ele>535.00</ele>
        <time>2013-03-24T12:04:01Z</time>
      </trkpt>
      <trkpt lat="41.588712000" lon="1.776713000">
        <ele>533.40</ele>
        <time>2013-03-24T12:04:05Z</time>
      </trkpt>
      <trkpt lat="41.588550000" lon="1.776947000">
        <ele>532.00</ele>
        <time>2013-03-24T12:04:08Z</time>
      </trkpt>
      <trkpt lat="41.588404000" lon="1.777129000">
        <ele>531.30</ele>
        <time>2013-03-24T12:04:10Z</time>
      </trkpt>
      <trkpt lat="41.588188000" lon="1.777181000">
        <ele>528.80</ele>
        <time>2013-03-24T12:04:13Z</time>
      </trkpt>
      <trkpt lat="41.587966000" lon="1.777253000">
        <ele>527.20</ele>
        <time>2013-03-24T12:04:17Z</time>
      </trkpt>
      <trkpt lat="41.587739000" lon="1.777312000">
        <ele>525.70</ele>
        <time>2013-03-24T12:04:20Z</time>
      </trkpt>
      <trkpt lat="41.587507000" lon="1.777333000">
        <ele>524.30</ele>
        <time>2013-03-24T12:04:22Z</time>
      </trkpt>
      <trkpt lat="41.587282000" lon="1.777348000">
        <ele>522.60</ele>
        <time>2013-03-24T12:04:25Z</time>
      </trkpt>
      <trkpt lat="41.587079000" lon="1.777385000">
        <ele>521.90</ele>
        <time>2013-03-24T12:04:29Z</time>
      </trkpt>
      <trkpt lat="41.586890000" lon="1.777492000">
        <ele>521.00</ele>
        <time>2013-03-24T12:04:31Z</time>
      </trkpt>
      <trkpt lat="41.586699000" lon="1.777605000">
        <ele>519.20</ele>
        <time>2013-03-24T12:04:34Z</time>
      </trkpt>
      <trkpt lat="41.586509000" lon="1.777751000">
        <ele>517.70</ele>
        <time>2013-03-24T12:04:38Z</time>
      </trkpt>
      <trkpt lat="41.586327000" lon="1.777932000">
        <ele>515.40</ele>
        <time>2013-03-24T12:04:41Z</time>
      </trkpt>
      <trkpt lat="41.586142000" lon="1.778103000">
        <ele>514.10</ele>
        <time>2013-03-24T12:04:43Z</time>
      </trkpt>
      <trkpt lat="41.585940000" lon="1.778199000">
        <ele>512.20</ele>
        <time>2013-03-24T12:04:46Z</time>
      </trkpt>
      <trkpt lat="41.585761000" lon="1.778311000">
        <ele>511.50</ele>
        <time>2013-03-24T12:04:50Z</time>
      </trkpt>
      <trkpt lat="41.585621000" lon="1.778467000">
        <ele>510.30</ele>
        <time>2013-03-24T12:04:53Z</time>
      </trkpt>
      <trkpt lat="41.585469000" lon="1.778599000">
        <ele>509.70</ele>
        <time>2013-03-24T12:04:59Z</time>
      </trkpt>
      <trkpt lat="41.585331000" lon="1.778800000">
        <ele>504.60</ele>
        <time>2013-03-24T12:05:14Z</time>
      </trkpt>
      <trkpt lat="41.585150000" lon="1.778792000">
        <ele>502.80</ele>
        <time>2013-03-24T12:05:18Z</time>
      </trkpt>
      <trkpt lat="41.584960000" lon="1.778717000">
        <ele>500.10</ele>
        <time>2013-03-24T12:05:25Z</time>
      </trkpt>
      <trkpt lat="41.584822000" lon="1.778918000">
        <ele>498.00</ele>
        <time>2013-03-24T12:05:30Z</time>
      </trkpt>
      <trkpt lat="41.584803000" lon="1.779160000">
        <ele>494.80</ele>
        <time>2013-03-24T12:05:35Z</time>
      </trkpt>
      <trkpt lat="41.584771000" lon="1.779288000">
        <ele>492.10</ele>
        <time>2013-03-24T12:05:44Z</time>
      </trkpt>
      <trkpt lat="41.584648000" lon="1.779089000">
        <ele>489.60</ele>
        <time>2013-03-24T12:05:49Z</time>
      </trkpt>
      <trkpt lat="41.584553000" lon="1.778834000">
        <ele>488.60</ele>
        <time>2013-03-24T12:05:54Z</time>
      </trkpt>
      <trkpt lat="41.584364000" lon="1.778809000">
        <ele>486.40</ele>
        <time>2013-03-24T12:06:01Z</time>
      </trkpt>
      <trkpt lat="41.584187000" lon="1.778952000">
        <ele>485.40</ele>
        <time>2013-03-24T12:06:05Z</time>
      </trkpt>
      <trkpt lat="41.584012000" lon="1.779000000">
        <ele>484.90</ele>
        <time>2013-03-24T12:06:10Z</time>
      </trkpt>
      <trkpt lat="41.583796000" lon="1.778989000">
        <ele>484.70</ele>
        <time>2013-03-24T12:06:15Z</time>
      </trkpt>
      <trkpt lat="41.583603000" lon="1.779059000">
        <ele>484.30</ele>
        <time>2013-03-24T12:06:19Z</time>
      </trkpt>
      <trkpt lat="41.583414000" lon="1.779215000">
        <ele>483.60</ele>
        <time>2013-03-24T12:06:24Z</time>
      </trkpt>
      <trkpt lat="41.583227000" lon="1.779378000">
        <ele>483.30</ele>
        <time>2013-03-24T12:06:29Z</time>
      </trkpt>
      <trkpt lat="41.583056000" lon="1.779530000">
        <ele>482.80</ele>
        <time>2013-03-24T12:06:34Z</time>
      </trkpt>
      <trkpt lat="41.582899000" lon="1.779724000">
        <ele>482.40</ele>
        <time>2013-03-24T12:06:40Z</time>
      </trkpt>
      <trkpt lat="41.582790000" lon="1.779979000">
        <ele>482.10</ele>
        <time>2013-03-24T12:06:45Z</time>
      </trkpt>
      <trkpt lat="41.582680000" lon="1.780217000">
        <ele>481.60</ele>
        <time>2013-03-24T12:06:50Z</time>
      </trkpt>
      <trkpt lat="41.582591000" lon="1.780497000">
        <ele>481.30</ele>
        <time>2013-03-24T12:06:55Z</time>
      </trkpt>
      <trkpt lat="41.582430000" lon="1.780631000">
        <ele>481.80</ele>
        <time>2013-03-24T12:07:02Z</time>
      </trkpt>
      <trkpt lat="41.582285000" lon="1.780771000">
        <ele>480.90</ele>
        <time>2013-03-24T12:07:09Z</time>
      </trkpt>
      <trkpt lat="41.582270000" lon="1.781041000">
        <ele>481.00</ele>
        <time>2013-03-24T12:07:13Z</time>
      </trkpt>
      <trkpt lat="41.582249000" lon="1.781290000">
        <ele>483.10</ele>
        <time>2013-03-24T12:07:18Z</time>
      </trkpt>
      <trkpt lat="41.582303000" lon="1.781558000">
        <ele>485.80</ele>
        <time>2013-03-24T12:07:25Z</time>
      </trkpt>
      <trkpt lat="41.582427000" lon="1.781626000">
        <ele>489.20</ele>
        <time>2013-03-24T12:07:35Z</time>
      </trkpt>
      <trkpt lat="41.582603000" lon="1.781572000">
        <ele>490.70</ele>
        <time>2013-03-24T12:07:49Z</time>
      </trkpt>
      <trkpt lat="41.582770000" lon="1.781600000">
        <ele>491.00</ele>
        <time>2013-03-24T12:08:05Z</time>
      </trkpt>
      <trkpt lat="41.582868000" lon="1.781824000">
        <ele>490.60</ele>
        <time>2013-03-24T12:08:15Z</time>
      </trkpt>
      <trkpt lat="41.582938000" lon="1.782062000">
        <ele>490.30</ele>
        <time>2013-03-24T12:08:26Z</time>
      </trkpt>
      <trkpt lat="41.582987000" lon="1.782311000">
        <ele>490.10</ele>
        <time>2013-03-24T12:08:40Z</time>
      </trkpt>
      <trkpt lat="41.583040000" lon="1.782547000">
        <ele>490.00</ele>
        <time>2013-03-24T12:08:54Z</time>
      </trkpt>
      <trkpt lat="41.583128000" lon="1.782754000">
        <ele>490.20</ele>
        <time>2013-03-24T12:09:06Z</time>
      </trkpt>
      <trkpt lat="41.583288000" lon="1.782882000">
        <ele>490.40</ele>
        <time>2013-03-24T12:09:18Z</time>
      </trkpt>
      <trkpt lat="41.583461000" lon="1.783015000">
        <ele>490.20</ele>
        <time>2013-03-24T12:09:27Z</time>
      </trkpt>
      <trkpt lat="41.583603000" lon="1.783184000">
        <ele>489.90</ele>
        <time>2013-03-24T12:09:34Z</time>
      </trkpt>
      <trkpt lat="41.583626000" lon="1.783432000">
        <ele>489.10</ele>
        <time>2013-03-24T12:09:41Z</time>
      </trkpt>
      <trkpt lat="41.583485000" lon="1.783566000">
        <ele>489.80</ele>
        <time>2013-03-24T12:09:46Z</time>
      </trkpt>
      <trkpt lat="41.583296000" lon="1.783564000">
        <ele>490.10</ele>
        <time>2013-03-24T12:09:53Z</time>
      </trkpt>
      <trkpt lat="41.583098000" lon="1.783566000">
        <ele>491.10</ele>
        <time>2013-03-24T12:10:00Z</time>
      </trkpt>
      <trkpt lat="41.582902000" lon="1.783540000">
        <ele>491.50</ele>
        <time>2013-03-24T12:10:07Z</time>
      </trkpt>
      <trkpt lat="41.582687000" lon="1.783517000">
        <ele>491.90</ele>
        <time>2013-03-24T12:10:16Z</time>
      </trkpt>
      <trkpt lat="41.582492000" lon="1.783524000">
        <ele>492.10</ele>
        <time>2013-03-24T12:10:23Z</time>
      </trkpt>
      <trkpt lat="41.582311000" lon="1.783574000">
        <ele>493.30</ele>
        <time>2013-03-24T12:10:29Z</time>
      </trkpt>
      <trkpt lat="41.582146000" lon="1.783734000">
        <ele>494.00</ele>
        <time>2013-03-24T12:10:38Z</time>
      </trkpt>
      <trkpt lat="41.582144000" lon="1.784106000">
        <ele>494.70</ele>
        <time>2013-03-24T12:10:49Z</time>
      </trkpt>
      <trkpt lat="41.582259000" lon="1.784388000">
        <ele>493.40</ele>
        <time>2013-03-24T12:10:57Z</time>
      </trkpt>
      <trkpt lat="41.582418000" lon="1.784594000">
        <ele>491.50</ele>
        <time>2013-03-24T12:11:01Z</time>
      </trkpt>
      <trkpt lat="41.582555000" lon="1.784843000">
        <ele>489.70</ele>
        <time>2013-03-24T12:11:04Z</time>
      </trkpt>
      <trkpt lat="41.582413000" lon="1.785061000">
        <ele>488.60</ele>
        <time>2013-03-24T12:11:08Z</time>
      </trkpt>
      <trkpt lat="41.582216000" lon="1.785193000">
        <ele>488.00</ele>
        <time>2013-03-24T12:11:13Z</time>
      </trkpt>
      <trkpt lat="41.582077000" lon="1.785370000">
        <ele>486.70</ele>
        <time>2013-03-24T12:11:15Z</time>
      </trkpt>
      <trkpt lat="41.581957000" lon="1.785584000">
        <ele>486.00</ele>
        <time>2013-03-24T12:11:18Z</time>
      </trkpt>
      <trkpt lat="41.581915000" lon="1.785870000">
        <ele>486.80</ele>
        <time>2013-03-24T12:11:22Z</time>
      </trkpt>
      <trkpt lat="41.581994000" lon="1.786100000">
        <ele>488.60</ele>
        <time>2013-03-24T12:11:27Z</time>
      </trkpt>
      <trkpt lat="41.582118000" lon="1.786338000">
        <ele>489.10</ele>
        <time>2013-03-24T12:11:34Z</time>
      </trkpt>
      <trkpt lat="41.582282000" lon="1.786450000">
        <ele>490.50</ele>
        <time>2013-03-24T12:11:41Z</time>
      </trkpt>
      <trkpt lat="41.582465000" lon="1.786590000">
        <ele>491.10</ele>
        <time>2013-03-24T12:11:48Z</time>
      </trkpt>
      <trkpt lat="41.582634000" lon="1.786735000">
        <ele>491.50</ele>
        <time>2013-03-24T12:11:55Z</time>
      </trkpt>
      <trkpt lat="41.582699000" lon="1.786999000">
        <ele>490.40</ele>
        <time>2013-03-24T12:12:00Z</time>
      </trkpt>
      <trkpt lat="41.582711000" lon="1.787239000">
        <ele>490.30</ele>
        <time>2013-03-24T12:12:05Z</time>
      </trkpt>
      <trkpt lat="41.582691000" lon="1.787519000">
        <ele>490.20</ele>
        <time>2013-03-24T12:12:12Z</time>
      </trkpt>
      <trkpt lat="41.582638000" lon="1.787758000">
        <ele>491.80</ele>
        <time>2013-03-24T12:12:17Z</time>
      </trkpt>
      <trkpt lat="41.582571000" lon="1.788006000">
        <ele>495.20</ele>
        <time>2013-03-24T12:12:26Z</time>
      </trkpt>
      <trkpt lat="41.582524000" lon="1.788254000">
        <ele>498.70</ele>
        <time>2013-03-24T12:12:35Z</time>
      </trkpt>
      <trkpt lat="41.582382000" lon="1.788412000">
        <ele>502.30</ele>
        <time>2013-03-24T12:12:44Z</time>
      </trkpt>
      <trkpt lat="41.582234000" lon="1.788571000">
        <ele>504.30</ele>
        <time>2013-03-24T12:12:52Z</time>
      </trkpt>
      <trkpt lat="41.582107000" lon="1.788759000">
        <ele>505.90</ele>
        <time>2013-03-24T12:13:01Z</time>
      </trkpt>
      <trkpt lat="41.582041000" lon="1.788987000">
        <ele>507.30</ele>
        <time>2013-03-24T12:13:10Z</time>
      </trkpt>
      <trkpt lat="41.582059000" lon="1.789243000">
        <ele>509.30</ele>
        <time>2013-03-24T12:13:20Z</time>
      </trkpt>
      <trkpt lat="41.582077000" lon="1.789509000">
        <ele>511.30</ele>
        <time>2013-03-24T12:13:29Z</time>
      </trkpt>
      <trkpt lat="41.582163000" lon="1.789765000">
        <ele>512.40</ele>
        <time>2013-03-24T12:13:38Z</time>
      </trkpt>
      <trkpt lat="41.582098000" lon="1.790009000">
        <ele>511.50</ele>
        <time>2013-03-24T12:13:45Z</time>
      </trkpt>
      <trkpt lat="41.581899000" lon="1.790081000">
        <ele>512.40</ele>
        <time>2013-03-24T12:13:52Z</time>
      </trkpt>
      <trkpt lat="41.581674000" lon="1.790122000">
        <ele>510.60</ele>
        <time>2013-03-24T12:13:57Z</time>
      </trkpt>
      <trkpt lat="41.581467000" lon="1.790258000">
        <ele>508.80</ele>
        <time>2013-03-24T12:14:02Z</time>
      </trkpt>
      <trkpt lat="41.581320000" lon="1.790413000">
        <ele>511.50</ele>
        <time>2013-03-24T12:14:06Z</time>
      </trkpt>
      <trkpt lat="41.581115000" lon="1.790570000">
        <ele>508.30</ele>
        <time>2013-03-24T12:14:11Z</time>
      </trkpt>
      <trkpt lat="41.580941000" lon="1.790699000">
        <ele>507.10</ele>
        <time>2013-03-24T12:14:14Z</time>
      </trkpt>
      <trkpt lat="41.580760000" lon="1.790818000">
        <ele>506.20</ele>
        <time>2013-03-24T12:14:16Z</time>
      </trkpt>
      <trkpt lat="41.580594000" lon="1.791005000">
        <ele>504.00</ele>
        <time>2013-03-24T12:14:19Z</time>
      </trkpt>
      <trkpt lat="41.580404000" lon="1.791157000">
        <ele>503.50</ele>
        <time>2013-03-24T12:14:23Z</time>
      </trkpt>
      <trkpt lat="41.580184000" lon="1.791169000">
        <ele>503.00</ele>
        <time>2013-03-24T12:14:26Z</time>
      </trkpt>
      <trkpt lat="41.580009000" lon="1.791018000">
        <ele>501.90</ele>
        <time>2013-03-24T12:14:30Z</time>
      </trkpt>
      <trkpt lat="41.579840000" lon="1.791043000">
        <ele>500.60</ele>
        <time>2013-03-24T12:15:15Z</time>
      </trkpt>
      <trkpt lat="41.579693000" lon="1.791228000">
        <ele>495.20</ele>
        <time>2013-03-24T12:15:20Z</time>
      </trkpt>
      <trkpt lat="41.579542000" lon="1.791392000">
        <ele>491.50</ele>
        <time>2013-03-24T12:15:26Z</time>
      </trkpt>
      <trkpt lat="41.579334000" lon="1.791482000">
        <ele>488.80</ele>
        <time>2013-03-24T12:15:31Z</time>
      </trkpt>
      <trkpt lat="41.579133000" lon="1.791499000">
        <ele>488.80</ele>
        <time>2013-03-24T12:15:36Z</time>
      </trkpt>
      <trkpt lat="41.578952000" lon="1.791586000">
        <ele>489.10</ele>
        <time>2013-03-24T12:15:41Z</time>
      </trkpt>
      <trkpt lat="41.578784000" lon="1.791702000">
        <ele>493.90</ele>
        <time>2013-03-24T12:15:48Z</time>
      </trkpt>
      <trkpt lat="41.578637000" lon="1.791884000">
        <ele>496.30</ele>
        <time>2013-03-24T12:15:59Z</time>
      </trkpt>
      <trkpt lat="41.578492000" lon="1.792009000">
        <ele>494.20</ele>
        <time>2013-03-24T12:16:23Z</time>
      </trkpt>
      <trkpt lat="41.578359000" lon="1.792208000">
        <ele>489.70</ele>
        <time>2013-03-24T12:16:30Z</time>
      </trkpt>
      <trkpt lat="41.578247000" lon="1.792439000">
        <ele>486.70</ele>
        <time>2013-03-24T12:16:34Z</time>
      </trkpt>
      <trkpt lat="41.578091000" lon="1.792630000">
        <ele>486.00</ele>
        <time>2013-03-24T12:16:37Z</time>
      </trkpt>
      <trkpt lat="41.577927000" lon="1.792769000">
        <ele>485.70</ele>
        <time>2013-03-24T12:16:42Z</time>
      </trkpt>
      <trkpt lat="41.577870000" lon="1.793006000">
        <ele>482.00</ele>
        <time>2013-03-24T12:16:49Z</time>
      </trkpt>
      <trkpt lat="41.577825000" lon="1.793250000">
        <ele>476.60</ele>
        <time>2013-03-24T12:16:56Z</time>
      </trkpt>
      <trkpt lat="41.577738000" lon="1.793486000">
        <ele>471.10</ele>
        <time>2013-03-24T12:17:03Z</time>
      </trkpt>
      <trkpt lat="41.577658000" lon="1.793751000">
        <ele>466.70</ele>
        <time>2013-03-24T12:17:10Z</time>
      </trkpt>
      <trkpt lat="41.577542000" lon="1.793998000">
        <ele>464.20</ele>
        <time>2013-03-24T12:17:15Z</time>
      </trkpt>
      <trkpt lat="41.577418000" lon="1.794160000">
        <ele>463.70</ele>
        <time>2013-03-24T12:17:22Z</time>
      </trkpt>
      <trkpt lat="41.577267000" lon="1.794349000">
        <ele>462.40</ele>
        <time>2013-03-24T12:17:26Z</time>
      </trkpt>
      <trkpt lat="41.577123000" lon="1.794590000">
        <ele>460.60</ele>
        <time>2013-03-24T12:17:31Z</time>
      </trkpt>
      <trkpt lat="41.576972000" lon="1.794812000">
        <ele>456.80</ele>
        <time>2013-03-24T12:17:36Z</time>
      </trkpt>
      <trkpt lat="41.576897000" lon="1.795036000">
        <ele>454.60</ele>
        <time>2013-03-24T12:17:40Z</time>
      </trkpt>
      <trkpt lat="41.576820000" lon="1.795241000">
        <ele>451.40</ele>
        <time>2013-03-24T12:17:47Z</time>
      </trkpt>
      <trkpt lat="41.576728000" lon="1.795457000">
        <ele>448.20</ele>
        <time>2013-03-24T12:17:54Z</time>
      </trkpt>
      <trkpt lat="41.576641000" lon="1.795728000">
        <ele>442.70</ele>
        <time>2013-03-24T12:17:59Z</time>
      </trkpt>
      <trkpt lat="41.576532000" lon="1.795924000">
        <ele>439.20</ele>
        <time>2013-03-24T12:18:02Z</time>
      </trkpt>
      <trkpt lat="41.576418000" lon="1.796124000">
        <ele>436.60</ele>
        <time>2013-03-24T12:18:06Z</time>
      </trkpt>
      <trkpt lat="41.576300000" lon="1.796091000">
        <ele>435.30</ele>
        <time>2013-03-24T12:18:20Z</time>
      </trkpt>
      <trkpt lat="41.576171000" lon="1.795894000">
        <ele>434.20</ele>
        <time>2013-03-24T12:18:27Z</time>
      </trkpt>
      <trkpt lat="41.576002000" lon="1.795797000">
        <ele>433.30</ele>
        <time>2013-03-24T12:18:32Z</time>
      </trkpt>
      <trkpt lat="41.575792000" lon="1.795683000">
        <ele>431.60</ele>
        <time>2013-03-24T12:18:37Z</time>
      </trkpt>
      <trkpt lat="41.575680000" lon="1.795472000">
        <ele>428.90</ele>
        <time>2013-03-24T12:18:41Z</time>
      </trkpt>
      <trkpt lat="41.575610000" lon="1.795183000">
        <ele>426.40</ele>
        <time>2013-03-24T12:18:46Z</time>
      </trkpt>
      <trkpt lat="41.575512000" lon="1.794970000">
        <ele>425.00</ele>
        <time>2013-03-24T12:18:48Z</time>
      </trkpt>
      <trkpt lat="41.575426000" lon="1.794742000">
        <ele>423.30</ele>
        <time>2013-03-24T12:18:51Z</time>
      </trkpt>
      <trkpt lat="41.575273000" lon="1.794556000">
        <ele>424.50</ele>
        <time>2013-03-24T12:18:55Z</time>
      </trkpt>
      <trkpt lat="41.575228000" lon="1.794785000">
        <ele>423.50</ele>
        <time>2013-03-24T12:19:03Z</time>
      </trkpt>
      <trkpt lat="41.575256000" lon="1.795065000">
        <ele>422.90</ele>
        <time>2013-03-24T12:19:09Z</time>
      </trkpt>
      <trkpt lat="41.575232000" lon="1.795334000">
        <ele>420.70</ele>
        <time>2013-03-24T12:19:12Z</time>
      </trkpt>
      <trkpt lat="41.575180000" lon="1.795625000">
        <ele>420.40</ele>
        <time>2013-03-24T12:19:17Z</time>
      </trkpt>
      <trkpt lat="41.575134000" lon="1.795872000">
        <ele>419.70</ele>
        <time>2013-03-24T12:19:19Z</time>
      </trkpt>
      <trkpt lat="41.575131000" lon="1.796182000">
        <ele>419.80</ele>
        <time>2013-03-24T12:19:24Z</time>
      </trkpt>
      <trkpt lat="41.575119000" lon="1.796456000">
        <ele>419.80</ele>
        <time>2013-03-24T12:19:28Z</time>
      </trkpt>
      <trkpt lat="41.575052000" lon="1.796721000">
        <ele>420.40</ele>
        <time>2013-03-24T12:19:33Z</time>
      </trkpt>
      <trkpt lat="41.574980000" lon="1.796961000">
        <ele>421.20</ele>
        <time>2013-03-24T12:19:38Z</time>
      </trkpt>
      <trkpt lat="41.574915000" lon="1.797194000">
        <ele>421.30</ele>
        <time>2013-03-24T12:19:42Z</time>
      </trkpt>
      <trkpt lat="41.574863000" lon="1.797436000">
        <ele>421.80</ele>
        <time>2013-03-24T12:19:47Z</time>
      </trkpt>
      <trkpt lat="41.574796000" lon="1.797677000">
        <ele>422.30</ele>
        <time>2013-03-24T12:19:52Z</time>
      </trkpt>
      <trkpt lat="41.574729000" lon="1.797944000">
        <ele>423.00</ele>
        <time>2013-03-24T12:19:59Z</time>
      </trkpt>
      <trkpt lat="41.574663000" lon="1.798212000">
        <ele>423.10</ele>
        <time>2013-03-24T12:20:04Z</time>
      </trkpt>
      <trkpt lat="41.574600000" lon="1.798459000">
        <ele>423.20</ele>
        <time>2013-03-24T12:20:11Z</time>
      </trkpt>
      <trkpt lat="41.574537000" lon="1.798740000">
        <ele>422.60</ele>
        <time>2013-03-24T12:20:18Z</time>
      </trkpt>
      <trkpt lat="41.574481000" lon="1.799000000">
        <ele>422.00</ele>
        <time>2013-03-24T12:20:22Z</time>
      </trkpt>
      <trkpt lat="41.574414000" lon="1.799246000">
        <ele>421.10</ele>
        <time>2013-03-24T12:20:27Z</time>
      </trkpt>
      <trkpt lat="41.574351000" lon="1.799471000">
        <ele>420.60</ele>
        <time>2013-03-24T12:20:32Z</time>
      </trkpt>
      <trkpt lat="41.574292000" lon="1.799721000">
        <ele>419.80</ele>
        <time>2013-03-24T12:20:36Z</time>
      </trkpt>
      <trkpt lat="41.574233000" lon="1.799992000">
        <ele>419.00</ele>
        <time>2013-03-24T12:20:39Z</time>
      </trkpt>
      <trkpt lat="41.574229000" lon="1.800311000">
        <ele>417.30</ele>
        <time>2013-03-24T12:20:43Z</time>
      </trkpt>
      <trkpt lat="41.574256000" lon="1.800565000">
        <ele>416.90</ele>
        <time>2013-03-24T12:20:46Z</time>
      </trkpt>
      <trkpt lat="41.574277000" lon="1.800812000">
        <ele>416.00</ele>
        <time>2013-03-24T12:20:50Z</time>
      </trkpt>
      <trkpt lat="41.574226000" lon="1.801058000">
        <ele>416.50</ele>
        <time>2013-03-24T12:20:53Z</time>
      </trkpt>
      <trkpt lat="41.574023000" lon="1.801170000">
        <ele>415.80</ele>
        <time>2013-03-24T12:21:00Z</time>
      </trkpt>
      <trkpt lat="41.573831000" lon="1.801325000">
        <ele>415.10</ele>
        <time>2013-03-24T12:21:05Z</time>
      </trkpt>
      <trkpt lat="41.573675000" lon="1.801491000">
        <ele>414.00</ele>
        <time>2013-03-24T12:21:09Z</time>
      </trkpt>
      <trkpt lat="41.573489000" lon="1.801631000">
        <ele>412.90</ele>
        <time>2013-03-24T12:21:12Z</time>
      </trkpt>
      <trkpt lat="41.573342000" lon="1.801802000">
        <ele>411.70</ele>
        <time>2013-03-24T12:21:16Z</time>
      </trkpt>
      <trkpt lat="41.573151000" lon="1.802009000">
        <ele>410.50</ele>
        <time>2013-03-24T12:21:21Z</time>
      </trkpt>
      <trkpt lat="41.573000000" lon="1.802153000">
        <ele>410.00</ele>
        <time>2013-03-24T12:21:23Z</time>
      </trkpt>
      <trkpt lat="41.572848000" lon="1.802323000">
        <ele>408.80</ele>
        <time>2013-03-24T12:21:26Z</time>
      </trkpt>
      <trkpt lat="41.572697000" lon="1.802483000">
        <ele>408.20</ele>
        <time>2013-03-24T12:21:30Z</time>
      </trkpt>
      <trkpt lat="41.572568000" lon="1.802675000">
        <ele>406.70</ele>
        <time>2013-03-24T12:21:33Z</time>
      </trkpt>
      <trkpt lat="41.572431000" lon="1.802870000">
        <ele>405.90</ele>
        <time>2013-03-24T12:21:35Z</time>
      </trkpt>
      <trkpt lat="41.572275000" lon="1.803032000">
        <ele>404.70</ele>
        <time>2013-03-24T12:21:38Z</time>
      </trkpt>
      <trkpt lat="41.572125000" lon="1.803209000">
        <ele>403.70</ele>
        <time>2013-03-24T12:21:42Z</time>
      </trkpt>
      <trkpt lat="41.571980000" lon="1.803357000">
        <ele>401.80</ele>
        <time>2013-03-24T12:21:45Z</time>
      </trkpt>
      <trkpt lat="41.571822000" lon="1.803502000">
        <ele>401.60</ele>
        <time>2013-03-24T12:21:47Z</time>
      </trkpt>
      <trkpt lat="41.571683000" lon="1.803670000">
        <ele>400.00</ele>
        <time>2013-03-24T12:21:51Z</time>
      </trkpt>
      <trkpt lat="41.571535000" lon="1.803816000">
        <ele>399.80</ele>
        <time>2013-03-24T12:21:54Z</time>
      </trkpt>
      <trkpt lat="41.571397000" lon="1.803993000">
        <ele>399.30</ele>
        <time>2013-03-24T12:21:56Z</time>
      </trkpt>
      <trkpt lat="41.571199000" lon="1.804184000">
        <ele>398.00</ele>
        <time>2013-03-24T12:22:01Z</time>
      </trkpt>
      <trkpt lat="41.571060000" lon="1.804436000">
        <ele>397.10</ele>
        <time>2013-03-24T12:22:05Z</time>
      </trkpt>
      <trkpt lat="41.570911000" lon="1.804632000">
        <ele>395.80</ele>
        <time>2013-03-24T12:22:08Z</time>
      </trkpt>
      <trkpt lat="41.570860000" lon="1.804896000">
        <ele>394.50</ele>
        <time>2013-03-24T12:22:13Z</time>
      </trkpt>
      <trkpt lat="41.570790000" lon="1.805163000">
        <ele>393.20</ele>
        <time>2013-03-24T12:22:17Z</time>
      </trkpt>
      <trkpt lat="41.570721000" lon="1.805436000">
        <ele>392.10</ele>
        <time>2013-03-24T12:22:20Z</time>
      </trkpt>
      <trkpt lat="41.570819000" lon="1.805684000">
        <ele>391.70</ele>
        <time>2013-03-24T12:22:24Z</time>
      </trkpt>
      <trkpt lat="41.570887000" lon="1.805935000">
        <ele>391.40</ele>
        <time>2013-03-24T12:22:29Z</time>
      </trkpt>
      <trkpt lat="41.570695000" lon="1.806079000">
        <ele>389.80</ele>
        <time>2013-03-24T12:22:32Z</time>
      </trkpt>
      <trkpt lat="41.570510000" lon="1.806200000">
        <ele>388.60</ele>
        <time>2013-03-24T12:22:36Z</time>
      </trkpt>
      <trkpt lat="41.570313000" lon="1.806322000">
        <ele>386.50</ele>
        <time>2013-03-24T12:22:38Z</time>
      </trkpt>
      <trkpt lat="41.570115000" lon="1.806454000">
        <ele>386.20</ele>
        <time>2013-03-24T12:22:41Z</time>
      </trkpt>
      <trkpt lat="41.569931000" lon="1.806593000">
        <ele>385.70</ele>
        <time>2013-03-24T12:22:45Z</time>
      </trkpt>
      <trkpt lat="41.569789000" lon="1.806752000">
        <ele>384.20</ele>
        <time>2013-03-24T12:22:48Z</time>
      </trkpt>
      <trkpt lat="41.569753000" lon="1.807042000">
        <ele>383.20</ele>
        <time>2013-03-24T12:22:52Z</time>
      </trkpt>
      <trkpt lat="41.569824000" lon="1.807320000">
        <ele>383.50</ele>
        <time>2013-03-24T12:22:55Z</time>
      </trkpt>
      <trkpt lat="41.569954000" lon="1.807556000">
        <ele>383.20</ele>
        <time>2013-03-24T12:23:00Z</time>
      </trkpt>
      <trkpt lat="41.569993000" lon="1.807827000">
        <ele>382.60</ele>
        <time>2013-03-24T12:23:04Z</time>
      </trkpt>
      <trkpt lat="41.569975000" lon="1.808095000">
        <ele>383.20</ele>
        <time>2013-03-24T12:23:07Z</time>
      </trkpt>
      <trkpt lat="41.569960000" lon="1.808336000">
        <ele>384.20</ele>
        <time>2013-03-24T12:23:14Z</time>
      </trkpt>
      <trkpt lat="41.569946000" lon="1.808598000">
        <ele>384.40</ele>
        <time>2013-03-24T12:23:21Z</time>
      </trkpt>
      <trkpt lat="41.569919000" lon="1.808850000">
        <ele>385.10</ele>
        <time>2013-03-24T12:23:26Z</time>
      </trkpt>
      <trkpt lat="41.569905000" lon="1.809104000">
        <ele>386.00</ele>
        <time>2013-03-24T12:23:33Z</time>
      </trkpt>
      <trkpt lat="41.569911000" lon="1.809362000">
        <ele>386.30</ele>
        <time>2013-03-24T12:23:40Z</time>
      </trkpt>
      <trkpt lat="41.569885000" lon="1.809635000">
        <ele>385.90</ele>
        <time>2013-03-24T12:23:46Z</time>
      </trkpt>
      <trkpt lat="41.569860000" lon="1.809915000">
        <ele>385.80</ele>
        <time>2013-03-24T12:23:51Z</time>
      </trkpt>
      <trkpt lat="41.569829000" lon="1.810174000">
        <ele>384.80</ele>
        <time>2013-03-24T12:23:56Z</time>
      </trkpt>
      <trkpt lat="41.569857000" lon="1.810422000">
        <ele>385.10</ele>
        <time>2013-03-24T12:24:01Z</time>
      </trkpt>
      <trkpt lat="41.569904000" lon="1.810668000">
        <ele>385.00</ele>
        <time>2013-03-24T12:24:05Z</time>
      </trkpt>
      <trkpt lat="41.569963000" lon="1.810911000">
        <ele>384.80</ele>
        <time>2013-03-24T12:24:08Z</time>
      </trkpt>
      <trkpt lat="41.570015000" lon="1.811182000">
        <ele>384.60</ele>
        <time>2013-03-24T12:24:13Z</time>
      </trkpt>
      <trkpt lat="41.569882000" lon="1.811342000">
        <ele>383.60</ele>
        <time>2013-03-24T12:24:19Z</time>
      </trkpt>
      <trkpt lat="41.569713000" lon="1.811432000">
        <ele>382.60</ele>
        <time>2013-03-24T12:24:22Z</time>
      </trkpt>
      <trkpt lat="41.569537000" lon="1.811514000">
        <ele>382.00</ele>
        <time>2013-03-24T12:24:26Z</time>
      </trkpt>
      <trkpt lat="41.569342000" lon="1.811626000">
        <ele>379.80</ele>
        <time>2013-03-24T12:24:31Z</time>
      </trkpt>
      <trkpt lat="41.569150000" lon="1.811736000">
        <ele>379.20</ele>
        <time>2013-03-24T12:24:34Z</time>
      </trkpt>
      <trkpt lat="41.568983000" lon="1.811854000">
        <ele>378.10</ele>
        <time>2013-03-24T12:24:38Z</time>
      </trkpt>
      <trkpt lat="41.568802000" lon="1.811996000">
        <ele>376.60</ele>
        <time>2013-03-24T12:24:43Z</time>
      </trkpt>
      <trkpt lat="41.568624000" lon="1.812130000">
        <ele>375.90</ele>
        <time>2013-03-24T12:24:47Z</time>
      </trkpt>
      <trkpt lat="41.568445000" lon="1.812276000">
        <ele>374.90</ele>
        <time>2013-03-24T12:24:50Z</time>
      </trkpt>
      <trkpt lat="41.568259000" lon="1.812429000">
        <ele>373.30</ele>
        <time>2013-03-24T12:24:55Z</time>
      </trkpt>
      <trkpt lat="41.568069000" lon="1.812583000">
        <ele>372.00</ele>
        <time>2013-03-24T12:24:59Z</time>
      </trkpt>
      <trkpt lat="41.567868000" lon="1.812741000">
        <ele>370.00</ele>
        <time>2013-03-24T12:25:02Z</time>
      </trkpt>
      <trkpt lat="41.567670000" lon="1.812904000">
        <ele>369.20</ele>
        <time>2013-03-24T12:25:06Z</time>
      </trkpt>
      <trkpt lat="41.567513000" lon="1.813029000">
        <ele>368.80</ele>
        <time>2013-03-24T12:25:09Z</time>
      </trkpt>
      <trkpt lat="41.567352000" lon="1.813171000">
        <ele>366.90</ele>
        <time>2013-03-24T12:25:13Z</time>
      </trkpt>
      <trkpt lat="41.567201000" lon="1.813301000">
        <ele>366.60</ele>
        <time>2013-03-24T12:25:16Z</time>
      </trkpt>
      <trkpt lat="41.567031000" lon="1.813426000">
        <ele>364.80</ele>
        <time>2013-03-24T12:25:18Z</time>
      </trkpt>
      <trkpt lat="41.566851000" lon="1.813559000">
        <ele>363.10</ele>
        <time>2013-03-24T12:25:21Z</time>
      </trkpt>
      <trkpt lat="41.566678000" lon="1.813698000">
        <ele>362.30</ele>
        <time>2013-03-24T12:25:25Z</time>
      </trkpt>
      <trkpt lat="41.566519000" lon="1.813831000">
        <ele>361.30</ele>
        <time>2013-03-24T12:25:28Z</time>
      </trkpt>
      <trkpt lat="41.566357000" lon="1.813970000">
        <ele>358.70</ele>
        <time>2013-03-24T12:25:30Z</time>
      </trkpt>
      <trkpt lat="41.566193000" lon="1.814130000">
        <ele>357.70</ele>
        <time>2013-03-24T12:25:34Z</time>
      </trkpt>
      <trkpt lat="41.566031000" lon="1.814295000">
        <ele>355.00</ele>
        <time>2013-03-24T12:25:37Z</time>
      </trkpt>
      <trkpt lat="41.565877000" lon="1.814467000">
        <ele>353.50</ele>
        <time>2013-03-24T12:25:39Z</time>
      </trkpt>
      <trkpt lat="41.565716000" lon="1.814632000">
        <ele>353.00</ele>
        <time>2013-03-24T12:25:42Z</time>
      </trkpt>
      <trkpt lat="41.565554000" lon="1.814810000">
        <ele>351.40</ele>
        <time>2013-03-24T12:25:46Z</time>
      </trkpt>
      <trkpt lat="41.565397000" lon="1.814984000">
        <ele>350.80</ele>
        <time>2013-03-24T12:25:49Z</time>
      </trkpt>
      <trkpt lat="41.565245000" lon="1.815152000">
        <ele>349.60</ele>
        <time>2013-03-24T12:25:51Z</time>
      </trkpt>
      <trkpt lat="41.565083000" lon="1.815334000">
        <ele>348.40</ele>
        <time>2013-03-24T12:25:54Z</time>
      </trkpt>
      <trkpt lat="41.564922000" lon="1.815506000">
        <ele>347.30</ele>
        <time>2013-03-24T12:25:58Z</time>
      </trkpt>
      <trkpt lat="41.564761000" lon="1.815678000">
        <ele>345.70</ele>
        <time>2013-03-24T12:26:00Z</time>
      </trkpt>
      <trkpt lat="41.564613000" lon="1.815827000">
        <ele>344.70</ele>
        <time>2013-03-24T12:26:03Z</time>
      </trkpt>
      <trkpt lat="41.564472000" lon="1.815984000">
        <ele>343.80</ele>
        <time>2013-03-24T12:26:07Z</time>
      </trkpt>
      <trkpt lat="41.564321000" lon="1.816150000">
        <ele>342.80</ele>
        <time>2013-03-24T12:26:10Z</time>
      </trkpt>
      <trkpt lat="41.564172000" lon="1.816312000">
        <ele>342.00</ele>
        <time>2013-03-24T12:26:12Z</time>
      </trkpt>
      <trkpt lat="41.564001000" lon="1.816509000">
        <ele>341.50</ele>
        <time>2013-03-24T12:26:17Z</time>
      </trkpt>
      <trkpt lat="41.563854000" lon="1.816675000">
        <ele>341.50</ele>
        <time>2013-03-24T12:26:26Z</time>
      </trkpt>
      <trkpt lat="41.563907000" lon="1.816899000">
        <ele>341.10</ele>
        <time>2013-03-24T12:26:31Z</time>
      </trkpt>
      <trkpt lat="41.564000000" lon="1.817131000">
        <ele>341.20</ele>
        <time>2013-03-24T12:26:38Z</time>
      </trkpt>
      <trkpt lat="41.564083000" lon="1.817395000">
        <ele>341.20</ele>
        <time>2013-03-24T12:26:43Z</time>
      </trkpt>
      <trkpt lat="41.564177000" lon="1.817627000">
        <ele>341.30</ele>
        <time>2013-03-24T12:26:48Z</time>
      </trkpt>
      <trkpt lat="41.564269000" lon="1.817842000">
        <ele>340.60</ele>
        <time>2013-03-24T12:26:52Z</time>
      </trkpt>
      <trkpt lat="41.564368000" lon="1.818075000">
        <ele>340.20</ele>
        <time>2013-03-24T12:26:57Z</time>
      </trkpt>
      <trkpt lat="41.564456000" lon="1.818325000">
        <ele>339.50</ele>
        <time>2013-03-24T12:27:01Z</time>
      </trkpt>
      <trkpt lat="41.564576000" lon="1.818583000">
        <ele>339.10</ele>
        <time>2013-03-24T12:27:04Z</time>
      </trkpt>
      <trkpt lat="41.564673000" lon="1.818829000">
        <ele>339.20</ele>
        <time>2013-03-24T12:27:09Z</time>
      </trkpt>
      <trkpt lat="41.564747000" lon="1.819053000">
        <ele>338.60</ele>
        <time>2013-03-24T12:27:13Z</time>
      </trkpt>
      <trkpt lat="41.564841000" lon="1.819258000">
        <ele>338.60</ele>
        <time>2013-03-24T12:27:16Z</time>
      </trkpt>
      <trkpt lat="41.564935000" lon="1.819474000">
        <ele>338.60</ele>
        <time>2013-03-24T12:27:20Z</time>
      </trkpt>
      <trkpt lat="41.565024000" lon="1.819693000">
        <ele>338.60</ele>
        <time>2013-03-24T12:27:25Z</time>
      </trkpt>
      <trkpt lat="41.565118000" lon="1.819920000">
        <ele>338.20</ele>
        <time>2013-03-24T12:27:29Z</time>
      </trkpt>
      <trkpt lat="41.565211000" lon="1.820162000">
        <ele>338.00</ele>
        <time>2013-03-24T12:27:32Z</time>
      </trkpt>
      <trkpt lat="41.565302000" lon="1.820418000">
        <ele>337.70</ele>
        <time>2013-03-24T12:27:37Z</time>
      </trkpt>
      <trkpt lat="41.565393000" lon="1.820669000">
        <ele>337.90</ele>
        <time>2013-03-24T12:27:41Z</time>
      </trkpt>
      <trkpt lat="41.565484000" lon="1.820896000">
        <ele>338.40</ele>
        <time>2013-03-24T12:27:44Z</time>
      </trkpt>
      <trkpt lat="41.565579000" lon="1.821123000">
        <ele>338.80</ele>
        <time>2013-03-24T12:27:48Z</time>
      </trkpt>
      <trkpt lat="41.565674000" lon="1.821343000">
        <ele>339.20</ele>
        <time>2013-03-24T12:27:53Z</time>
      </trkpt>
      <trkpt lat="41.565753000" lon="1.821570000">
        <ele>339.10</ele>
        <time>2013-03-24T12:27:56Z</time>
      </trkpt>
      <trkpt lat="41.565840000" lon="1.821782000">
        <ele>339.50</ele>
        <time>2013-03-24T12:28:00Z</time>
      </trkpt>
      <trkpt lat="41.565941000" lon="1.822046000">
        <ele>340.20</ele>
        <time>2013-03-24T12:28:05Z</time>
      </trkpt>
      <trkpt lat="41.566052000" lon="1.822290000">
        <ele>341.00</ele>
        <time>2013-03-24T12:28:10Z</time>
      </trkpt>
      <trkpt lat="41.566152000" lon="1.822556000">
        <ele>341.20</ele>
        <time>2013-03-24T12:28:16Z</time>
      </trkpt>
      <trkpt lat="41.566249000" lon="1.822810000">
        <ele>341.60</ele>
        <time>2013-03-24T12:28:21Z</time>
      </trkpt>
      <trkpt lat="41.566338000" lon="1.823025000">
        <ele>342.40</ele>
        <time>2013-03-24T12:28:26Z</time>
      </trkpt>
      <trkpt lat="41.566433000" lon="1.823260000">
        <ele>342.80</ele>
        <time>2013-03-24T12:28:31Z</time>
      </trkpt>
      <trkpt lat="41.566528000" lon="1.823494000">
        <ele>343.50</ele>
        <time>2013-03-24T12:28:35Z</time>
      </trkpt>
      <trkpt lat="41.566619000" lon="1.823723000">
        <ele>344.10</ele>
        <time>2013-03-24T12:28:40Z</time>
      </trkpt>
      <trkpt lat="41.566705000" lon="1.823947000">
        <ele>344.40</ele>
        <time>2013-03-24T12:28:45Z</time>
      </trkpt>
      <trkpt lat="41.566717000" lon="1.824168000">
        <ele>343.90</ele>
        <time>2013-03-24T12:28:50Z</time>
      </trkpt>
      <trkpt lat="41.566508000" lon="1.824309000">
        <ele>342.40</ele>
        <time>2013-03-24T12:28:56Z</time>
      </trkpt>
      <trkpt lat="41.566306000" lon="1.824450000">
        <ele>340.50</ele>
        <time>2013-03-24T12:28:59Z</time>
      </trkpt>
      <trkpt lat="41.566133000" lon="1.824567000">
        <ele>338.30</ele>
        <time>2013-03-24T12:29:03Z</time>
      </trkpt>
      <trkpt lat="41.565961000" lon="1.824699000">
        <ele>337.60</ele>
        <time>2013-03-24T12:29:06Z</time>
      </trkpt>
      <trkpt lat="41.565795000" lon="1.824842000">
        <ele>338.90</ele>
        <time>2013-03-24T12:29:10Z</time>
      </trkpt>
      <trkpt lat="41.565631000" lon="1.824982000">
        <ele>337.20</ele>
        <time>2013-03-24T12:29:13Z</time>
      </trkpt>
      <trkpt lat="41.565453000" lon="1.825081000">
        <ele>336.50</ele>
        <time>2013-03-24T12:29:18Z</time>
      </trkpt>
      <trkpt lat="41.565300000" lon="1.825207000">
        <ele>336.60</ele>
        <time>2013-03-24T12:29:22Z</time>
      </trkpt>
      <trkpt lat="41.565209000" lon="1.825426000">
        <ele>336.60</ele>
        <time>2013-03-24T12:29:29Z</time>
      </trkpt>
      <trkpt lat="41.565074000" lon="1.825607000">
        <ele>336.60</ele>
        <time>2013-03-24T12:29:36Z</time>
      </trkpt>
      <trkpt lat="41.565040000" lon="1.825875000">
        <ele>337.30</ele>
        <time>2013-03-24T12:29:43Z</time>
      </trkpt>
      <trkpt lat="41.564997000" lon="1.826126000">
        <ele>337.70</ele>
        <time>2013-03-24T12:29:48Z</time>
      </trkpt>
      <trkpt lat="41.564970000" lon="1.826379000">
        <ele>338.90</ele>
        <time>2013-03-24T12:29:55Z</time>
      </trkpt>
      <trkpt lat="41.564927000" lon="1.826618000">
        <ele>338.10</ele>
        <time>2013-03-24T12:30:02Z</time>
      </trkpt>
      <trkpt lat="41.564888000" lon="1.826865000">
        <ele>337.70</ele>
        <time>2013-03-24T12:30:07Z</time>
      </trkpt>
      <trkpt lat="41.564845000" lon="1.827112000">
        <ele>337.70</ele>
        <time>2013-03-24T12:30:12Z</time>
      </trkpt>
      <trkpt lat="41.564806000" lon="1.827348000">
        <ele>337.30</ele>
        <time>2013-03-24T12:30:18Z</time>
      </trkpt>
      <trkpt lat="41.564770000" lon="1.827630000">
        <ele>336.90</ele>
        <time>2013-03-24T12:30:23Z</time>
      </trkpt>
      <trkpt lat="41.564724000" lon="1.827872000">
        <ele>336.90</ele>
        <time>2013-03-24T12:30:26Z</time>
      </trkpt>
      <trkpt lat="41.564664000" lon="1.828157000">
        <ele>336.70</ele>
        <time>2013-03-24T12:30:31Z</time>
      </trkpt>
      <trkpt lat="41.564626000" lon="1.828428000">
        <ele>336.60</ele>
        <time>2013-03-24T12:30:37Z</time>
      </trkpt>
      <trkpt lat="41.564573000" lon="1.828695000">
        <ele>336.60</ele>
        <time>2013-03-24T12:30:42Z</time>
      </trkpt>
      <trkpt lat="41.564531000" lon="1.828955000">
        <ele>336.60</ele>
        <time>2013-03-24T12:30:47Z</time>
      </trkpt>
      <trkpt lat="41.564486000" lon="1.829201000">
        <ele>336.10</ele>
        <time>2013-03-24T12:30:51Z</time>
      </trkpt>
      <trkpt lat="41.564443000" lon="1.829474000">
        <ele>334.70</ele>
        <time>2013-03-24T12:30:54Z</time>
      </trkpt>
      <trkpt lat="41.564387000" lon="1.829768000">
        <ele>334.00</ele>
        <time>2013-03-24T12:30:59Z</time>
      </trkpt>
      <trkpt lat="41.564337000" lon="1.830081000">
        <ele>332.50</ele>
        <time>2013-03-24T12:31:03Z</time>
      </trkpt>
      <trkpt lat="41.564294000" lon="1.830326000">
        <ele>331.60</ele>
        <time>2013-03-24T12:31:06Z</time>
      </trkpt>
      <trkpt lat="41.564255000" lon="1.830573000">
        <ele>330.80</ele>
        <time>2013-03-24T12:31:08Z</time>
      </trkpt>
      <trkpt lat="41.564213000" lon="1.830832000">
        <ele>330.00</ele>
        <time>2013-03-24T12:31:12Z</time>
      </trkpt>
      <trkpt lat="41.564165000" lon="1.831086000">
        <ele>329.10</ele>
        <time>2013-03-24T12:31:15Z</time>
      </trkpt>
      <trkpt lat="41.564127000" lon="1.831328000">
        <ele>328.60</ele>
        <time>2013-03-24T12:31:17Z</time>
      </trkpt>
      <trkpt lat="41.564113000" lon="1.831566000">
        <ele>328.80</ele>
        <time>2013-03-24T12:31:48Z</time>
      </trkpt>
      <trkpt lat="41.564285000" lon="1.831599000">
        <ele>330.40</ele>
        <time>2013-03-24T12:31:59Z</time>
      </trkpt>
      <trkpt lat="41.564244000" lon="1.831859000">
        <ele>328.10</ele>
        <time>2013-03-24T12:32:07Z</time>
      </trkpt>
      <trkpt lat="41.564069000" lon="1.832042000">
        <ele>325.80</ele>
        <time>2013-03-24T12:32:11Z</time>
      </trkpt>
      <trkpt lat="41.563903000" lon="1.832239000">
        <ele>323.10</ele>
        <time>2013-03-24T12:32:14Z</time>
      </trkpt>
      <trkpt lat="41.563703000" lon="1.832385000">
        <ele>321.40</ele>
        <time>2013-03-24T12:32:16Z</time>
      </trkpt>
      <trkpt lat="41.563478000" lon="1.832422000">
        <ele>319.40</ele>
        <time>2013-03-24T12:32:19Z</time>
      </trkpt>
      <trkpt lat="41.563248000" lon="1.832441000">
        <ele>318.00</ele>
        <time>2013-03-24T12:32:23Z</time>
      </trkpt>
      <trkpt lat="41.563022000" lon="1.832451000">
        <ele>317.50</ele>
        <time>2013-03-24T12:32:25Z</time>
      </trkpt>
      <trkpt lat="41.562813000" lon="1.832513000">
        <ele>317.20</ele>
        <time>2013-03-24T12:32:28Z</time>
      </trkpt>
      <trkpt lat="41.562642000" lon="1.832593000">
        <ele>316.60</ele>
        <time>2013-03-24T12:32:32Z</time>
      </trkpt>
      <trkpt lat="41.562538000" lon="1.832831000">
        <ele>315.60</ele>
        <time>2013-03-24T12:32:35Z</time>
      </trkpt>
      <trkpt lat="41.562493000" lon="1.833122000">
        <ele>314.60</ele>
        <time>2013-03-24T12:32:40Z</time>
      </trkpt>
      <trkpt lat="41.562434000" lon="1.833401000">
        <ele>312.40</ele>
        <time>2013-03-24T12:32:44Z</time>
      </trkpt>
      <trkpt lat="41.562387000" lon="1.833707000">
        <ele>310.60</ele>
        <time>2013-03-24T12:32:47Z</time>
      </trkpt>
      <trkpt lat="41.562337000" lon="1.833966000">
        <ele>309.30</ele>
        <time>2013-03-24T12:32:51Z</time>
      </trkpt>
      <trkpt lat="41.562249000" lon="1.834198000">
        <ele>307.80</ele>
        <time>2013-03-24T12:32:54Z</time>
      </trkpt>
      <trkpt lat="41.562128000" lon="1.834462000">
        <ele>306.50</ele>
        <time>2013-03-24T12:32:58Z</time>
      </trkpt>
      <trkpt lat="41.562018000" lon="1.834708000">
        <ele>304.40</ele>
        <time>2013-03-24T12:33:01Z</time>
      </trkpt>
      <trkpt lat="41.561912000" lon="1.834995000">
        <ele>302.90</ele>
        <time>2013-03-24T12:33:05Z</time>
      </trkpt>
      <trkpt lat="41.561846000" lon="1.835223000">
        <ele>302.10</ele>
        <time>2013-03-24T12:33:08Z</time>
      </trkpt>
      <trkpt lat="41.561756000" lon="1.835520000">
        <ele>300.90</ele>
        <time>2013-03-24T12:33:12Z</time>
      </trkpt>
      <trkpt lat="41.561653000" lon="1.835728000">
        <ele>299.50</ele>
        <time>2013-03-24T12:33:15Z</time>
      </trkpt>
      <trkpt lat="41.561542000" lon="1.835933000">
        <ele>298.80</ele>
        <time>2013-03-24T12:33:19Z</time>
      </trkpt>
      <trkpt lat="41.561426000" lon="1.836177000">
        <ele>297.30</ele>
        <time>2013-03-24T12:33:22Z</time>
      </trkpt>
      <trkpt lat="41.561308000" lon="1.836387000">
        <ele>296.20</ele>
        <time>2013-03-24T12:33:26Z</time>
      </trkpt>
      <trkpt lat="41.561190000" lon="1.836584000">
        <ele>294.90</ele>
        <time>2013-03-24T12:33:31Z</time>
      </trkpt>
      <trkpt lat="41.561036000" lon="1.836713000">
        <ele>293.30</ele>
        <time>2013-03-24T12:33:34Z</time>
      </trkpt>
      <trkpt lat="41.560855000" lon="1.836757000">
        <ele>291.70</ele>
        <time>2013-03-24T12:33:38Z</time>
      </trkpt>
      <trkpt lat="41.560698000" lon="1.836588000">
        <ele>291.50</ele>
        <time>2013-03-24T12:33:43Z</time>
      </trkpt>
      <trkpt lat="41.560550000" lon="1.836414000">
        <ele>291.90</ele>
        <time>2013-03-24T12:33:48Z</time>
      </trkpt>
      <trkpt lat="41.560430000" lon="1.836218000">
        <ele>292.30</ele>
        <time>2013-03-24T12:33:52Z</time>
      </trkpt>
      <trkpt lat="41.560284000" lon="1.836022000">
        <ele>292.50</ele>
        <time>2013-03-24T12:33:55Z</time>
      </trkpt>
      <trkpt lat="41.560142000" lon="1.835809000">
        <ele>291.70</ele>
        <time>2013-03-24T12:33:59Z</time>
      </trkpt>
      <trkpt lat="41.559995000" lon="1.835620000">
        <ele>292.30</ele>
        <time>2013-03-24T12:34:04Z</time>
      </trkpt>
      <trkpt lat="41.559825000" lon="1.835761000">
        <ele>290.60</ele>
        <time>2013-03-24T12:34:09Z</time>
      </trkpt>
      <trkpt lat="41.559742000" lon="1.835986000">
        <ele>289.50</ele>
        <time>2013-03-24T12:34:11Z</time>
      </trkpt>
      <trkpt lat="41.559634000" lon="1.836206000">
        <ele>287.30</ele>
        <time>2013-03-24T12:34:14Z</time>
      </trkpt>
      <trkpt lat="41.559572000" lon="1.836443000">
        <ele>286.20</ele>
        <time>2013-03-24T12:34:18Z</time>
      </trkpt>
      <trkpt lat="41.559391000" lon="1.836635000">
        <ele>284.00</ele>
        <time>2013-03-24T12:34:21Z</time>
      </trkpt>
      <trkpt lat="41.559244000" lon="1.836777000">
        <ele>281.70</ele>
        <time>2013-03-24T12:34:25Z</time>
      </trkpt>
      <trkpt lat="41.559070000" lon="1.836876000">
        <ele>279.10</ele>
        <time>2013-03-24T12:34:28Z</time>
      </trkpt>
      <trkpt lat="41.558844000" lon="1.836931000">
        <ele>280.40</ele>
        <time>2013-03-24T12:34:32Z</time>
      </trkpt>
      <trkpt lat="41.558658000" lon="1.837009000">
        <ele>281.60</ele>
        <time>2013-03-24T12:34:35Z</time>
      </trkpt>
      <trkpt lat="41.558534000" lon="1.837201000">
        <ele>281.30</ele>
        <time>2013-03-24T12:34:39Z</time>
      </trkpt>
      <trkpt lat="41.558438000" lon="1.837452000">
        <ele>278.50</ele>
        <time>2013-03-24T12:34:44Z</time>
      </trkpt>
      <trkpt lat="41.558248000" lon="1.837635000">
        <ele>277.20</ele>
        <time>2013-03-24T12:34:47Z</time>
      </trkpt>
      <trkpt lat="41.558046000" lon="1.837727000">
        <ele>277.60</ele>
        <time>2013-03-24T12:34:51Z</time>
      </trkpt>
      <trkpt lat="41.557876000" lon="1.837882000">
        <ele>275.70</ele>
        <time>2013-03-24T12:34:56Z</time>
      </trkpt>
      <trkpt lat="41.557692000" lon="1.838058000">
        <ele>274.50</ele>
        <time>2013-03-24T12:35:00Z</time>
      </trkpt>
      <trkpt lat="41.557508000" lon="1.838199000">
        <ele>274.50</ele>
        <time>2013-03-24T12:35:03Z</time>
      </trkpt>
      <trkpt lat="41.557317000" lon="1.838351000">
        <ele>273.60</ele>
        <time>2013-03-24T12:35:07Z</time>
      </trkpt>
      <trkpt lat="41.557109000" lon="1.838505000">
        <ele>272.20</ele>
        <time>2013-03-24T12:35:12Z</time>
      </trkpt>
      <trkpt lat="41.556951000" lon="1.838655000">
        <ele>270.70</ele>
        <time>2013-03-24T12:35:14Z</time>
      </trkpt>
      <trkpt lat="41.556794000" lon="1.838804000">
        <ele>270.60</ele>
        <time>2013-03-24T12:35:17Z</time>
      </trkpt>
      <trkpt lat="41.556663000" lon="1.838967000">
        <ele>269.60</ele>
        <time>2013-03-24T12:35:21Z</time>
      </trkpt>
      <trkpt lat="41.556495000" lon="1.839185000">
        <ele>268.00</ele>
        <time>2013-03-24T12:35:24Z</time>
      </trkpt>
      <trkpt lat="41.556364000" lon="1.839361000">
        <ele>266.90</ele>
        <time>2013-03-24T12:35:28Z</time>
      </trkpt>
      <trkpt lat="41.556218000" lon="1.839521000">
        <ele>266.00</ele>
        <time>2013-03-24T12:35:31Z</time>
      </trkpt>
      <trkpt lat="41.556079000" lon="1.839710000">
        <ele>264.90</ele>
        <time>2013-03-24T12:35:33Z</time>
      </trkpt>
      <trkpt lat="41.555942000" lon="1.839915000">
        <ele>263.90</ele>
        <time>2013-03-24T12:35:36Z</time>
      </trkpt>
      <trkpt lat="41.555804000" lon="1.840134000">
        <ele>262.70</ele>
        <time>2013-03-24T12:35:40Z</time>
      </trkpt>
      <trkpt lat="41.555663000" lon="1.840357000">
        <ele>261.60</ele>
        <time>2013-03-24T12:35:43Z</time>
      </trkpt>
      <trkpt lat="41.555527000" lon="1.840601000">
        <ele>260.80</ele>
        <time>2013-03-24T12:35:45Z</time>
      </trkpt>
      <trkpt lat="41.555384000" lon="1.840835000">
        <ele>259.00</ele>
        <time>2013-03-24T12:35:48Z</time>
      </trkpt>
      <trkpt lat="41.555231000" lon="1.841077000">
        <ele>258.00</ele>
        <time>2013-03-24T12:35:52Z</time>
      </trkpt>
      <trkpt lat="41.555090000" lon="1.841348000">
        <ele>256.10</ele>
        <time>2013-03-24T12:35:54Z</time>
      </trkpt>
      <trkpt lat="41.554969000" lon="1.841631000">
        <ele>254.80</ele>
        <time>2013-03-24T12:35:57Z</time>
      </trkpt>
      <trkpt lat="41.554869000" lon="1.841905000">
        <ele>255.00</ele>
        <time>2013-03-24T12:36:01Z</time>
      </trkpt>
      <trkpt lat="41.554765000" lon="1.842145000">
        <ele>254.30</ele>
        <time>2013-03-24T12:36:04Z</time>
      </trkpt>
      <trkpt lat="41.554664000" lon="1.842385000">
        <ele>253.20</ele>
        <time>2013-03-24T12:36:06Z</time>
      </trkpt>
      <trkpt lat="41.554570000" lon="1.842626000">
        <ele>252.80</ele>
        <time>2013-03-24T12:36:09Z</time>
      </trkpt>
      <trkpt lat="41.554463000" lon="1.842852000">
        <ele>252.40</ele>
        <time>2013-03-24T12:36:13Z</time>
      </trkpt>
      <trkpt lat="41.554352000" lon="1.843061000">
        <ele>251.90</ele>
        <time>2013-03-24T12:36:16Z</time>
      </trkpt>
      <trkpt lat="41.554242000" lon="1.843270000">
        <ele>251.50</ele>
        <time>2013-03-24T12:36:18Z</time>
      </trkpt>
      <trkpt lat="41.554142000" lon="1.843509000">
        <ele>251.00</ele>
        <time>2013-03-24T12:36:22Z</time>
      </trkpt>
      <trkpt lat="41.554036000" lon="1.843740000">
        <ele>249.70</ele>
        <time>2013-03-24T12:36:25Z</time>
      </trkpt>
      <trkpt lat="41.553932000" lon="1.843959000">
        <ele>249.10</ele>
        <time>2013-03-24T12:36:27Z</time>
      </trkpt>
      <trkpt lat="41.553875000" lon="1.844204000">
        <ele>248.50</ele>
        <time>2013-03-24T12:36:30Z</time>
      </trkpt>
      <trkpt lat="41.553823000" lon="1.844446000">
        <ele>248.10</ele>
        <time>2013-03-24T12:36:34Z</time>
      </trkpt>
      <trkpt lat="41.553791000" lon="1.844698000">
        <ele>247.40</ele>
        <time>2013-03-24T12:36:37Z</time>
      </trkpt>
      <trkpt lat="41.553752000" lon="1.845015000">
        <ele>246.60</ele>
        <time>2013-03-24T12:36:41Z</time>
      </trkpt>
      <trkpt lat="41.553707000" lon="1.845319000">
        <ele>245.60</ele>
        <time>2013-03-24T12:36:44Z</time>
      </trkpt>
      <trkpt lat="41.553676000" lon="1.845644000">
        <ele>244.50</ele>
        <time>2013-03-24T12:36:48Z</time>
      </trkpt>
      <trkpt lat="41.553670000" lon="1.845912000">
        <ele>243.80</ele>
        <time>2013-03-24T12:36:51Z</time>
      </trkpt>
      <trkpt lat="41.553669000" lon="1.846170000">
        <ele>242.90</ele>
        <time>2013-03-24T12:36:55Z</time>
      </trkpt>
      <trkpt lat="41.553677000" lon="1.846413000">
        <ele>243.00</ele>
        <time>2013-03-24T12:36:58Z</time>
      </trkpt>
      <trkpt lat="41.553713000" lon="1.846664000">
        <ele>243.70</ele>
        <time>2013-03-24T12:37:02Z</time>
      </trkpt>
      <trkpt lat="41.553880000" lon="1.846811000">
        <ele>243.30</ele>
        <time>2013-03-24T12:37:07Z</time>
      </trkpt>
      <trkpt lat="41.554044000" lon="1.846999000">
        <ele>243.00</ele>
        <time>2013-03-24T12:37:12Z</time>
      </trkpt>
      <trkpt lat="41.554113000" lon="1.847247000">
        <ele>242.90</ele>
        <time>2013-03-24T12:37:16Z</time>
      </trkpt>
      <trkpt lat="41.554199000" lon="1.847494000">
        <ele>243.00</ele>
        <time>2013-03-24T12:37:19Z</time>
      </trkpt>
      <trkpt lat="41.554300000" lon="1.847746000">
        <ele>242.40</ele>
        <time>2013-03-24T12:37:24Z</time>
      </trkpt>
      <trkpt lat="41.554412000" lon="1.848007000">
        <ele>242.10</ele>
        <time>2013-03-24T12:37:28Z</time>
      </trkpt>
      <trkpt lat="41.554502000" lon="1.848255000">
        <ele>242.50</ele>
        <time>2013-03-24T12:37:31Z</time>
      </trkpt>
      <trkpt lat="41.554549000" lon="1.848494000">
        <ele>242.00</ele>
        <time>2013-03-24T12:37:35Z</time>
      </trkpt>
      <trkpt lat="41.554408000" lon="1.848688000">
        <ele>241.70</ele>
        <time>2013-03-24T12:37:40Z</time>
      </trkpt>
      <trkpt lat="41.554232000" lon="1.848883000">
        <ele>240.40</ele>
        <time>2013-03-24T12:37:43Z</time>
      </trkpt>
      <trkpt lat="41.554051000" lon="1.849081000">
        <ele>239.90</ele>
        <time>2013-03-24T12:37:47Z</time>
      </trkpt>
      <trkpt lat="41.553871000" lon="1.849273000">
        <ele>239.20</ele>
        <time>2013-03-24T12:37:52Z</time>
      </trkpt>
      <trkpt lat="41.553653000" lon="1.849372000">
        <ele>238.00</ele>
        <time>2013-03-24T12:37:56Z</time>
      </trkpt>
      <trkpt lat="41.553423000" lon="1.849349000">
        <ele>237.10</ele>
        <time>2013-03-24T12:37:59Z</time>
      </trkpt>
      <trkpt lat="41.553286000" lon="1.849534000">
        <ele>237.70</ele>
        <time>2013-03-24T12:38:04Z</time>
      </trkpt>
      <trkpt lat="41.553287000" lon="1.849810000">
        <ele>237.50</ele>
        <time>2013-03-24T12:38:08Z</time>
      </trkpt>
      <trkpt lat="41.553260000" lon="1.850074000">
        <ele>237.10</ele>
        <time>2013-03-24T12:38:11Z</time>
      </trkpt>
      <trkpt lat="41.553231000" lon="1.850333000">
        <ele>236.50</ele>
        <time>2013-03-24T12:38:15Z</time>
      </trkpt>
      <trkpt lat="41.553277000" lon="1.850584000">
        <ele>236.90</ele>
        <time>2013-03-24T12:38:20Z</time>
      </trkpt>
      <trkpt lat="41.553351000" lon="1.850837000">
        <ele>241.10</ele>
        <time>2013-03-24T12:38:27Z</time>
      </trkpt>
      <trkpt lat="41.553476000" lon="1.851031000">
        <ele>242.80</ele>
        <time>2013-03-24T12:38:37Z</time>
      </trkpt>
      <trkpt lat="41.553671000" lon="1.851066000">
        <ele>242.70</ele>
        <time>2013-03-24T12:38:44Z</time>
      </trkpt>
      <trkpt lat="41.553852000" lon="1.850940000">
        <ele>243.10</ele>
        <time>2013-03-24T12:38:50Z</time>
      </trkpt>
      <trkpt lat="41.554021000" lon="1.850935000">
        <ele>243.30</ele>
        <time>2013-03-24T12:38:57Z</time>
      </trkpt>
      <trkpt lat="41.554113000" lon="1.851162000">
        <ele>242.40</ele>
        <time>2013-03-24T12:39:05Z</time>
      </trkpt>
      <trkpt lat="41.554212000" lon="1.851393000">
        <ele>242.60</ele>
        <time>2013-03-24T12:39:11Z</time>
      </trkpt>
      <trkpt lat="41.554176000" lon="1.851626000">
        <ele>244.50</ele>
        <time>2013-03-24T12:39:16Z</time>
      </trkpt>
      <trkpt lat="41.554130000" lon="1.851855000">
        <ele>245.40</ele>
        <time>2013-03-24T12:39:21Z</time>
      </trkpt>
      <trkpt lat="41.554070000" lon="1.852102000">
        <ele>245.00</ele>
        <time>2013-03-24T12:39:26Z</time>
      </trkpt>
      <trkpt lat="41.553950000" lon="1.852339000">
        <ele>245.00</ele>
        <time>2013-03-24T12:39:30Z</time>
      </trkpt>
      <trkpt lat="41.553863000" lon="1.852583000">
        <ele>245.90</ele>
        <time>2013-03-24T12:39:35Z</time>
      </trkpt>
      <trkpt lat="41.553799000" lon="1.852834000">
        <ele>246.90</ele>
        <time>2013-03-24T12:39:40Z</time>
      </trkpt>
      <trkpt lat="41.553865000" lon="1.853096000">
        <ele>250.20</ele>
        <time>2013-03-24T12:39:47Z</time>
      </trkpt>
      <trkpt lat="41.553980000" lon="1.853296000">
        <ele>250.80</ele>
        <time>2013-03-24T12:39:54Z</time>
      </trkpt>
      <trkpt lat="41.554018000" lon="1.853503000">
        <ele>251.20</ele>
        <time>2013-03-24T12:40:03Z</time>
      </trkpt>
      <trkpt lat="41.553986000" lon="1.853733000">
        <ele>249.40</ele>
        <time>2013-03-24T12:40:20Z</time>
      </trkpt>
      <trkpt lat="41.553904000" lon="1.853955000">
        <ele>246.80</ele>
        <time>2013-03-24T12:40:24Z</time>
      </trkpt>
      <trkpt lat="41.553756000" lon="1.854148000">
        <ele>245.50</ele>
        <time>2013-03-24T12:40:27Z</time>
      </trkpt>
      <trkpt lat="41.553589000" lon="1.854321000">
        <ele>244.60</ele>
        <time>2013-03-24T12:40:31Z</time>
      </trkpt>
      <trkpt lat="41.553418000" lon="1.854502000">
        <ele>243.80</ele>
        <time>2013-03-24T12:40:36Z</time>
      </trkpt>
      <trkpt lat="41.553238000" lon="1.854700000">
        <ele>243.70</ele>
        <time>2013-03-24T12:40:39Z</time>
      </trkpt>
      <trkpt lat="41.552837000" lon="1.855116000">
        <ele>242.40</ele>
        <time>2013-03-24T12:40:48Z</time>
      </trkpt>
      <trkpt lat="41.552722000" lon="1.855272000">
        <ele>236.80</ele>
        <time>2013-03-24T12:40:50Z</time>
      </trkpt>
      <trkpt lat="41.552576000" lon="1.855579000">
        <ele>234.40</ele>
        <time>2013-03-24T12:40:53Z</time>
      </trkpt>
      <trkpt lat="41.552504000" lon="1.855796000">
        <ele>233.20</ele>
        <time>2013-03-24T12:40:55Z</time>
      </trkpt>
      <trkpt lat="41.552426000" lon="1.856017000">
        <ele>233.40</ele>
        <time>2013-03-24T12:40:57Z</time>
      </trkpt>
      <trkpt lat="41.552313000" lon="1.856334000">
        <ele>233.50</ele>
        <time>2013-03-24T12:41:00Z</time>
      </trkpt>
      <trkpt lat="41.552204000" lon="1.856619000">
        <ele>233.80</ele>
        <time>2013-03-24T12:41:02Z</time>
      </trkpt>
      <trkpt lat="41.552091000" lon="1.856858000">
        <ele>234.70</ele>
        <time>2013-03-24T12:41:06Z</time>
      </trkpt>
      <trkpt lat="41.551979000" lon="1.857065000">
        <ele>234.30</ele>
        <time>2013-03-24T12:41:09Z</time>
      </trkpt>
      <trkpt lat="41.551864000" lon="1.857258000">
        <ele>235.70</ele>
        <time>2013-03-24T12:41:11Z</time>
      </trkpt>
      <trkpt lat="41.551738000" lon="1.857465000">
        <ele>236.40</ele>
        <time>2013-03-24T12:41:16Z</time>
      </trkpt>
      <trkpt lat="41.551630000" lon="1.857653000">
        <ele>236.10</ele>
        <time>2013-03-24T12:41:19Z</time>
      </trkpt>
      <trkpt lat="41.551513000" lon="1.857854000">
        <ele>235.60</ele>
        <time>2013-03-24T12:41:23Z</time>
      </trkpt>
      <trkpt lat="41.551380000" lon="1.858076000">
        <ele>234.70</ele>
        <time>2013-03-24T12:41:28Z</time>
      </trkpt>
      <trkpt lat="41.551258000" lon="1.858322000">
        <ele>234.00</ele>
        <time>2013-03-24T12:41:32Z</time>
      </trkpt>
      <trkpt lat="41.551101000" lon="1.858502000">
        <ele>234.00</ele>
        <time>2013-03-24T12:41:37Z</time>
      </trkpt>
      <trkpt lat="41.550951000" lon="1.858680000">
        <ele>232.80</ele>
        <time>2013-03-24T12:41:42Z</time>
      </trkpt>
      <trkpt lat="41.550797000" lon="1.858845000">
        <ele>231.60</ele>
        <time>2013-03-24T12:41:46Z</time>
      </trkpt>
      <trkpt lat="41.550633000" lon="1.859036000">
        <ele>229.80</ele>
        <time>2013-03-24T12:41:49Z</time>
      </trkpt>
      <trkpt lat="41.550504000" lon="1.859256000">
        <ele>229.40</ele>
        <time>2013-03-24T12:41:54Z</time>
      </trkpt>
      <trkpt lat="41.550389000" lon="1.859476000">
        <ele>229.40</ele>
        <time>2013-03-24T12:41:58Z</time>
      </trkpt>
      <trkpt lat="41.550292000" lon="1.859693000">
        <ele>229.00</ele>
        <time>2013-03-24T12:42:03Z</time>
      </trkpt>
      <trkpt lat="41.550179000" lon="1.859946000">
        <ele>228.70</ele>
        <time>2013-03-24T12:42:06Z</time>
      </trkpt>
      <trkpt lat="41.550071000" lon="1.860218000">
        <ele>227.20</ele>
        <time>2013-03-24T12:42:10Z</time>
      </trkpt>
      <trkpt lat="41.549971000" lon="1.860419000">
        <ele>226.30</ele>
        <time>2013-03-24T12:42:13Z</time>
      </trkpt>
      <trkpt lat="41.549879000" lon="1.860627000">
        <ele>225.60</ele>
        <time>2013-03-24T12:42:17Z</time>
      </trkpt>
      <trkpt lat="41.549782000" lon="1.860829000">
        <ele>225.60</ele>
        <time>2013-03-24T12:42:19Z</time>
      </trkpt>
      <trkpt lat="41.549666000" lon="1.861021000">
        <ele>225.10</ele>
        <time>2013-03-24T12:42:22Z</time>
      </trkpt>
      <trkpt lat="41.549537000" lon="1.861208000">
        <ele>224.50</ele>
        <time>2013-03-24T12:42:26Z</time>
      </trkpt>
      <trkpt lat="41.549399000" lon="1.861381000">
        <ele>223.80</ele>
        <time>2013-03-24T12:42:29Z</time>
      </trkpt>
      <trkpt lat="41.549241000" lon="1.861540000">
        <ele>222.20</ele>
        <time>2013-03-24T12:42:31Z</time>
      </trkpt>
      <trkpt lat="41.549081000" lon="1.861717000">
        <ele>221.10</ele>
        <time>2013-03-24T12:42:34Z</time>
      </trkpt>
      <trkpt lat="41.548913000" lon="1.861877000">
        <ele>220.50</ele>
        <time>2013-03-24T12:42:38Z</time>
      </trkpt>
      <trkpt lat="41.548752000" lon="1.862031000">
        <ele>220.20</ele>
        <time>2013-03-24T12:42:41Z</time>
      </trkpt>
      <trkpt lat="41.548591000" lon="1.862176000">
        <ele>219.40</ele>
        <time>2013-03-24T12:42:47Z</time>
      </trkpt>
      <trkpt lat="41.548428000" lon="1.862288000">
        <ele>218.40</ele>
        <time>2013-03-24T12:42:52Z</time>
      </trkpt>
      <trkpt lat="41.548250000" lon="1.862424000">
        <ele>216.80</ele>
        <time>2013-03-24T12:42:59Z</time>
      </trkpt>
      <trkpt lat="41.548070000" lon="1.862542000">
        <ele>216.40</ele>
        <time>2013-03-24T12:43:04Z</time>
      </trkpt>
      <trkpt lat="41.547878000" lon="1.862595000">
        <ele>214.20</ele>
        <time>2013-03-24T12:43:07Z</time>
      </trkpt>
      <trkpt lat="41.547668000" lon="1.862641000">
        <ele>212.80</ele>
        <time>2013-03-24T12:43:11Z</time>
      </trkpt>
      <trkpt lat="41.547454000" lon="1.862665000">
        <ele>211.90</ele>
        <time>2013-03-24T12:43:16Z</time>
      </trkpt>
      <trkpt lat="41.547241000" lon="1.862711000">
        <ele>210.80</ele>
        <time>2013-03-24T12:43:20Z</time>
      </trkpt>
      <trkpt lat="41.547019000" lon="1.862749000">
        <ele>209.90</ele>
        <time>2013-03-24T12:43:23Z</time>
      </trkpt>
      <trkpt lat="41.546792000" lon="1.862800000">
        <ele>209.80</ele>
        <time>2013-03-24T12:43:28Z</time>
      </trkpt>
      <trkpt lat="41.546582000" lon="1.862925000">
        <ele>208.60</ele>
        <time>2013-03-24T12:43:32Z</time>
      </trkpt>
      <trkpt lat="41.546425000" lon="1.863058000">
        <ele>207.30</ele>
        <time>2013-03-24T12:43:35Z</time>
      </trkpt>
      <trkpt lat="41.546263000" lon="1.863195000">
        <ele>207.00</ele>
        <time>2013-03-24T12:43:37Z</time>
      </trkpt>
      <trkpt lat="41.546103000" lon="1.863329000">
        <ele>206.20</ele>
        <time>2013-03-24T12:43:41Z</time>
      </trkpt>
      <trkpt lat="41.545938000" lon="1.863466000">
        <ele>205.60</ele>
        <time>2013-03-24T12:43:44Z</time>
      </trkpt>
      <trkpt lat="41.545786000" lon="1.863592000">
        <ele>205.50</ele>
        <time>2013-03-24T12:43:46Z</time>
      </trkpt>
      <trkpt lat="41.545598000" lon="1.863763000">
        <ele>204.70</ele>
        <time>2013-03-24T12:43:51Z</time>
      </trkpt>
      <trkpt lat="41.545412000" lon="1.863914000">
        <ele>203.90</ele>
        <time>2013-03-24T12:43:54Z</time>
      </trkpt>
      <trkpt lat="41.545231000" lon="1.863939000">
        <ele>203.90</ele>
        <time>2013-03-24T12:44:00Z</time>
      </trkpt>
      <trkpt lat="41.545139000" lon="1.863739000">
        <ele>203.50</ele>
        <time>2013-03-24T12:44:10Z</time>
      </trkpt>
      <trkpt lat="41.544913000" lon="1.863571000">
        <ele>202.50</ele>
        <time>2013-03-24T12:44:17Z</time>
      </trkpt>
      <trkpt lat="41.544695000" lon="1.863675000">
        <ele>201.50</ele>
        <time>2013-03-24T12:44:22Z</time>
      </trkpt>
      <trkpt lat="41.544524000" lon="1.863828000">
        <ele>200.90</ele>
        <time>2013-03-24T12:44:28Z</time>
      </trkpt>
      <trkpt lat="41.544356000" lon="1.864037000">
        <ele>199.30</ele>
        <time>2013-03-24T12:44:31Z</time>
      </trkpt>
      <trkpt lat="41.544210000" lon="1.864218000">
        <ele>198.00</ele>
        <time>2013-03-24T12:44:35Z</time>
      </trkpt>
      <trkpt lat="41.544073000" lon="1.864395000">
        <ele>197.30</ele>
        <time>2013-03-24T12:44:38Z</time>
      </trkpt>
      <trkpt lat="41.543918000" lon="1.864597000">
        <ele>196.10</ele>
        <time>2013-03-24T12:44:40Z</time>
      </trkpt>
      <trkpt lat="41.543759000" lon="1.864770000">
        <ele>195.60</ele>
        <time>2013-03-24T12:44:43Z</time>
      </trkpt>
      <trkpt lat="41.543591000" lon="1.864953000">
        <ele>194.70</ele>
        <time>2013-03-24T12:44:47Z</time>
      </trkpt>
      <trkpt lat="41.543444000" lon="1.865144000">
        <ele>195.00</ele>
        <time>2013-03-24T12:44:50Z</time>
      </trkpt>
      <trkpt lat="41.543305000" lon="1.865326000">
        <ele>194.20</ele>
        <time>2013-03-24T12:44:52Z</time>
      </trkpt>
      <trkpt lat="41.543162000" lon="1.865501000">
        <ele>193.60</ele>
        <time>2013-03-24T12:44:55Z</time>
      </trkpt>
      <trkpt lat="41.543017000" lon="1.865673000">
        <ele>193.10</ele>
        <time>2013-03-24T12:44:59Z</time>
      </trkpt>
      <trkpt lat="41.542853000" lon="1.865901000">
        <ele>192.50</ele>
        <time>2013-03-24T12:45:02Z</time>
      </trkpt>
      <trkpt lat="41.542721000" lon="1.866076000">
        <ele>192.00</ele>
        <time>2013-03-24T12:45:06Z</time>
      </trkpt>
      <trkpt lat="41.542572000" lon="1.866261000">
        <ele>190.30</ele>
        <time>2013-03-24T12:45:09Z</time>
      </trkpt>
      <trkpt lat="41.542417000" lon="1.866451000">
        <ele>189.90</ele>
        <time>2013-03-24T12:45:11Z</time>
      </trkpt>
      <trkpt lat="41.542258000" lon="1.866646000">
        <ele>188.60</ele>
        <time>2013-03-24T12:45:15Z</time>
      </trkpt>
      <trkpt lat="41.542094000" lon="1.866848000">
        <ele>187.40</ele>
        <time>2013-03-24T12:45:18Z</time>
      </trkpt>
      <trkpt lat="41.541926000" lon="1.867064000">
        <ele>186.30</ele>
        <time>2013-03-24T12:45:20Z</time>
      </trkpt>
      <trkpt lat="41.541759000" lon="1.867287000">
        <ele>185.20</ele>
        <time>2013-03-24T12:45:23Z</time>
      </trkpt>
      <trkpt lat="41.541589000" lon="1.867504000">
        <ele>184.10</ele>
        <time>2013-03-24T12:45:27Z</time>
      </trkpt>
      <trkpt lat="41.541427000" lon="1.867699000">
        <ele>183.90</ele>
        <time>2013-03-24T12:45:30Z</time>
      </trkpt>
      <trkpt lat="41.541263000" lon="1.867908000">
        <ele>183.60</ele>
        <time>2013-03-24T12:45:32Z</time>
      </trkpt>
      <trkpt lat="41.541121000" lon="1.868080000">
        <ele>183.20</ele>
        <time>2013-03-24T12:45:35Z</time>
      </trkpt>
      <trkpt lat="41.541029000" lon="1.868264000">
        <ele>183.30</ele>
        <time>2013-03-24T12:45:39Z</time>
      </trkpt>
      <trkpt lat="41.541155000" lon="1.868468000">
        <ele>183.00</ele>
        <time>2013-03-24T12:45:44Z</time>
      </trkpt>
      <trkpt lat="41.541276000" lon="1.868685000">
        <ele>182.30</ele>
        <time>2013-03-24T12:45:49Z</time>
      </trkpt>
      <trkpt lat="41.541400000" lon="1.868886000">
        <ele>180.90</ele>
        <time>2013-03-24T12:45:53Z</time>
      </trkpt>
      <trkpt lat="41.541518000" lon="1.869067000">
        <ele>180.10</ele>
        <time>2013-03-24T12:45:56Z</time>
      </trkpt>
      <trkpt lat="41.541600000" lon="1.869269000">
        <ele>179.20</ele>
        <time>2013-03-24T12:46:02Z</time>
      </trkpt>
      <trkpt lat="41.541499000" lon="1.869476000">
        <ele>176.60</ele>
        <time>2013-03-24T12:46:09Z</time>
      </trkpt>
      <trkpt lat="41.541338000" lon="1.869675000">
        <ele>175.30</ele>
        <time>2013-03-24T12:46:12Z</time>
      </trkpt>
      <trkpt lat="41.541170000" lon="1.869905000">
        <ele>172.30</ele>
        <time>2013-03-24T12:46:17Z</time>
      </trkpt>
      <trkpt lat="41.541041000" lon="1.870077000">
        <ele>171.80</ele>
        <time>2013-03-24T12:46:19Z</time>
      </trkpt>
      <trkpt lat="41.540920000" lon="1.870263000">
        <ele>171.10</ele>
        <time>2013-03-24T12:46:23Z</time>
      </trkpt>
      <trkpt lat="41.540809000" lon="1.870466000">
        <ele>169.80</ele>
        <time>2013-03-24T12:46:26Z</time>
      </trkpt>
      <trkpt lat="41.540689000" lon="1.870669000">
        <ele>168.80</ele>
        <time>2013-03-24T12:46:28Z</time>
      </trkpt>
      <trkpt lat="41.540545000" lon="1.870856000">
        <ele>167.00</ele>
        <time>2013-03-24T12:46:31Z</time>
      </trkpt>
      <trkpt lat="41.540385000" lon="1.871038000">
        <ele>166.70</ele>
        <time>2013-03-24T12:46:35Z</time>
      </trkpt>
      <trkpt lat="41.540232000" lon="1.871235000">
        <ele>166.50</ele>
        <time>2013-03-24T12:46:38Z</time>
      </trkpt>
      <trkpt lat="41.540092000" lon="1.871413000">
        <ele>166.20</ele>
        <time>2013-03-24T12:46:40Z</time>
      </trkpt>
      <trkpt lat="41.539957000" lon="1.871577000">
        <ele>166.00</ele>
        <time>2013-03-24T12:46:43Z</time>
      </trkpt>
      <trkpt lat="41.539831000" lon="1.871751000">
        <ele>165.40</ele>
        <time>2013-03-24T12:46:47Z</time>
      </trkpt>
      <trkpt lat="41.539670000" lon="1.871977000">
        <ele>165.70</ele>
        <time>2013-03-24T12:46:50Z</time>
      </trkpt>
      <trkpt lat="41.539510000" lon="1.872188000">
        <ele>165.10</ele>
        <time>2013-03-24T12:46:54Z</time>
      </trkpt>
      <trkpt lat="41.539437000" lon="1.872431000">
        <ele>165.70</ele>
        <time>2013-03-24T12:46:59Z</time>
      </trkpt>
      <trkpt lat="41.539459000" lon="1.872700000">
        <ele>165.20</ele>
        <time>2013-03-24T12:47:03Z</time>
      </trkpt>
      <trkpt lat="41.539496000" lon="1.872985000">
        <ele>164.70</ele>
        <time>2013-03-24T12:47:06Z</time>
      </trkpt>
      <trkpt lat="41.539541000" lon="1.873281000">
        <ele>163.60</ele>
        <time>2013-03-24T12:47:11Z</time>
      </trkpt>
      <trkpt lat="41.539586000" lon="1.873581000">
        <ele>162.20</ele>
        <time>2013-03-24T12:47:15Z</time>
      </trkpt>
      <trkpt lat="41.539632000" lon="1.873884000">
        <ele>161.90</ele>
        <time>2013-03-24T12:47:18Z</time>
      </trkpt>
      <trkpt lat="41.539676000" lon="1.874178000">
        <ele>161.50</ele>
        <time>2013-03-24T12:47:22Z</time>
      </trkpt>
      <trkpt lat="41.539732000" lon="1.874479000">
        <ele>160.40</ele>
        <time>2013-03-24T12:47:27Z</time>
      </trkpt>
      <trkpt lat="41.539834000" lon="1.874769000">
        <ele>159.10</ele>
        <time>2013-03-24T12:47:30Z</time>
      </trkpt>
      <trkpt lat="41.539911000" lon="1.874993000">
        <ele>157.80</ele>
        <time>2013-03-24T12:47:34Z</time>
      </trkpt>
      <trkpt lat="41.540003000" lon="1.875213000">
        <ele>156.20</ele>
        <time>2013-03-24T12:47:36Z</time>
      </trkpt>
      <trkpt lat="41.540113000" lon="1.875425000">
        <ele>154.90</ele>
        <time>2013-03-24T12:47:39Z</time>
      </trkpt>
      <trkpt lat="41.540187000" lon="1.875710000">
        <ele>151.60</ele>
        <time>2013-03-24T12:47:43Z</time>
      </trkpt>
      <trkpt lat="41.540165000" lon="1.876001000">
        <ele>148.00</ele>
        <time>2013-03-24T12:47:46Z</time>
      </trkpt>
      <trkpt lat="41.540151000" lon="1.876300000">
        <ele>144.40</ele>
        <time>2013-03-24T12:47:50Z</time>
      </trkpt>
      <trkpt lat="41.540172000" lon="1.876579000">
        <ele>141.50</ele>
        <time>2013-03-24T12:47:53Z</time>
      </trkpt>
      <trkpt lat="41.540204000" lon="1.876813000">
        <ele>139.90</ele>
        <time>2013-03-24T12:47:55Z</time>
      </trkpt>
      <trkpt lat="41.540098000" lon="1.877008000">
        <ele>135.90</ele>
        <time>2013-03-24T12:48:00Z</time>
      </trkpt>
      <trkpt lat="41.539976000" lon="1.877200000">
        <ele>133.50</ele>
        <time>2013-03-24T12:48:05Z</time>
      </trkpt>
      <trkpt lat="41.539905000" lon="1.877417000">
        <ele>132.40</ele>
        <time>2013-03-24T12:48:11Z</time>
      </trkpt>
      <trkpt lat="41.539806000" lon="1.877676000">
        <ele>132.80</ele>
        <time>2013-03-24T12:48:16Z</time>
      </trkpt>
      <trkpt lat="41.539672000" lon="1.877900000">
        <ele>131.70</ele>
        <time>2013-03-24T12:48:21Z</time>
      </trkpt>
      <trkpt lat="41.539578000" lon="1.878156000">
        <ele>127.60</ele>
        <time>2013-03-24T12:48:26Z</time>
      </trkpt>
      <trkpt lat="41.539516000" lon="1.878388000">
        <ele>123.50</ele>
        <time>2013-03-24T12:48:30Z</time>
      </trkpt>
      <trkpt lat="41.539330000" lon="1.878464000">
        <ele>121.50</ele>
        <time>2013-03-24T12:48:35Z</time>
      </trkpt>
      <trkpt lat="41.539244000" lon="1.878703000">
        <ele>120.60</ele>
        <time>2013-03-24T12:48:42Z</time>
      </trkpt>
      <trkpt lat="41.539314000" lon="1.878944000">
        <ele>119.20</ele>
        <time>2013-03-24T12:48:47Z</time>
      </trkpt>
      <trkpt lat="41.539365000" lon="1.879195000">
        <ele>119.50</ele>
        <time>2013-03-24T12:48:52Z</time>
      </trkpt>
      <trkpt lat="41.539258000" lon="1.879393000">
        <ele>120.30</ele>
        <time>2013-03-24T12:48:59Z</time>
      </trkpt>
      <trkpt lat="41.539086000" lon="1.879491000">
        <ele>118.20</ele>
        <time>2013-03-24T12:49:08Z</time>
      </trkpt>
      <trkpt lat="41.538950000" lon="1.879703000">
        <ele>111.90</ele>
        <time>2013-03-24T12:49:18Z</time>
      </trkpt>
      <trkpt lat="41.538875000" lon="1.879957000">
        <ele>108.90</ele>
        <time>2013-03-24T12:49:24Z</time>
      </trkpt>
      <trkpt lat="41.538891000" lon="1.880282000">
        <ele>105.70</ele>
        <time>2013-03-24T12:49:31Z</time>
      </trkpt>
      <trkpt lat="41.539026000" lon="1.880544000">
        <ele>101.00</ele>
        <time>2013-03-24T12:49:36Z</time>
      </trkpt>
      <trkpt lat="41.539201000" lon="1.880710000">
        <ele>99.20</ele>
        <time>2013-03-24T12:49:39Z</time>
      </trkpt>
      <trkpt lat="41.539118000" lon="1.880950000">
        <ele>95.40</ele>
        <time>2013-03-24T12:49:45Z</time>
      </trkpt>
      <trkpt lat="41.539111000" lon="1.881218000">
        <ele>91.00</ele>
        <time>2013-03-24T12:49:48Z</time>
      </trkpt>
      <trkpt lat="41.539079000" lon="1.881345000">
        <ele>87.90</ele>
        <time>2013-03-24T12:49:57Z</time>
      </trkpt>
      <trkpt lat="41.539246000" lon="1.881136000">
        <ele>84.80</ele>
        <time>2013-03-24T12:50:02Z</time>
      </trkpt>
      <trkpt lat="41.539419000" lon="1.881217000">
        <ele>82.40</ele>
        <time>2013-03-24T12:50:23Z</time>
      </trkpt>
      <trkpt lat="41.539597000" lon="1.881061000">
        <ele>81.40</ele>
        <time>2013-03-24T12:50:28Z</time>
      </trkpt>
      <trkpt lat="41.539757000" lon="1.880859000">
        <ele>80.50</ele>
        <time>2013-03-24T12:50:32Z</time>
      </trkpt>
      <trkpt lat="41.539913000" lon="1.880661000">
        <ele>80.70</ele>
        <time>2013-03-24T12:50:35Z</time>
      </trkpt>
      <trkpt lat="41.540079000" lon="1.880463000">
        <ele>79.70</ele>
        <time>2013-03-24T12:50:40Z</time>
      </trkpt>
      <trkpt lat="41.540306000" lon="1.880374000">
        <ele>79.40</ele>
        <time>2013-03-24T12:50:44Z</time>
      </trkpt>
      <trkpt lat="41.540508000" lon="1.880391000">
        <ele>78.70</ele>
        <time>2013-03-24T12:50:47Z</time>
      </trkpt>
      <trkpt lat="41.540722000" lon="1.880426000">
        <ele>78.00</ele>
        <time>2013-03-24T12:50:49Z</time>
      </trkpt>
      <trkpt lat="41.540948000" lon="1.880460000">
        <ele>76.10</ele>
        <time>2013-03-24T12:50:53Z</time>
      </trkpt>
      <trkpt lat="41.541162000" lon="1.880516000">
        <ele>76.60</ele>
        <time>2013-03-24T12:50:56Z</time>
      </trkpt>
      <trkpt lat="41.541366000" lon="1.880636000">
        <ele>77.60</ele>
        <time>2013-03-24T12:51:00Z</time>
      </trkpt>
      <trkpt lat="41.541569000" lon="1.880759000">
        <ele>77.60</ele>
        <time>2013-03-24T12:51:05Z</time>
      </trkpt>
      <trkpt lat="41.541751000" lon="1.880873000">
        <ele>77.70</ele>
        <time>2013-03-24T12:51:08Z</time>
      </trkpt>
      <trkpt lat="41.541955000" lon="1.881006000">
        <ele>77.70</ele>
        <time>2013-03-24T12:51:12Z</time>
      </trkpt>
      <trkpt lat="41.542167000" lon="1.881141000">
        <ele>78.00</ele>
        <time>2013-03-24T12:51:17Z</time>
      </trkpt>
      <trkpt lat="41.542382000" lon="1.881281000">
        <ele>78.00</ele>
        <time>2013-03-24T12:51:20Z</time>
      </trkpt>
      <trkpt lat="41.542594000" lon="1.881418000">
        <ele>77.60</ele>
        <time>2013-03-24T12:51:24Z</time>
      </trkpt>
      <trkpt lat="41.542796000" lon="1.881534000">
        <ele>78.40</ele>
        <time>2013-03-24T12:51:29Z</time>
      </trkpt>
      <trkpt lat="41.542993000" lon="1.881649000">
        <ele>79.50</ele>
        <time>2013-03-24T12:51:33Z</time>
      </trkpt>
      <trkpt lat="41.543181000" lon="1.881768000">
        <ele>80.90</ele>
        <time>2013-03-24T12:51:36Z</time>
      </trkpt>
      <trkpt lat="41.543367000" lon="1.881894000">
        <ele>82.20</ele>
        <time>2013-03-24T12:51:41Z</time>
      </trkpt>
      <trkpt lat="41.543535000" lon="1.882004000">
        <ele>84.40</ele>
        <time>2013-03-24T12:51:45Z</time>
      </trkpt>
      <trkpt lat="41.543713000" lon="1.882119000">
        <ele>86.40</ele>
        <time>2013-03-24T12:51:50Z</time>
      </trkpt>
      <trkpt lat="41.543809000" lon="1.882341000">
        <ele>87.20</ele>
        <time>2013-03-24T12:51:55Z</time>
      </trkpt>
      <trkpt lat="41.543801000" lon="1.882608000">
        <ele>87.70</ele>
        <time>2013-03-24T12:52:00Z</time>
      </trkpt>
      <trkpt lat="41.543854000" lon="1.882873000">
        <ele>88.60</ele>
        <time>2013-03-24T12:52:06Z</time>
      </trkpt>
      <trkpt lat="41.543987000" lon="1.883093000">
        <ele>89.50</ele>
        <time>2013-03-24T12:52:11Z</time>
      </trkpt>
      <trkpt lat="41.544168000" lon="1.883203000">
        <ele>89.90</ele>
        <time>2013-03-24T12:52:16Z</time>
      </trkpt>
      <trkpt lat="41.544372000" lon="1.883215000">
        <ele>90.60</ele>
        <time>2013-03-24T12:52:21Z</time>
      </trkpt>
      <trkpt lat="41.544569000" lon="1.883221000">
        <ele>90.50</ele>
        <time>2013-03-24T12:52:27Z</time>
      </trkpt>
      <trkpt lat="41.544711000" lon="1.883402000">
        <ele>89.20</ele>
        <time>2013-03-24T12:52:30Z</time>
      </trkpt>
      <trkpt lat="41.544834000" lon="1.883605000">
        <ele>88.30</ele>
        <time>2013-03-24T12:52:34Z</time>
      </trkpt>
      <trkpt lat="41.545026000" lon="1.883697000">
        <ele>87.80</ele>
        <time>2013-03-24T12:52:37Z</time>
      </trkpt>
      <trkpt lat="41.545239000" lon="1.883805000">
        <ele>87.90</ele>
        <time>2013-03-24T12:52:39Z</time>
      </trkpt>
      <trkpt lat="41.545416000" lon="1.883906000">
        <ele>88.40</ele>
        <time>2013-03-24T12:52:42Z</time>
      </trkpt>
      <trkpt lat="41.545547000" lon="1.884114000">
        <ele>89.80</ele>
        <time>2013-03-24T12:52:46Z</time>
      </trkpt>
      <trkpt lat="41.545546000" lon="1.884379000">
        <ele>90.70</ele>
        <time>2013-03-24T12:52:51Z</time>
      </trkpt>
      <trkpt lat="41.545408000" lon="1.884589000">
        <ele>91.00</ele>
        <time>2013-03-24T12:52:54Z</time>
      </trkpt>
      <trkpt lat="41.545250000" lon="1.884776000">
        <ele>91.70</ele>
        <time>2013-03-24T12:52:58Z</time>
      </trkpt>
      <trkpt lat="41.545088000" lon="1.884948000">
        <ele>92.60</ele>
        <time>2013-03-24T12:53:03Z</time>
      </trkpt>
      <trkpt lat="41.544924000" lon="1.885111000">
        <ele>93.70</ele>
        <time>2013-03-24T12:53:07Z</time>
      </trkpt>
      <trkpt lat="41.544776000" lon="1.885294000">
        <ele>94.80</ele>
        <time>2013-03-24T12:53:10Z</time>
      </trkpt>
      <trkpt lat="41.544639000" lon="1.885466000">
        <ele>95.80</ele>
        <time>2013-03-24T12:53:14Z</time>
      </trkpt>
      <trkpt lat="41.544487000" lon="1.885651000">
        <ele>96.10</ele>
        <time>2013-03-24T12:53:19Z</time>
      </trkpt>
      <trkpt lat="41.544322000" lon="1.885812000">
        <ele>97.00</ele>
        <time>2013-03-24T12:53:24Z</time>
      </trkpt>
      <trkpt lat="41.544159000" lon="1.885910000">
        <ele>97.00</ele>
        <time>2013-03-24T12:56:13Z</time>
      </trkpt>
      <trkpt lat="41.544238000" lon="1.886054000">
        <ele>97.80</ele>
        <time>2013-03-24T13:02:12Z</time>
      </trkpt>
      <trkpt lat="41.544415000" lon="1.886006000">
        <ele>97.80</ele>
        <time>2013-03-24T13:02:19Z</time>
      </trkpt>
      <trkpt lat="41.544599000" lon="1.886087000">
        <ele>98.50</ele>
        <time>2013-03-24T13:02:26Z</time>
      </trkpt>
    </trkseg>
  </trk>
</gpx>
